[[{"header":{"parameterUnit":"m.s-1","parameterCategory":1,"la1":30.6,"la2":29.2853,"lo1":-89.7004,"lo2":-87.6739,"dy":0.0162,"dx":0.0183,"nx":112,"ny":82,"refTime":"2024-06-01T12:00:00:Z","depth":0,"parameterNumber":2,"parameterNumberName":"U-component_of_WINDS"},"data":[0.0,0.0,0.0,0.0,0.0,0.0,0.0,0.0,0.0,0.0,0.0,0.0,0.0,0.0,0.0,0.0,0.0,0.0,0.0,0.0,0.0,0.0,0.0,0.0,0.0,0.0,0.0,0.0,0.0,0.0,0.0,0.0,0.0,0.0,0.0,0.0,0.0,0.0,0.0,0.0,0.0,0.0,0.0,0.0,0.0,0.0,0.0,0.0,0.0,0.0,0.0,0.0,0.0,0.0,0.0,0.0,0.0,0.0,0.0,0.0,0.0,0.0,0.0,0.0,0.0,0.0,0.0,0.0,0.0,0.0,0.0,0.0,0.0,0.0,0.0,0.0,0.0,0.0,0.0,0.0,0.0,0.0,0.0,0.0,0.0,0.0,0.0,0.0,0.0,0.0,0.0,-1.3921,-1.5313,-1.5992,-1.565,-1.551,-1.4513,-1.2302,0.0,0.0,0.0,0.0,0.0,0.0,0.0,0.0,0.0,0.0,0.0,0.0,0.0,0.0,0.0,0.0,0.0,0.0,0.0,0.0,0.0,0.0,0.0,0.0,0.0,0.0,0.0,0.0,0.0,0.0,0.0,0.0,0.0,0.0,0.0,0.0,0.0,0.0,0.0,0.0,0.0,0.0,0.0,0.0,0.0,0.0,0.0,0.0,0.0,0.0,0.0,0.0,0.0,0.0,0.0,0.0,0.0,0.0,0.0,0.0,0.0,0.0,0.0,0.0,0.0,0.0,0.0,0.0,0.0,0.0,0.0,0.0,0.0,0.0,0.0,0.0,0.0,0.0,0.0,0.0,0.0,0.0,0.0,0.0,0.0,0.0,0.0,0.0,0.0,0.0,0.0,0.0,0.0,0.0,0.0,0.0,0.0,0.0,0.0,0.0,0.0,0.0,0.0,0.0,-1.2582,-1.477,-1.523,-1.5357,-1.5298,-1.4688,-1.3947,-1.2978,0.0,0.0,0.0,0.0,0.0,0.0,0.0,0.0,0.0,0.0,0.0,0.0,0.0,0.0,0.0,0.0,0.0,0.0,0.0,0.0,0.0,0.0,0.0,0.0,0.0,0.0,0.0,0.0,0.0,0.0,0.0,0.0,0.0,0.0,0.0,0.0,0.0,0.0,0.0,0.0,0.0,0.0,0.0,0.0,0.0,0.0,0.0,0.0,0.0,0.0,0.0,0.0,0.0,0.0,0.0,0.0,0.0,0.0,0.0,0.0,0.0,0.0,0.0,0.0,0.0,0.0,0.0,0.0,0.0,0.0,0.0,0.0,0.0,0.0,0.0,0.0,0.0,0.0,0.0,0.0,0.0,0.0,0.0,0.0,0.0,0.0,0.0,0.0,0.0,0.0,0.0,0.0,0.0,0.0,0.0,0.0,0.0,0.0,0.0,0.0,0.0,0.0,0.0,-1.1861,-1.3165,-1.5,-1.52,-1.5204,-1.5204,-1.4502,-1.3753,-1.2868,-1.1458,0.0,0.0,0.0,0.0,0.0,0.0,0.0,0.0,0.0,0.0,0.0,0.0,0.0,0.0,0.0,0.0,0.0,0.0,0.0,0.0,0.0,0.0,0.0,0.0,0.0,0.0,0.0,0.0,0.0,0.0,0.0,0.0,0.0,0.0,0.0,0.0,0.0,0.0,0.0,0.0,0.0,0.0,0.0,0.0,0.0,0.0,0.0,0.0,0.0,0.0,0.0,0.0,0.0,0.0,0.0,0.0,0.0,0.0,0.0,0.0,0.0,0.0,0.0,0.0,0.0,0.0,0.0,0.0,0.0,0.0,0.0,0.0,0.0,0.0,0.0,0.0,0.0,0.0,0.0,0.0,0.0,0.0,0.0,0.0,0.0,0.0,0.0,0.0,0.0,0.0,0.0,0.0,0.0,0.0,0.0,0.0,0.0,0.0,0.0,0.0,0.0,0.0,-1.2791,-1.3636,-1.5053,-1.511,-1.5062,-1.5062,-1.4252,-1.3412,-1.2661,-1.0677,0.0,0.0,0.0,0.0,0.0,0.0,0.0,0.0,0.0,0.0,0.0,0.0,0.0,0.0,0.0,0.0,0.0,0.0,0.0,0.0,0.0,0.0,0.0,0.0,0.0,0.0,0.0,0.0,0.0,0.0,0.0,0.0,0.0,0.0,0.0,0.0,0.0,0.0,0.0,0.0,0.0,0.0,0.0,0.0,0.0,0.0,0.0,0.0,0.0,0.0,0.0,0.0,0.0,0.0,0.0,0.0,0.0,0.0,0.0,0.0,0.0,0.0,0.0,0.0,0.0,0.0,0.0,0.0,0.0,0.0,0.0,0.0,0.0,0.0,0.0,0.0,0.0,0.0,0.0,0.0,0.0,0.0,0.0,0.0,0.0,0.0,0.0,0.0,0.0,0.0,0.0,0.0,0.0,0.0,0.0,0.0,0.0,0.0,0.0,0.0,0.0,0.0,-1.2907,-1.3909,-1.5083,-1.4875,-1.4641,-1.4641,-1.3442,-1.2677,-1.2598,-1.0019,0.0,0.0,0.0,0.0,0.0,0.0,0.0,0.0,0.0,0.0,0.0,0.0,0.0,0.0,0.0,0.0,0.0,0.0,0.0,0.0,0.0,0.0,0.0,0.0,0.0,0.0,0.0,0.0,0.0,0.0,0.0,0.0,0.0,0.0,0.0,0.0,0.0,0.0,0.0,0.0,0.0,0.0,0.0,0.0,0.0,0.0,0.0,0.0,0.0,0.0,0.0,0.0,0.0,0.0,0.0,0.0,0.0,0.0,0.0,0.0,0.0,0.0,0.0,0.0,0.0,0.0,0.0,0.0,0.0,0.0,0.0,0.0,0.0,0.0,0.0,0.0,0.0,0.0,0.0,0.0,0.0,0.0,0.0,0.0,0.0,0.0,0.0,0.0,0.0,0.0,0.0,0.0,0.0,0.0,0.0,0.0,0.0,0.0,0.0,0.0,0.0,0.0,-1.2443,-1.3437,0.0,-1.4669,-1.4605,-1.4605,-1.3751,-1.2949,-1.2266,0.0,0.0,0.0,0.0,0.0,0.0,0.0,0.0,0.0,0.0,0.0,0.0,0.0,0.0,0.0,0.0,0.0,0.0,0.0,0.0,0.0,0.0,0.0,0.0,0.0,0.0,0.0,0.0,0.0,0.0,0.0,0.0,0.0,0.0,0.0,0.0,0.0,0.0,0.0,0.0,0.0,0.0,0.0,0.0,0.0,0.0,0.0,0.0,0.0,0.0,0.0,0.0,0.0,0.0,0.0,0.0,0.0,0.0,0.0,0.0,0.0,0.0,0.0,0.0,0.0,0.0,0.0,0.0,0.0,0.0,0.0,0.0,0.0,0.0,0.0,0.0,0.0,0.0,0.0,0.0,0.0,0.0,0.0,0.0,0.0,0.0,0.0,0.0,0.0,0.0,0.0,0.0,0.0,0.0,0.0,0.0,0.0,0.0,0.0,0.0,0.0,0.0,-1.14,-1.2407,-1.3338,0.0,-1.4605,-1.4557,-1.4447,-1.3624,-1.2734,-1.19,0.0,0.0,0.0,0.0,0.0,0.0,0.0,0.0,0.0,0.0,0.0,0.0,0.0,0.0,0.0,0.0,0.0,0.0,0.0,0.0,0.0,0.0,0.0,0.0,0.0,0.0,0.0,0.0,0.0,0.0,0.0,0.0,0.0,0.0,0.0,0.0,0.0,0.0,0.0,0.0,0.0,0.0,0.0,0.0,0.0,0.0,0.0,0.0,0.0,0.0,0.0,0.0,0.0,0.0,0.0,0.0,0.0,0.0,0.0,0.0,0.0,0.0,0.0,0.0,0.0,0.0,0.0,0.0,0.0,0.0,0.0,0.0,0.0,0.0,0.0,0.0,0.0,0.0,0.0,0.0,0.0,0.0,0.0,0.0,0.0,0.0,0.0,0.0,0.0,0.0,0.0,0.0,0.0,0.0,0.0,0.0,0.0,0.0,0.0,0.0,0.0,0.0,-1.1789,-1.2933,-1.3854,-1.4526,-1.4605,-1.4462,-1.4148,-1.283,-1.1876,0.0,0.0,0.0,0.0,0.0,0.0,0.0,0.0,0.0,0.0,0.0,0.0,0.0,0.0,0.0,0.0,0.0,0.0,0.0,0.0,0.0,0.0,0.0,0.0,0.0,0.0,0.0,0.0,0.0,0.0,0.0,0.0,0.0,0.0,0.0,0.0,0.0,0.0,0.0,0.0,0.0,0.0,0.0,0.0,0.0,0.0,0.0,0.0,0.0,0.0,0.0,0.0,0.0,0.0,0.0,0.0,0.0,0.0,0.0,0.0,0.0,0.0,0.0,0.0,0.0,0.0,0.0,0.0,0.0,0.0,0.0,0.0,0.0,0.0,0.0,0.0,0.0,0.0,0.0,0.0,0.0,0.0,0.0,0.0,0.0,0.0,0.0,0.0,0.0,0.0,0.0,0.0,0.0,0.0,0.0,0.0,0.0,0.0,0.0,0.0,0.0,0.0,0.0,-1.1768,-1.2933,-1.3854,-1.4526,-1.4605,-1.4557,-1.4462,-1.3433,-1.2409,-1.1543,0.0,0.0,0.0,0.0,0.0,0.0,0.0,0.0,0.0,0.0,0.0,0.0,0.0,0.0,0.0,0.0,0.0,0.0,0.0,0.0,0.0,0.0,0.0,0.0,0.0,0.0,0.0,0.0,0.0,0.0,0.0,0.0,0.0,0.0,0.0,0.0,0.0,0.0,0.0,0.0,0.0,0.0,0.0,0.0,0.0,0.0,0.0,0.0,0.0,0.0,0.0,0.0,0.0,0.0,0.0,0.0,0.0,0.0,0.0,0.0,0.0,0.0,0.0,0.0,0.0,0.0,0.0,0.0,0.0,0.0,0.0,0.0,0.0,0.0,0.0,0.0,0.0,0.0,0.0,0.0,0.0,0.0,0.0,0.0,0.0,0.0,0.0,0.0,0.0,0.0,0.0,0.0,0.0,0.0,0.0,0.0,0.0,0.0,0.0,0.0,0.0,0.0,-1.1988,-1.3028,-1.3854,-1.4526,-1.4605,-1.455,-1.4407,-1.3608,-1.2631,-1.1559,0.0,0.0,0.0,0.0,0.0,0.0,0.0,0.0,0.0,0.0,0.0,0.0,0.0,0.0,0.0,0.0,0.0,0.0,0.0,0.0,0.0,0.0,0.0,0.0,0.0,0.0,0.0,0.0,0.0,0.0,0.0,0.0,0.0,0.0,0.0,0.0,0.0,0.0,0.0,0.0,0.0,0.0,0.0,0.0,0.0,0.0,0.0,0.0,0.0,0.0,0.0,0.0,0.0,0.0,0.0,0.0,0.0,0.0,0.0,0.0,0.0,0.0,0.0,0.0,0.0,0.0,0.0,0.0,0.0,0.0,0.0,0.0,0.0,0.0,0.0,0.0,0.0,0.0,0.0,0.0,0.0,0.0,0.0,0.0,0.0,0.0,0.0,0.0,0.0,0.0,0.0,0.0,0.0,0.0,0.0,0.0,0.0,0.0,0.0,0.0,0.0,0.0,-1.2328,-1.3219,-1.3894,-1.4534,-1.4605,-1.447,-1.4188,-1.3505,-1.2647,-1.1606,0.0,0.0,0.0,0.0,0.0,0.0,0.0,0.0,0.0,0.0,0.0,0.0,0.0,0.0,0.0,0.0,0.0,0.0,0.0,0.0,0.0,0.0,0.0,0.0,0.0,0.0,0.0,0.0,0.0,0.0,0.0,0.0,0.0,0.0,0.0,0.0,0.0,0.0,0.0,0.0,0.0,0.0,0.0,0.0,0.0,0.0,0.0,0.0,0.0,0.0,0.0,0.0,0.0,0.0,0.0,0.0,0.0,0.0,0.0,0.0,-1.194,0.0,0.0,0.0,0.0,0.0,0.0,0.0,0.0,0.0,0.0,0.0,0.0,0.0,0.0,0.0,0.0,0.0,0.0,0.0,0.0,0.0,0.0,0.0,0.0,0.0,0.0,0.0,0.0,0.0,0.0,0.0,0.0,0.0,0.0,0.0,0.0,0.0,0.0,0.0,0.0,0.0,-1.2391,-1.3402,-1.4164,-1.4557,-1.4605,-1.4573,-1.4502,-1.3648,-1.275,-1.1927,-1.0492,0.0,0.0,0.0,0.0,0.0,0.0,0.0,0.0,0.0,0.0,0.0,0.0,0.0,0.0,0.0,0.0,0.0,0.0,0.0,0.0,0.0,0.0,0.0,0.0,0.0,0.0,0.0,0.0,0.0,0.0,0.0,0.0,0.0,0.0,0.0,0.0,0.0,0.0,0.0,0.0,0.0,0.0,0.0,0.0,0.0,0.0,0.0,0.0,0.0,0.0,0.0,0.0,0.0,0.0,0.0,0.0,0.0,0.0,0.0,0.0,-1.3509,0.0,0.0,0.0,0.0,0.0,0.0,0.0,0.0,0.0,0.0,0.0,0.0,0.0,0.0,0.0,0.0,0.0,0.0,0.0,0.0,0.0,0.0,0.0,0.0,0.0,0.0,0.0,0.0,0.0,0.0,0.0,0.0,0.0,0.0,0.0,0.0,0.0,0.0,0.0,0.0,-1.2407,-1.3473,-1.4217,-1.4565,-1.4605,-1.4605,-1.4605,-1.3955,-1.3282,-1.2575,-1.1217,0.0,0.0,0.0,0.0,0.0,0.0,0.0,0.0,0.0,0.0,0.0,0.0,0.0,0.0,0.0,0.0,0.0,0.0,0.0,0.0,0.0,0.0,0.0,0.0,0.0,0.0,0.0,0.0,0.0,0.0,0.0,0.0,0.0,0.0,0.0,0.0,0.0,0.0,0.0,0.0,0.0,0.0,0.0,0.0,0.0,0.0,0.0,0.0,0.0,0.0,0.0,0.0,0.0,-1.6858,-1.7087,-1.6546,-1.755,-1.8291,-1.869,-1.7298,-1.6648,-1.6516,-1.5545,0.0,0.0,0.0,0.0,0.0,0.0,0.0,0.0,0.0,0.0,0.0,0.0,0.0,0.0,0.0,0.0,0.0,0.0,0.0,0.0,0.0,0.0,0.0,0.0,-1.5309,-1.5817,-1.2146,0.0,0.0,0.0,0.0,0.0,0.0,0.0,0.0,0.0,0.0,0.0,-1.2519,-1.3561,-1.428,-1.4573,-1.4605,-1.4605,-1.4605,-1.428,-1.3815,-1.3132,-1.1948,-1.0764,0.0,0.0,0.0,0.0,0.0,0.0,0.0,0.0,0.0,0.0,0.0,0.0,0.0,0.0,0.0,0.0,0.0,0.0,0.0,0.0,0.0,0.0,0.0,0.0,0.0,0.0,0.0,0.0,0.0,0.0,0.0,0.0,-1.1223,-1.1045,0.0,0.0,0.0,0.0,0.0,0.0,0.0,0.0,0.0,0.0,0.0,0.0,0.0,-1.5933,-1.6844,-1.8516,-1.9118,-1.8679,-1.984,-2.0207,-1.9783,-1.9935,-2.0817,-2.2227,-2.201,0.0,-1.8364,-1.7604,0.0,0.0,0.0,0.0,0.0,0.0,0.0,0.0,0.0,0.0,0.0,0.0,0.0,0.0,0.0,0.0,0.0,0.0,0.0,0.0,0.0,0.0,-1.7288,-1.6435,-1.6553,-1.6572,0.0,-1.4159,-1.2928,-1.1887,-1.0415,0.0,0.0,0.0,0.0,0.0,0.0,0.0,-1.2917,-1.3892,-1.455,-1.4597,-1.4605,-1.4605,-1.4605,-1.428,-1.3815,-1.3132,-1.2654,-1.1778,-1.0408,-0.9938,0.0,0.0,0.0,0.0,0.0,0.0,0.0,0.0,0.0,0.0,0.0,0.0,0.0,0.0,0.0,0.0,0.0,0.0,0.0,0.0,0.0,0.0,0.0,0.0,0.0,0.0,0.0,0.0,0.0,-1.0906,-1.2294,-1.1675,-1.2319,-1.2411,0.0,0.0,0.0,0.0,0.0,0.0,0.0,0.0,0.0,-1.7282,-1.8002,-1.8863,-1.9912,-2.0774,-2.1161,-2.1113,-2.1999,-2.214,-2.164,-2.2366,-2.305,-2.3629,-2.3745,-2.3263,-2.2254,-2.0495,-1.8901,-1.7512,0.0,0.0,0.0,0.0,-1.6801,-1.6935,-1.7922,-1.828,-1.8184,-1.7648,0.0,0.0,0.0,0.0,0.0,0.0,0.0,0.0,0.0,0.0,-1.8027,-1.7331,-1.798,-1.8369,-1.6975,-1.6149,-1.5204,0.0,-1.2477,-1.1392,-1.0272,0.0,0.0,0.0,0.0,-1.2877,-1.3576,-1.4418,-1.4943,-1.4943,-1.4943,-1.4863,-1.4621,-1.4462,-1.4074,-1.341,-1.3084,-1.2431,-1.1384,-1.0621,-0.9843,0.0,0.0,0.0,0.0,0.0,0.0,0.0,0.0,0.0,0.0,0.0,0.0,0.0,0.0,0.0,0.0,0.0,0.0,0.0,0.0,0.0,0.0,0.0,0.0,0.0,0.0,0.0,0.0,-1.1964,-1.3179,-1.2359,-1.3471,-1.3782,0.0,0.0,0.0,0.0,0.0,0.0,-1.7031,-1.8354,-1.9428,-2.0109,-2.073,-2.1539,-2.2551,-2.2721,-2.2959,-2.3176,-2.3658,-2.3617,-2.3217,-2.4179,-2.4616,-2.4658,-2.4786,-2.5043,-2.5185,-2.2948,-2.138,-2.0322,-1.9381,-1.8817,-1.8604,-1.9391,-1.9704,-1.9854,-2.0975,-2.1372,-2.1239,-2.0584,-1.9564,-1.8407,-1.7245,0.0,0.0,0.0,0.0,-1.7416,-1.8385,-1.8987,-1.9269,-1.8797,-1.9704,-2.0161,-1.847,-1.7922,-1.7203,0.0,-1.4214,-1.3306,-1.2019,0.0,0.0,0.0,0.0,-1.3703,-1.4307,-1.4927,-1.5346,-1.5346,-1.5237,-1.5078,-1.4764,-1.466,-1.4304,-1.3624,-1.3387,-1.2861,-1.2022,-1.1273,-1.0613,-1.0048,0.0,0.0,0.0,0.0,0.0,0.0,0.0,0.0,0.0,0.0,0.0,0.0,0.0,0.0,0.0,0.0,0.0,0.0,0.0,0.0,0.0,0.0,0.0,0.0,0.0,0.0,0.0,0.0,0.0,-1.3333,-1.5137,0.0,0.0,0.0,0.0,-1.537,-1.7425,-1.8929,-1.9298,-2.0547,-2.1446,-2.1864,-2.2839,-2.357,-2.4084,-2.4721,-2.4958,-2.4787,-2.484,-2.4787,-2.4798,-2.484,-2.5242,-2.5821,-2.5841,-2.5841,-2.5742,-2.4207,-2.3215,-2.2615,-2.2226,-2.1702,-2.1274,-2.1879,-2.2135,-2.2165,-2.2507,-2.2595,-2.2622,-2.2851,-2.1856,-2.0474,-1.9957,-1.906,0.0,0.0,-1.9854,-2.0524,-2.2116,-2.2413,-2.2234,-2.2038,-2.1881,-2.1552,-2.056,-1.9702,-1.8551,0.0,-1.5053,-1.4061,-1.3966,0.0,-1.3584,-1.391,-1.4264,-1.466,-1.5078,-1.5435,-1.5688,-1.5688,-1.5372,-1.5173,-1.5157,-1.4803,-1.4304,-1.3624,-1.3568,-1.3092,-1.203,-1.1942,-1.1471,-1.0488,-1.0033,0.0,0.0,0.0,0.0,0.0,0.0,0.0,0.0,0.0,0.0,0.0,0.0,0.0,0.0,0.0,0.0,0.0,0.0,0.0,0.0,0.0,0.0,0.0,0.0,0.0,0.0,0.0,0.0,-1.5618,-1.7307,0.0,-1.6525,-1.7738,-1.869,-1.8913,-2.0543,-2.175,-2.2195,-2.3235,-2.3908,-2.4068,-2.4701,-2.5268,-2.5753,-2.5976,-2.6215,-2.6454,-2.6454,-2.6454,-2.6443,-2.6152,-2.6098,-2.6354,-2.6037,-2.5895,-2.5863,-2.5338,-2.4796,-2.4287,-2.3897,-2.3564,-2.3433,-2.3646,-2.3897,-2.4137,-2.3928,-2.407,-2.4205,-2.3681,-2.3107,-2.2525,-2.2052,-2.1699,-2.1497,-2.1834,-2.2077,-2.2315,-2.2931,-2.3016,-2.2776,-2.2176,-2.1969,-2.1671,-2.0759,-2.034,-1.988,-1.9218,-1.7282,-1.5659,-1.5332,-1.51,-1.5033,-1.5215,-1.5292,-1.5435,-1.5801,-1.5944,-1.6015,-1.6015,-1.5705,-1.5419,-1.5205,-1.4641,-1.4093,-1.3616,-1.3419,-1.2996,-1.2423,-1.1924,-1.1503,-1.1165,-1.031,-0.9287,0.0,0.0,0.0,0.0,0.0,0.0,0.0,0.0,0.0,0.0,0.0,0.0,0.0,0.0,0.0,0.0,0.0,0.0,0.0,0.0,0.0,0.0,0.0,0.0,0.0,0.0,-1.7597,-1.7277,-1.9013,-1.9811,-1.8689,-2.0018,-2.1159,-2.1552,-2.2938,-2.3875,-2.4203,-2.5131,-2.5666,-2.5666,-2.6136,-2.6529,-2.6813,-2.6824,-2.7009,-2.7315,-2.7315,-2.7315,-2.7304,-2.6998,-2.6824,-2.6802,-2.6518,-2.6289,-2.6147,-2.6147,-2.5863,-2.5393,-2.5087,-2.4967,-2.4967,-2.4967,-2.5153,-2.5371,-2.4984,-2.5041,-2.509,-2.4421,-2.4108,-2.3913,-2.3589,-2.3377,-2.3274,-2.3433,-2.3456,-2.3453,-2.3608,-2.3639,-2.3474,-2.2914,-2.2788,-2.2518,-2.1646,-2.1169,-2.0918,-2.0822,-1.9305,-1.7781,-1.6968,-1.677,-1.6585,-1.6238,-1.6075,-1.6118,-1.6357,-1.6381,-1.6381,-1.6381,-1.6063,-1.5721,-1.538,-1.4697,-1.4093,-1.3616,-1.3275,-1.2877,-1.2431,-1.1924,-1.1559,-1.1328,-1.0288,-0.935,-0.8569,0.0,0.0,0.0,0.0,0.0,0.0,0.0,0.0,0.0,0.0,0.0,0.0,0.0,0.0,0.0,0.0,0.0,0.0,0.0,0.0,0.0,0.0,0.0,-1.5842,-1.7506,-1.8593,-1.8291,-2.0243,-2.1068,-1.978,-2.2157,-2.3535,-2.303,-2.4371,-2.5237,-2.5259,-2.6114,-2.6595,-2.6606,-2.7075,-2.7315,-2.7337,-2.7337,-2.7337,-2.7359,-2.7359,-2.7359,-2.7359,-2.7337,-2.7337,-2.7337,-2.7315,-2.7064,-2.6606,-2.6595,-2.6354,-2.5917,-2.5906,-2.5895,-2.5895,-2.5895,-2.5895,-2.5853,-2.5696,-2.5422,-2.52,-2.52,-2.4923,-2.455,-2.455,-2.4089,-2.3643,-2.4105,-2.4106,-2.4043,-2.4426,-2.4497,-2.4497,-2.4497,-2.4497,-2.4272,-2.3323,-2.2438,-2.1708,-2.1355,-2.0991,-2.0323,-1.9022,-1.8737,-1.8277,-1.704,-1.682,0.0,-1.6771,-1.6771,-1.6771,-1.673,-1.6453,-1.6094,-1.5744,-1.5067,-1.4323,-1.3691,-1.3283,-1.2781,-1.2067,-1.2011,-1.1657,-1.101,-0.9962,-0.9263,-0.8937,0.0,0.0,0.0,0.0,0.0,0.0,0.0,0.0,0.0,0.0,0.0,0.0,0.0,0.0,0.0,0.0,0.0,0.0,0.0,0.0,0.0,0.0,-1.8256,-1.8397,-1.9792,-2.1002,-2.1564,-2.2848,-2.3545,-2.3171,-2.415,-2.473,-2.457,-2.5267,-2.5852,-2.6212,-2.6442,-2.678,-2.7119,-2.7239,-2.7435,-2.7794,-2.7794,-2.8014,-2.8399,-2.8399,-2.8399,-2.8388,-2.7992,-2.7794,-2.7773,-2.7468,-2.7239,-2.7097,-2.6726,-2.6508,-2.6387,-2.6037,-2.5895,-2.5895,-2.5895,-2.5895,-2.5906,-2.5853,-2.577,-2.5728,-2.5728,-2.563,-2.5532,-2.5532,-2.5268,-2.5037,-2.5166,-2.4946,-2.4671,-2.4754,-2.4658,-2.4497,-2.4497,-2.4497,-2.4411,-2.4176,-2.3917,-2.3704,-2.3627,-2.3496,-2.2911,-2.1282,-1.9659,-1.8859,-1.9813,-1.9177,0.0,-1.859,-1.859,-1.8359,-1.7723,-1.7347,-1.6985,-1.6547,-1.5557,-1.4806,-1.4404,-1.3529,-1.2849,-1.2439,-1.1908,-1.1431,-1.101,-1.048,-1.0002,0.0,0.0,0.0,0.0,0.0,0.0,0.0,0.0,0.0,0.0,0.0,0.0,0.0,0.0,0.0,0.0,0.0,0.0,0.0,0.0,0.0,0.0,-1.8884,-2.0227,-2.0839,-2.1647,-2.2466,-2.322,-2.4181,-2.477,-2.477,-2.5196,-2.548,-2.548,-2.5928,-2.6332,-2.6573,-2.6966,-2.7304,-2.7565,-2.7807,-2.8058,-2.8331,-2.8342,-2.8473,-2.8803,-2.8803,-2.8803,-2.8792,-2.8473,-2.8342,-2.8331,-2.8047,-2.7807,-2.7555,-2.7282,-2.7053,0.0,0.0,0.0,0.0,0.0,-2.5895,-2.5895,-2.5895,-2.5895,-2.5895,-2.5895,-2.5895,-2.5895,-2.5895,-2.577,-2.5601,-2.5601,-2.5338,-2.5031,-2.5031,-2.4861,-2.4658,-2.4658,-2.4583,-2.4497,-2.4497,-2.4176,-2.4046,-2.4411,-2.3874,0.0,-2.302,-2.145,-2.0347,-2.0666,-2.008,-1.9537,-1.9323,-1.9295,-1.9097,-1.859,-1.8386,-1.8103,-1.7655,-1.6695,0.0,0.0,0.0,-1.3544,-1.2811,-1.1962,0.0,0.0,0.0,0.0,0.0,0.0,0.0,0.0,-0.9954,-1.0002,0.0,0.0,0.0,0.0,0.0,0.0,0.0,0.0,0.0,0.0,0.0,0.0,0.0,0.0,0.0,0.0,-2.0183,-2.1594,-2.2892,-2.3176,-2.3405,-2.3804,-2.4694,-2.5292,-2.5292,-2.5644,-2.5917,-2.5983,-2.6344,-2.6639,-2.6737,0.0,0.0,0.0,0.0,-2.8803,-2.8803,-2.8803,-2.8803,-2.8803,-2.8803,-2.8803,-2.8803,-2.8803,-2.8803,-2.8803,-2.8803,-2.8517,-2.8078,-2.8012,-2.7707,-2.7228,-2.6332,-2.5983,-2.5972,-2.5917,-2.5895,-2.5895,-2.5895,0.0,0.0,-2.5895,-2.5895,-2.5895,-2.5895,-2.577,-2.5644,-2.5644,-2.5464,-2.5242,-2.5242,-2.5073,-2.4946,-2.4946,-2.4743,-2.4583,-2.4583,-2.3907,-2.3541,-2.4358,-2.3159,-2.2536,-2.4229,-2.3448,-2.2104,-2.0652,-2.0342,-2.0145,-1.9692,-1.9599,-1.9532,-1.9462,0.0,0.0,-1.8954,-1.8156,-1.7543,-1.7148,-1.5827,-1.4486,-1.3188,-1.2237,-1.171,-1.167,-1.198,-1.2109,-1.2139,-1.2782,-1.2981,-1.2678,-1.1388,-1.1117,0.0,0.0,0.0,0.0,0.0,0.0,0.0,0.0,0.0,0.0,0.0,0.0,0.0,0.0,0.0,-2.0205,-2.1682,-2.2815,-2.3455,-2.4257,-2.4821,-2.488,-2.5404,-2.5764,-2.5764,-2.5852,-2.607,-2.6463,-2.653,-2.6922,-2.7685,-2.7893,-2.8222,-2.865,-2.8749,-2.8803,-2.8803,-2.8803,-2.8803,-2.8803,0.0,0.0,-2.8803,-2.8803,-2.8803,-2.8803,-2.8803,-2.8749,-2.8628,-2.82,-2.7707,-2.7261,-2.6704,-2.6442,-2.6399,-2.6048,-2.5895,-2.5895,-2.5895,-2.5895,-2.5895,-2.5895,-2.5895,-2.5895,-2.5895,-2.5853,0.0,-2.5853,-2.5686,-2.5517,-2.5517,-2.5338,-2.5158,-2.5158,-2.5115,-2.5073,-2.5073,-2.4807,-2.4594,-2.4786,-2.4348,-2.4057,-2.4454,-2.3353,-2.2614,-2.307,-2.2514,-2.1967,-2.1886,-2.1551,-2.1049,-2.0343,-2.0265,-2.0091,-1.9725,-1.9176,-1.8576,-1.793,-1.5938,-1.4525,-1.3994,-1.3475,-1.3084,-1.279,-1.2846,-1.2885,-1.2885,-1.302,-1.3195,-1.3403,-1.2838,-1.2655,0.0,0.0,0.0,0.0,0.0,0.0,0.0,0.0,0.0,0.0,0.0,-1.6539,0.0,0.0,-2.0282,-2.1737,-2.2739,-2.3624,-2.4344,-2.4869,-2.5215,-2.5215,-2.56,-2.5895,-2.5895,-2.6125,-2.6365,-2.6562,-2.702,-2.75,-2.7969,-2.8265,-2.8506,-2.8792,-2.8803,-2.8803,-2.8803,-2.8803,-2.8803,-2.8803,-2.8803,-2.8803,-2.8803,-2.8803,-2.8803,-2.8803,-2.8803,-2.8803,-2.8781,-2.8495,-2.8254,-2.7981,-2.7523,-2.714,-2.69,-2.6704,-2.6605,-2.6573,-2.6343,-2.6267,-2.6223,-2.5983,-2.5895,-2.5895,-2.5895,-2.5895,-2.5895,-2.5895,-2.5822,-2.5728,-2.5728,-2.5601,-2.538,-2.538,-2.5285,-2.52,-2.52,-2.5115,-2.5031,-2.5031,-2.4946,-2.4871,-2.4871,-2.427,-2.3832,-2.3908,-2.3484,-2.3018,-2.2553,-2.2294,-2.1902,-2.1233,-2.1136,-2.1084,-2.0873,-2.0441,-1.9696,-1.8681,-1.7216,-1.5959,-1.4992,-1.4441,-1.3901,-1.3371,-1.3513,-1.36,-1.36,-1.3783,-1.395,-1.4109,-1.3942,-1.3775,0.0,0.0,0.0,0.0,0.0,0.0,0.0,0.0,-1.6137,-1.7561,-1.8137,-1.8814,-2.015,-2.0893,-2.1715,-2.2936,-2.3635,-2.4279,-2.5106,-2.5292,-2.5357,-2.5357,-2.5666,-2.5895,-2.5895,-2.6301,-2.6617,-2.6715,-2.7511,-2.8034,-2.8132,-2.8549,-2.8803,-2.8803,-2.8803,-2.8803,-2.8803,-2.8891,-2.8891,-2.8803,-2.8902,-2.8891,-2.8803,-2.8803,-2.8803,-2.8803,-2.8803,-2.8803,-2.8803,-2.8803,-2.8803,-2.8771,-2.8331,-2.7938,-2.7566,-2.7381,-2.7315,-2.7261,-2.6889,-2.6758,-2.6682,-2.6201,-2.6037,-2.6026,-2.5928,-2.5895,-2.5895,-2.5895,-2.5895,-2.5895,-2.5895,-2.577,-2.5644,-2.5644,-2.5506,-2.5327,-2.5327,-2.5327,-2.5285,-2.5285,-2.5242,-2.52,-2.52,-2.52,-2.4957,-2.4221,-2.4013,-2.3691,-2.2863,-2.2604,-2.2356,-2.1983,-2.1859,-2.1807,-2.1807,-2.1383,-2.0648,-1.9575,-1.8777,-1.7726,-1.6328,-1.5466,-1.4698,-1.4053,-1.4138,-1.4212,-1.4212,-1.4534,-1.4708,-1.4716,-1.4771,-1.4613,-1.4823,-1.5111,-1.5734,-1.6691,-1.6943,-1.7431,0.0,0.0,-1.9215,-1.9686,-2.0194,-2.072,-2.1308,-2.216,-2.2957,-2.3509,-2.4421,-2.5084,-2.5193,-2.5546,-2.5819,-2.5819,-2.5874,-2.5895,-2.5895,-2.6301,-2.6759,-2.7206,-2.7696,-2.8222,-2.8705,-2.8771,-2.8803,-2.8803,-2.8803,-2.8803,-2.8803,-2.923,-2.923,-2.8814,-2.9241,-2.9219,-2.8803,-2.8803,-2.8803,-2.8803,-2.8803,-2.8803,-2.8803,-2.8803,-2.8803,-2.8792,-2.8738,-2.8694,-2.853,-2.7632,-2.7315,-2.7304,-2.725,-2.7239,-2.7162,-2.6649,-2.6508,-2.642,-2.6037,-2.5895,-2.5895,-2.5895,-2.5895,-2.5895,-2.5895,-2.5895,-2.5853,-2.5853,-2.5853,-2.5812,-2.5812,-2.5686,-2.5559,-2.5559,-2.538,-2.52,-2.52,-2.52,-2.5105,-2.484,-2.4409,-2.4044,-2.3774,-2.3008,-2.248,-2.2428,-2.2056,-2.1807,-2.1807,-2.1383,-2.1052,-2.0897,-1.9799,-1.8922,-1.8393,-1.6982,-1.6004,-1.5573,-1.4874,-1.455,-1.455,-1.4943,-1.5125,-1.5133,-1.5427,-1.538,-1.7085,-1.7205,0.0,0.0,-1.9035,-1.9566,-2.0712,-2.1042,-2.126,-2.1791,-2.2139,-2.244,-2.2719,-2.3117,-2.3591,0.0,-2.4738,-2.5314,-2.5557,-2.5775,-2.5895,-2.5895,-2.5895,-2.5895,-2.5895,-2.6301,-2.678,-2.7272,-2.7718,-2.8244,-2.8771,-2.8803,-2.8803,-2.8803,-2.8803,-2.8935,-2.9172,-2.9379,-2.9521,-2.9609,-2.9805,-2.9652,-2.923,-2.923,-2.9077,-2.8803,-2.8803,-2.8803,-2.8803,-2.8803,-2.8803,-2.8803,-2.8803,-2.8803,-2.8749,-2.8344,-2.8145,-2.8112,-2.7839,-2.7696,-2.7609,-2.7184,-2.6802,-2.6551,-2.6387,-2.6125,-2.5895,-2.5895,-2.5895,-2.5895,-2.5895,-2.5895,-2.5895,-2.5895,-2.5895,-2.5895,-2.5895,-2.5812,-2.577,-2.577,-2.5686,-2.5591,-2.5591,-2.5591,-2.5549,-2.5348,-2.4925,-2.4493,-2.4117,-2.3389,-2.2687,-2.2149,-2.1921,-2.1807,-2.1807,-2.1631,-2.1404,-2.1135,-2.0635,-1.9955,-1.9076,-1.8425,-1.7597,-1.6532,-1.6164,-1.5766,-1.5245,-1.5396,-1.5505,-1.5475,-1.561,-1.5713,-1.8228,0.0,0.0,-1.9961,-2.0754,-2.141,-2.199,-2.24,-2.2829,-2.3348,-2.3455,-2.3466,-2.3562,-2.3658,-2.3897,-2.441,-2.4869,-2.5338,-2.583,-2.5895,-2.5895,-2.5895,-2.5895,-2.5895,-2.5895,-2.6301,-2.678,-2.7272,-2.7718,-2.8244,-2.8771,-2.8803,-2.8803,-2.8803,-2.8935,-2.9175,-2.9478,-2.9751,-2.998,-3.0209,-3.0341,-3.0155,-2.9685,-2.9543,-2.9292,-2.9,-2.8858,-2.8803,-2.8803,-2.8803,-2.8803,-2.8803,-2.8803,-2.8803,-2.8803,-2.8803,-2.8803,-2.8749,-2.8353,-2.8244,-2.8156,-2.7676,-2.7195,-2.6748,-2.6628,-2.6289,-2.5895,-2.5895,-2.5895,-2.5895,-2.5895,-2.5895,-2.5895,-2.5895,-2.5895,-2.5895,-2.5895,-2.5895,-2.5895,-2.5895,-2.5895,-2.5895,-2.5895,-2.5895,-2.5853,-2.5686,-2.5295,-2.483,-2.442,-2.371,-2.2884,-2.2087,-2.188,-2.1807,-2.1807,-2.1807,-2.1662,-2.1331,-2.13,-2.0825,-1.9856,-1.9607,-1.8814,-1.7345,-1.7081,-1.6552,-1.5712,-1.5777,-1.5825,-1.5825,-1.592,-1.6103,0.0,0.0,-2.0025,-2.1079,-2.2137,-2.3107,-2.3764,-2.3931,-2.3991,-2.4148,-2.3863,-2.3582,-2.3593,-2.3658,-2.3897,-2.441,-2.4869,-2.5338,-2.583,-2.5895,-2.5895,-2.5895,-2.5895,-2.5895,0.0,-2.6301,-2.678,-2.7272,-2.7718,-2.8244,-2.8771,-2.8803,-2.8803,-2.8803,-2.9263,-2.9467,-2.9489,-3.0395,-3.0635,-3.022,-3.0657,-3.0635,-3.0177,-2.9707,-2.9478,-2.9434,-2.9011,-2.8803,-2.8803,-2.8803,-2.8803,-2.8803,-2.8803,-2.8803,-2.8803,-2.8803,-2.8803,-2.8803,-2.8781,-2.8781,-2.8705,-2.8132,-2.7642,-2.7206,-2.6726,-2.6289,-2.5895,-2.5895,-2.5895,-2.5895,-2.5895,-2.5895,-2.5895,-2.5895,-2.5895,-2.5895,-2.5895,-2.5895,-2.5895,-2.5895,-2.5895,-2.5895,-2.5895,-2.5895,-2.5895,-2.5906,-2.5506,-2.5115,-2.4935,-2.3898,-2.3008,-2.2532,-2.2076,-2.1807,-2.1807,-2.1807,-2.1797,-2.1787,-2.1787,-2.158,-2.1077,-2.0369,-1.938,-1.8091,-1.7345,-1.6552,-1.5712,-1.6023,-1.619,-1.6198,-1.6499,-1.6665,0.0,0.0,-2.1199,-2.265,-2.3496,-2.416,-2.474,-2.4872,-2.4789,-2.4448,-2.4132,-2.3675,-2.3107,-2.3315,-2.3658,-2.3946,-2.465,-2.5338,-2.583,-2.5895,-2.5895,-2.5895,-2.5895,0.0,0.0,0.0,0.0,-2.725,-2.7468,-2.7916,-2.876,-2.8803,-2.8803,-2.8803,-2.9285,-2.9642,-2.9969,-3.0581,-3.0985,-3.1149,-3.0974,-3.081,-3.0646,-3.0188,-2.9969,-2.9936,-2.9456,-2.9237,-2.9263,-2.8935,-2.8803,-2.8803,-2.8803,-2.8803,-2.8803,-2.8803,-2.8803,-2.8803,-2.8803,-2.8803,-2.8771,-2.8571,-2.8189,-2.7718,-2.7565,-2.6966,-2.6344,-2.6344,-2.6147,-2.5895,-2.5895,-2.5895,-2.5895,-2.5895,-2.5895,-2.5895,-2.5895,-2.5895,-2.5895,-2.5895,-2.5895,-2.5895,-2.5895,-2.5895,-2.5895,-2.5895,-2.5506,-2.4967,-2.4304,-2.3909,-2.335,-2.2573,-2.2356,-2.2139,-2.1828,-2.1807,-2.1807,-2.1807,-2.1807,-2.1735,-2.158,-2.1343,-2.0721,-1.9726,-1.8909,-1.8092,-1.7225,-1.6766,-1.6515,-1.6515,-1.6634,-1.6689,-2.0918,-2.16,-2.2306,-2.3688,-2.4422,-2.4891,-2.5228,-2.5155,-2.4879,-2.4362,-2.3793,-2.3172,-2.2326,-2.2343,-2.2675,-2.3345,-2.3995,-2.4749,-2.5764,-2.5895,-2.5895,-2.5895,-2.5895,-2.5895,0.0,0.0,0.0,-2.7239,-2.7315,-2.773,-2.8749,-2.8803,-2.8803,-2.8803,-2.9401,-2.9893,-3.0209,-3.0843,-3.1313,-3.1618,-3.1302,-3.1149,-3.1138,-3.0668,-3.0461,-3.0417,-2.9762,-2.9489,-2.9445,-2.9,-2.8803,-2.8803,-2.8803,-2.8803,-2.8803,-2.8803,-2.8803,-2.8803,-2.8803,-2.8803,-2.8803,-2.8803,-2.8429,-2.7991,-2.7991,-2.7445,-2.6802,-2.6639,-2.6355,-2.6125,-2.595,-2.5895,-2.5895,-2.5895,-2.5895,-2.5895,-2.5895,-2.5895,-2.5895,-2.5895,-2.5895,-2.5895,-2.5895,-2.5895,-2.5864,-2.5812,-2.5559,-2.5104,-2.4441,-2.4096,-2.365,-2.3049,-2.2842,-2.2553,-2.2097,-2.2056,-2.1983,-2.1818,-2.1807,-2.1807,-2.1807,-2.1807,-2.1367,-2.0498,-1.9982,-1.9304,-1.847,-1.7602,-1.7164,-1.7164,-1.6853,-1.6689,-2.1448,-2.2313,-2.3336,-2.4314,-2.4939,-2.53,-2.5276,-2.4867,-2.4326,-2.3794,-2.2959,-2.2049,0.0,0.0,-2.1108,-2.2692,-2.299,-2.3711,-2.5633,-2.5895,-2.5895,0.0,0.0,0.0,0.0,0.0,0.0,-2.7282,0.0,-2.773,-2.8749,-2.8803,-2.8803,-2.8803,-2.9707,-3.0209,-3.0209,-3.1149,-3.1618,-3.1618,-3.1618,-3.1618,-3.1556,-3.1149,-3.093,-3.0876,-2.9958,-2.9554,-2.9521,-2.9044,-2.8836,-2.8836,-2.8814,-2.8803,-2.8803,-2.8803,-2.8803,-2.8803,-2.8803,-2.8803,-2.8803,-2.8803,-2.8451,-2.8034,-2.8034,-2.7696,-2.7261,-2.678,-2.6628,-2.6486,-2.6059,-2.5917,-2.5895,-2.5895,-2.5895,-2.5895,-2.5895,-2.5895,-2.5895,-2.5895,-2.5895,-2.5895,-2.5895,-2.5895,-2.5853,-2.5644,-2.5601,-2.5475,-2.52,-2.4462,-2.394,-2.3919,-2.3484,-2.3039,-2.2573,-2.2532,-2.2335,-2.1869,-2.1849,-2.1828,-2.1807,-2.1807,-2.1405,-2.0586,-2.0498,-2.0099,-1.9374,-1.843,-1.7997,-1.7997,-1.7131,-1.6705,-2.3016,-2.3969,-2.4829,-2.5043,-2.5204,-2.5204,-2.4819,-2.4326,-2.3592,-2.2282,-2.1494,-2.0688,0.0,0.0,0.0,-2.1972,-2.2937,0.0,-2.5677,-2.5895,0.0,0.0,0.0,-2.6399,-2.6399,-2.6747,0.0,0.0,-2.7523,-2.773,-2.8749,-2.8803,-2.8803,-2.8803,-2.9707,-3.0209,-3.0209,-3.1149,-3.1618,-3.1618,-3.1618,-3.1618,-3.1618,-3.1498,-3.1433,-3.14,-3.0799,-3.0537,-3.0472,-2.9642,-2.9292,-2.9307,-2.8946,-2.8803,-2.8803,-2.8803,-2.8803,-2.8803,-2.8803,-2.8803,-2.8803,-2.8803,-2.8716,-2.8617,-2.8617,-2.8233,-2.7783,-2.7664,-2.7129,-2.6562,-2.6431,-2.6168,-2.5895,-2.5895,-2.5895,-2.5895,-2.5895,-2.5895,-2.5895,-2.5895,-2.5895,-2.5895,-2.5895,-2.5895,-2.5895,-2.5822,-2.5506,-2.52,-2.4988,-2.4766,-2.444,-2.395,-2.3774,-2.3515,-2.3049,-2.3008,-2.2811,-2.2356,-2.2325,-2.2159,-2.1818,-2.1807,-2.1693,-2.1454,-2.0818,-2.0382,-2.0177,-1.8718,-1.7997,-1.7997,-1.7131,-1.6881,-2.3983,-2.4721,-2.5355,-2.531,-2.5131,-2.4771,-2.4013,-2.3268,-2.227,-2.067,-1.9925,0.0,0.0,0.0,0.0,0.0,0.0,0.0,-2.5595,-2.5889,-2.5983,0.0,-2.642,0.0,-2.6911,-2.7162,-2.7467,0.0,-2.774,-2.796,-2.876,-2.8803,-2.8803,-2.8803,-2.9707,-3.0417,-3.0832,-3.1356,-3.1618,-3.1618,-3.1618,-3.1618,-3.1618,-3.1618,-3.1618,-3.1545,0.0,-3.0898,-3.0821,-2.9871,-2.9489,-2.9434,-2.8989,-2.8803,-2.8803,-2.8803,-2.8803,-2.8803,-2.8803,-2.8803,-2.8803,-2.8803,-2.8803,-2.8803,-2.8803,-2.8571,-2.8309,-2.8056,-2.7609,-2.7107,-2.6693,-2.6377,-2.6168,-2.595,-2.5895,-2.5895,-2.5895,-2.5895,-2.5895,-2.5895,-2.5895,-2.5895,-2.5895,-2.5895,-2.5895,-2.5895,-2.5686,-2.5369,-2.5073,-2.4861,-2.4564,-2.4188,-2.4167,-2.3981,-2.3525,-2.3494,-2.3205,-2.2542,-2.2501,-2.2294,-2.1828,-2.1807,-2.1807,-2.1807,-2.1328,-2.1049,-2.1049,-1.9383,-1.859,-1.855,-1.7286,-1.6929,-2.4709,-2.5137,-2.5523,-2.5453,-2.489,-2.4145,-2.3176,-2.2024,-2.073,-1.9172,0.0,-1.7758,-1.6988,0.0,-1.8621,-2.0691,0.0,-2.3022,-2.5451,-2.5782,-2.6005,-2.6519,-2.6639,-2.6857,-2.737,-2.7468,-2.7676,-2.8056,-2.8089,-2.832,-2.8781,-2.8803,-2.8825,-2.8891,-2.974,-3.0635,-3.152,-3.1586,-3.1618,-3.1618,-3.1618,-3.1618,-3.1618,-3.1618,-3.1618,-3.1545,-3.1105,-3.0898,-3.0821,-2.9871,-2.9489,-2.9434,-2.8989,-2.8803,-2.8803,-2.8803,-2.8803,-2.8803,-2.8803,-2.8803,-2.8803,-2.8803,-2.8803,-2.8803,-2.8803,-2.8803,-2.8716,-2.8254,-2.8045,-2.7794,-2.6911,-2.6639,-2.6464,-2.6016,-2.5895,-2.5895,-2.5895,-2.5895,-2.5895,-2.5895,-2.5895,-2.5895,-2.5895,-2.5895,-2.5895,-2.5895,-2.5864,-2.5728,-2.5327,-2.4871,-2.4583,-2.4497,-2.4497,-2.4342,-2.4002,-2.3971,-2.3598,-2.2739,-2.2625,-2.2387,-2.1921,-2.1838,-2.1807,-2.1807,-2.1807,-2.1807,-2.1807,-2.0216,-1.9462,-1.9423,-1.7804,-1.7235,-2.5775,-2.6283,-2.6598,-2.6151,-2.4978,-2.3715,-2.2941,-2.1362,0.0,0.0,0.0,-1.6691,-1.6118,-1.6621,0.0,-2.0354,0.0,0.0,0.0,0.0,-2.5633,0.0,0.0,0.0,0.0,0.0,0.0,0.0,0.0,-2.8716,-2.8792,-2.8803,-2.8989,-2.9394,-2.9915,-3.0472,-3.1018,-3.1422,-3.1618,-3.1618,-3.1618,-3.1618,-3.1618,-3.1618,-3.1618,-3.1545,-3.1105,0.0,-3.0821,-2.9871,-2.9489,-2.9434,-2.8989,-2.8803,-2.8803,-2.8803,-2.8803,-2.8803,-2.8803,-2.8803,-2.8803,-2.8803,-2.8803,-2.8803,-2.8803,-2.8803,-2.8781,-2.8705,-2.8342,-2.786,-2.7337,-2.6868,-2.6464,-2.6016,-2.5895,-2.5895,-2.5895,-2.5895,-2.5895,-2.5895,-2.5895,-2.5895,-2.5895,-2.5895,-2.5895,-2.5895,-2.577,-2.5601,-2.5559,-2.5253,-2.4946,-2.454,-2.4497,-2.4466,-2.4394,-2.4383,-2.4198,-2.367,-2.3277,-2.2863,-2.2397,-2.2004,-2.1807,-2.1807,-2.1807,-2.1807,-2.1807,-2.0769,-2.0294,-2.0265,-1.9304,-1.8825,-2.6043,-2.6405,-2.653,-2.6255,-2.4765,-2.3131,-2.2112,0.0,0.0,0.0,0.0,-1.6114,-1.584,0.0,0.0,0.0,0.0,0.0,0.0,0.0,0.0,0.0,0.0,0.0,0.0,0.0,0.0,0.0,0.0,-2.8803,-2.8803,-2.8803,-2.9033,-2.9467,-2.9707,-3.0177,-3.0887,-3.1127,-3.1367,-3.1618,-3.1367,-3.1247,-3.1236,-3.0996,-3.0887,-3.0876,-3.0635,-3.0537,-3.0482,-2.9784,-2.9489,-2.9434,-2.8989,-2.8803,-2.8803,-2.8803,-2.8803,-2.8803,-2.8803,-2.8803,-2.8803,-2.8803,-2.8803,-2.8803,-2.8803,-2.8803,-2.8803,-2.8803,-2.8407,-2.7882,-2.7435,-2.6966,-2.6464,-2.6016,-2.5895,-2.5895,-2.5895,-2.5895,-2.5895,-2.5895,-2.5895,-2.5895,-2.5895,-2.5895,-2.5895,-2.5895,-2.5812,-2.5728,-2.5601,-2.5475,-2.5211,-2.4743,-2.47,-2.4658,-2.4497,-2.4497,-2.4311,-2.3908,-2.367,-2.3339,-2.2873,-2.2408,-2.2159,-2.2159,-2.1932,-2.1807,-2.1807,-2.0934,-2.0498,-2.0508,-1.9923,-1.9743,-2.6177,-2.6442,-2.6505,-2.6255,-2.4596,-2.2658,-2.1341,-1.954,0.0,0.0,-1.6141,-1.5891,-1.5814,0.0,0.0,0.0,0.0,0.0,0.0,0.0,0.0,0.0,0.0,0.0,0.0,0.0,0.0,0.0,0.0,0.0,-2.8803,-2.8803,-2.8978,-2.9314,-2.9434,-2.9838,-3.0581,-3.0701,-3.0941,-3.1313,-3.093,-3.0756,-3.0734,-3.0373,-3.0209,-3.0209,-3.01,-3.0057,-3.0024,-2.9532,-2.9372,-2.9292,-2.8957,-2.8803,-2.8803,-2.8803,-2.8803,-2.8803,-2.8803,-2.8803,-2.8803,-2.8803,-2.8803,-2.8803,-2.8803,-2.8803,-2.8781,-2.8683,-2.8331,-2.786,-2.7315,-2.69,-2.6464,-2.6016,-2.5895,-2.5895,-2.5895,-2.5895,-2.5895,-2.5895,-2.5895,-2.5895,-2.5895,-2.5895,-2.5895,-2.5895,-2.5895,-2.5853,-2.5686,-2.5644,-2.5475,-2.4988,-2.4946,-2.4818,-2.4615,-2.454,-2.4352,-2.4043,-2.3929,-2.3712,-2.335,-2.2894,-2.2646,-2.2646,-2.219,-2.2004,-2.2097,-2.1227,-2.0829,-2.0927,-2.0657,-2.0624,-2.6534,-2.7249,-2.7413,-2.6431,-2.4602,-2.2608,-2.1171,0.0,0.0,-1.699,-1.6531,-1.6151,-1.5859,-1.5854,0.0,0.0,0.0,0.0,0.0,0.0,0.0,0.0,0.0,0.0,0.0,0.0,0.0,0.0,0.0,0.0,-2.8803,-2.8803,-2.8825,-2.8869,-2.9296,-2.9521,-2.9609,-3.0057,-3.0297,-3.0341,-3.0297,-3.0275,-3.0275,-3.0231,-3.0209,-3.0188,-2.974,-2.9543,0.0,-2.9077,-2.8869,-2.8858,-2.8825,-2.8803,-2.8803,-2.8803,-2.8803,-2.8803,-2.8803,-2.8803,-2.8803,-2.8803,-2.8803,-2.8803,-2.8803,-2.8803,-2.8705,-2.8222,-2.8034,-2.7783,-2.6878,-2.6617,-2.6464,-2.6016,-2.5895,-2.5895,-2.5895,-2.5895,-2.5895,-2.5895,-2.5895,-2.5895,-2.5895,-2.5895,-2.5895,-2.5895,-2.5895,-2.5895,-2.5853,-2.5853,-2.5686,-2.52,-2.4988,-2.4903,-2.4871,-2.4658,-2.4476,-2.4435,-2.4105,-2.3857,-2.3857,-2.337,-2.3122,-2.3122,-2.2666,-2.2646,-2.306,-2.2133,-2.1899,-2.2311,-2.2273,-2.203,-2.5963,-2.6794,-2.7143,-2.6713,-2.4695,-2.2531,-2.148,0.0,-1.7551,-1.7021,-1.6778,-1.6466,-1.5903,-1.5957,-1.6426,-1.7371,-1.7444,-1.8304,0.0,0.0,0.0,0.0,0.0,0.0,0.0,0.0,0.0,0.0,0.0,0.0,-2.885,-2.8803,-2.8803,-2.8803,-2.8989,-2.923,-2.9489,-2.9674,-2.9925,-3.0209,-2.9915,-2.9773,-2.9762,-2.9467,-2.9336,-2.9372,-2.9175,-2.9088,0.0,-2.888,-2.8803,-2.8803,-2.8803,-2.8803,-2.8803,-2.8803,-2.8803,-2.8803,-2.8803,-2.8803,-2.8803,-2.8803,-2.8803,-2.8803,-2.8803,-2.8803,-2.8705,-2.8132,-2.7783,-2.7413,-2.6759,-2.6409,-2.6136,-2.595,-2.5895,-2.5895,-2.5895,-2.5895,-2.5895,-2.5895,-2.5895,-2.5895,-2.5895,-2.5895,-2.5895,-2.5895,-2.5895,-2.5895,-2.5895,-2.5895,-2.5812,-2.5633,-2.5285,-2.4988,-2.47,-2.4583,-2.4497,-2.4497,-2.4332,-2.4281,-2.4281,-2.3846,-2.3598,-2.3598,-2.3153,-2.3008,-2.3184,-2.2811,-2.2739,-2.2915,-2.3194,-2.3248,-2.5007,-2.602,-2.652,-2.6223,-2.437,-2.2376,0.0,0.0,-1.7652,-1.7148,-1.7065,-1.682,-1.6088,-1.625,-1.6557,-1.6821,-1.6849,-1.7627,-1.9873,0.0,0.0,0.0,0.0,0.0,0.0,0.0,0.0,0.0,0.0,0.0,-2.9635,-2.9371,-2.9106,-2.8803,-2.8803,-2.8967,-2.9318,-2.9318,-2.9445,-2.9773,-2.9434,-2.9318,-2.9259,-2.8957,-2.8803,-2.8803,-2.8803,-2.8803,0.0,-2.8803,-2.8803,-2.8803,-2.8803,-2.8803,-2.8803,-2.8803,-2.8803,-2.8803,-2.8803,-2.8803,-2.8803,-2.8803,-2.8803,-2.8803,-2.8803,-2.8803,-2.8672,-2.7992,-2.7326,-2.6824,-2.6496,-2.6157,-2.5895,-2.5895,-2.5895,-2.5895,-2.5895,-2.5895,-2.5895,-2.5895,-2.5895,-2.5895,-2.5895,-2.5895,-2.5895,-2.5895,-2.5895,-2.5895,-2.5895,-2.5895,-2.5864,-2.5812,-2.5506,-2.5168,-2.4839,-2.4711,-2.4615,-2.4615,-2.454,-2.4497,-2.4497,-2.424,-2.4074,-2.4074,-2.3629,-2.3453,-2.3588,-2.3318,-2.3256,-2.3401,-2.3774,-2.395,-2.3784,-2.5005,-2.5648,-2.458,-2.3476,-2.2115,0.0,-1.8979,-1.8026,-1.7504,-1.7393,-1.7186,-1.642,-1.6616,-1.6757,-1.6367,-1.7458,-1.8694,-1.957,0.0,0.0,0.0,0.0,0.0,0.0,0.0,0.0,0.0,0.0,0.0,-3.1533,-3.0699,-2.9772,-2.885,-2.8803,-2.8803,-2.8814,-2.8814,-2.8814,-2.8814,-2.8814,-2.8814,-2.8814,-2.8803,-2.8803,-2.8803,-2.8803,-2.8803,0.0,-2.8803,-2.8803,-2.8803,-2.8803,-2.8803,-2.8803,-2.8803,-2.8803,-2.8803,-2.8803,-2.8803,-2.8803,-2.8803,-2.8803,-2.8803,-2.8803,-2.8803,-2.8596,-2.7588,-2.6638,-2.5917,-2.5906,-2.5906,-2.5895,-2.5895,-2.5895,-2.5895,-2.5895,-2.5895,-2.5895,-2.5895,-2.5895,-2.5895,-2.5895,-2.5895,-2.5895,-2.5895,-2.5895,-2.5895,-2.5895,-2.5895,-2.5812,-2.5601,-2.5601,-2.5601,-2.5612,-2.5168,-2.4903,-2.4903,-2.4658,-2.4497,-2.4497,-2.4497,-2.4487,-2.4487,-2.4095,-2.4084,-2.4476,-2.3629,-2.3422,-2.3867,-2.3919,-2.4115,-2.1844,-2.2822,-2.3364,-2.3016,-2.2049,-2.0909,-1.9946,-1.8827,-1.7873,-1.7474,-1.757,-1.7529,-1.6842,-1.701,-1.7468,-1.8107,-1.8735,0.0,0.0,0.0,0.0,0.0,0.0,0.0,0.0,0.0,0.0,0.0,0.0,0.0,-3.1621,-3.1928,-3.14,-2.9818,-2.9106,-2.8803,-2.8803,-2.8803,-2.8803,-2.8803,-2.8803,-2.8803,-2.8803,-2.8803,-2.8803,0.0,-2.8803,-2.8803,-2.8803,-2.8803,-2.8803,-2.8803,-2.8803,-2.8803,-2.8803,-2.8803,-2.8803,-2.8803,-2.8803,-2.8803,-2.8749,-2.8375,-2.8265,-2.82,-2.7872,-2.8003,-2.8069,-2.7064,-2.6387,-2.5895,-2.5895,-2.5895,-2.5895,-2.5895,-2.5895,-2.5895,-2.5895,-2.5895,-2.5895,-2.5895,-2.5895,-2.5895,-2.5895,-2.5895,-2.5895,-2.5895,-2.5895,-2.5895,-2.5895,-2.5895,-2.5864,-2.5812,-2.5812,-2.5686,-2.5338,-2.5073,-2.4903,-2.4903,-2.4658,-2.4497,-2.4497,-2.4497,-2.4497,-2.4497,-2.4363,-2.4363,-2.4497,-2.4208,-2.4146,-2.4333,-2.4333,-2.4363,0.0,-2.1016,-2.1616,-2.1616,-2.0897,-2.0044,-1.9483,-1.8608,-1.7842,-1.7632,-1.7747,-1.774,-1.7178,-1.7365,-1.779,-1.8358,-1.8899,0.0,0.0,0.0,0.0,0.0,0.0,0.0,0.0,0.0,0.0,0.0,0.0,0.0,-3.2142,-3.2353,-3.1974,-3.0925,-3.0247,-2.9863,-2.9863,-2.9509,-2.9325,-2.9336,-2.8978,-2.8803,-2.8803,-2.8803,-2.8803,-2.8803,-2.8803,-2.8803,0.0,-2.8803,-2.8803,-2.8803,-2.8803,-2.8803,-2.8803,-2.8803,-2.8803,-2.8771,-2.8549,-2.8484,-2.8407,-2.7927,-2.7718,-2.7631,-2.7195,-2.7216,-2.7336,-2.6748,-2.6278,-2.5895,-2.5895,-2.5895,-2.5895,-2.5895,-2.5895,-2.5895,-2.5895,-2.5895,-2.5895,-2.5895,-2.5895,-2.5895,-2.5895,-2.5895,-2.5895,-2.5895,-2.5895,-2.5895,-2.5895,-2.5895,-2.5895,-2.5895,-2.5895,-2.577,-2.5506,-2.5295,-2.5126,-2.5031,-2.4786,-2.4625,-2.4497,-2.4497,-2.4497,-2.4497,-2.4497,-2.4497,-2.4497,-2.4497,-2.4497,-2.4497,-2.4497,-2.4497,0.0,0.0,0.0,0.0,-1.98,-1.9293,-1.8731,-1.8174,0.0,-1.7834,-1.7848,-1.7781,-1.7549,-1.7713,-1.7842,-1.7648,0.0,0.0,0.0,0.0,0.0,0.0,0.0,0.0,0.0,0.0,0.0,0.0,0.0,0.0,-3.2948,-3.2196,-3.1861,-3.2131,-3.1865,-3.168,-3.1621,-3.0744,-3.0306,-3.0306,-2.9428,-2.8978,-2.8885,-2.8885,-2.8839,0.0,-2.8803,-2.8803,-2.8803,-2.8803,-2.8803,-2.8803,-2.8803,-2.8803,-2.8803,-2.8803,-2.8781,-2.8683,-2.8154,-2.798,-2.786,-2.738,-2.7239,-2.713,-2.666,-2.6562,-2.6584,-2.6551,-2.6256,-2.5895,-2.5895,-2.5895,-2.5895,-2.5895,-2.5895,-2.5895,-2.5895,-2.5895,-2.5895,-2.5895,-2.5895,-2.5895,-2.5895,-2.5895,-2.5895,-2.5895,-2.5895,-2.5895,-2.5895,-2.5895,-2.5895,-2.5895,-2.5895,-2.5895,-2.5895,-2.5728,-2.5464,-2.5242,-2.5031,-2.4828,-2.454,-2.454,-2.454,-2.454,-2.4497,-2.4497,-2.4497,-2.4497,-2.4497,-2.4497,-2.4497,-2.4497,-1.5892,0.0,-1.713,-1.713,-1.7035,-1.69,0.0,-1.662,-1.6661,-1.7122,0.0,0.0,-1.8322,0.0,0.0,0.0,0.0,0.0,0.0,0.0,0.0,0.0,0.0,0.0,0.0,0.0,0.0,0.0,0.0,-3.3014,-3.3223,-3.3001,-3.2856,-3.2776,-3.2705,-3.2335,-3.1621,-3.14,-3.1267,-3.1267,-3.1045,-3.0564,-2.9863,-2.9863,-2.9463,-2.8803,-2.8803,-2.8803,-2.8803,-2.8803,-2.8803,-2.8803,-2.8803,-2.8803,-2.8803,-2.8803,-2.8528,-2.8189,-2.8034,-2.7751,-2.7413,-2.69,-2.654,-2.6212,-2.6103,-2.6332,-2.6508,-2.6179,-2.5994,-2.5895,-2.5895,-2.5895,-2.5895,-2.5895,-2.5895,-2.5895,-2.5895,-2.5895,-2.5895,-2.5895,-2.5895,-2.5895,-2.5895,-2.5895,-2.5895,-2.5895,-2.5895,-2.5895,-2.5895,-2.5895,-2.5895,-2.5895,-2.5895,-2.5895,-2.5895,-2.5728,-2.5559,-2.5517,-2.5285,-2.5115,-2.5031,-2.5031,-2.4946,-2.4828,-2.4615,-2.4497,-2.4497,-2.4497,-2.4497,-2.4497,-2.4497,-2.4497,-1.4792,-1.563,-1.6512,-1.6512,-1.6729,-1.6932,-1.6932,0.0,0.0,0.0,0.0,0.0,0.0,0.0,0.0,0.0,0.0,0.0,0.0,0.0,0.0,0.0,0.0,0.0,0.0,0.0,0.0,0.0,0.0,-3.2655,-3.2655,-3.2655,-3.2686,-3.2708,-3.2708,-3.2527,-3.2101,-3.1679,-3.1589,-3.1835,-3.139,-3.1085,-3.0833,-3.0396,-2.9909,-2.9406,-2.8747,-2.8429,-2.8407,-2.8189,-2.8091,-2.8091,-2.8091,-2.8091,-2.8091,-2.8091,-2.7927,-2.7631,-2.7424,-2.7075,-2.6627,-2.6376,-2.6125,-2.5895,-2.5895,-2.6092,-2.6245,-2.5972,-2.5895,-2.5895,-2.5895,-2.5895,-2.5895,-2.5895,-2.5895,-2.5895,-2.5895,-2.5895,-2.5895,-2.5895,-2.5895,-2.5895,-2.5895,-2.5895,-2.5895,-2.5895,-2.5895,-2.5895,-2.5895,-2.5895,-2.5895,-2.5895,-2.5895,-2.5895,-2.5895,-2.5822,-2.5686,-2.5612,-2.5464,-2.5338,-2.52,-2.52,-2.5115,-2.4903,-2.4743,-2.4615,-2.4497,-2.4497,-2.4497,-2.4497,-2.4497,-2.4497,-1.4409,-1.5684,-1.6959,-1.6769,-1.7196,-1.7631,-1.7631,0.0,0.0,0.0,0.0,0.0,0.0,0.0,0.0,0.0,0.0,0.0,0.0,0.0,0.0,0.0,0.0,0.0,0.0,0.0,0.0,0.0,0.0,-3.1963,-3.1963,-3.1963,-3.2068,-3.2326,-3.2339,-3.2389,-3.2542,-3.1891,-3.1751,-3.2176,-3.141,-3.1217,-3.1511,-3.0732,-3.0287,-3.0097,0.0,0.0,-2.8074,-2.7523,-2.7315,-2.7315,-2.7315,-2.7315,-2.7315,-2.7315,-2.7272,-2.714,-2.6682,-2.6245,-2.5895,-2.5895,-2.5895,-2.5895,-2.5895,-2.5895,-2.5895,-2.5895,-2.5895,-2.5895,-2.5895,-2.5895,-2.5895,-2.5895,-2.5895,-2.5895,-2.5895,-2.5895,-2.5895,-2.5895,-2.5895,-2.5895,-2.5895,-2.5895,-2.5895,-2.5895,-2.5895,-2.5895,-2.5895,-2.5895,-2.5895,-2.5895,-2.5895,-2.5895,-2.5895,-2.5895,-2.5822,-2.5644,-2.5654,-2.5559,-2.5327,-2.5285,-2.52,-2.4999,-2.4946,-2.4786,-2.4583,-2.4497,-2.4497,-2.4497,-2.4497,-2.4497,-1.4928,-1.6014,-1.6742,-1.5729,-1.5928,-1.639,-1.639,0.0,0.0,0.0,0.0,0.0,0.0,0.0,0.0,0.0,0.0,0.0,0.0,0.0,0.0,0.0,0.0,0.0,0.0,0.0,0.0,0.0,0.0,-3.2146,-3.2146,-3.2146,-3.2113,-3.1974,-3.1988,-3.1917,-3.1763,-3.2422,-3.2672,-3.2617,-3.2444,-3.2026,-3.134,-3.1187,-3.0716,-2.9903,0.0,-2.8521,-2.8434,-2.7635,-2.7315,-2.7315,-2.7315,-2.7315,-2.7315,-2.7315,-2.7064,-2.6617,-2.6179,-2.5961,-2.5895,-2.5895,-2.5895,-2.5895,-2.5895,-2.5895,-2.5895,-2.5895,-2.5895,-2.5895,-2.5895,-2.5895,-2.5895,-2.5895,-2.5895,-2.5895,-2.5895,-2.5895,-2.5895,-2.5895,-2.5895,-2.5895,-2.5895,-2.5895,-2.5895,-2.5895,-2.5895,-2.5895,-2.5895,-2.5895,-2.5895,-2.5895,-2.5895,-2.5895,-2.5895,-2.5895,-2.5906,-2.5864,-2.5853,-2.5853,-2.5812,-2.5644,-2.5517,-2.5475,-2.5115,-2.4861,-2.4828,-2.4625,-2.4497,-2.4497,-2.4497,-2.4497,-1.4642,-1.5589,-1.6457,-1.6227,-1.7122,-1.7963,-1.7624,-1.7814,0.0,0.0,0.0,0.0,0.0,0.0,0.0,0.0,0.0,0.0,0.0,0.0,0.0,0.0,0.0,0.0,0.0,0.0,0.0,0.0,0.0,0.0,-3.2218,-3.2218,-3.2146,-3.2073,-3.2073,-3.1963,-3.1743,-3.2091,-3.2274,-3.2384,-3.2384,-3.2254,-3.2021,-3.1524,-3.105,-3.0572,0.0,-2.8645,-2.8168,-2.7524,-2.6956,-2.6551,-2.6551,-2.6551,-2.6551,-2.6551,-2.642,-2.6201,-2.5983,-2.5895,-2.5895,-2.5895,-2.5895,-2.5895,-2.5895,-2.5895,-2.5895,-2.5895,-2.5895,-2.5895,-2.5895,-2.5895,-2.5895,-2.5895,-2.5895,-2.5895,-2.5895,-2.5895,-2.5895,-2.5895,-2.5895,-2.5895,-2.5895,-2.5895,-2.5895,-2.5895,-2.5895,-2.5895,-2.5895,-2.5895,-2.5895,-2.5895,-2.5895,-2.5895,-2.5895,-2.5895,-2.5895,-2.5895,-2.5895,-2.5895,-2.5895,-2.5812,-2.5696,-2.5601,-2.5391,-2.5211,-2.5073,-2.4946,-2.4871,-2.4871,-2.4871,-2.4828,-1.4463,-1.5386,-1.643,-1.6878,0.0,-1.9252,-1.922,-1.9551,0.0,0.0,0.0,0.0,0.0,0.0,0.0,0.0,0.0,0.0,0.0,0.0,0.0,0.0,0.0,0.0,0.0,0.0,0.0,0.0,0.0,0.0,-3.2218,-3.2218,-3.2218,-3.2218,-3.2218,-3.2146,-3.1963,-3.1817,-3.1822,-3.1983,-3.1907,-3.2016,-3.2371,-3.1584,-3.1213,-3.1147,-2.988,-2.8942,-2.8304,-2.7691,-2.7092,-2.6456,-2.6302,-2.6063,-2.5895,-2.5895,-2.5895,-2.5895,-2.5895,-2.5895,-2.5895,-2.5895,-2.5895,-2.5895,-2.5895,-2.5895,-2.5895,-2.5895,-2.5895,-2.5895,-2.5895,-2.5895,-2.5895,-2.5895,-2.5895,-2.5895,-2.5895,-2.5895,-2.5895,-2.5895,-2.5895,-2.5895,-2.5895,-2.5895,-2.5895,-2.5895,-2.5895,-2.5895,-2.5895,-2.5895,-2.5895,-2.5895,-2.5895,-2.5895,-2.5895,-2.5895,-2.5895,-2.5895,-2.5895,-2.5895,-2.5895,-2.5895,-2.5822,-2.5686,-2.5601,-2.5517,-2.5285,-2.5242,-2.52,-2.52,-2.52,-2.5073,-1.4982,-1.6028,-1.6946,-1.6987,-1.7522,0.0,-2.0017,-2.0423,0.0,-2.1884,0.0,0.0,0.0,0.0,0.0,0.0,0.0,0.0,0.0,0.0,0.0,0.0,0.0,0.0,0.0,0.0,0.0,0.0,0.0,0.0,-3.2218,-3.2218,-3.2218,-3.2218,-3.2218,-3.2182,-3.2182,-3.2146,-3.1977,-3.1625,-3.1277,-3.1178,-3.1391,-3.1142,-3.1029,-3.0978,-3.0062,-2.965,-2.9521,-2.8648,-2.8267,-2.8148,-2.7418,-2.6622,-2.5895,-2.5895,-2.5895,-2.5895,-2.5895,-2.5895,-2.5895,-2.5895,-2.5895,-2.5895,-2.5895,-2.5895,-2.5895,-2.5895,-2.5895,-2.5895,-2.5895,-2.5895,-2.5895,-2.5895,-2.5895,-2.5895,-2.5895,-2.5895,-2.5895,-2.5895,-2.5895,-2.5895,-2.5895,-2.5895,-2.5895,-2.5895,-2.5895,-2.5895,-2.5895,-2.5895,-2.5895,-2.5895,-2.5895,-2.5895,-2.5895,-2.5895,-2.5895,-2.5895,-2.5895,-2.5895,-2.5895,-2.5895,-2.5895,-2.5895,-2.5696,-2.5601,-2.5559,-2.5338,-2.52,-2.52,-2.52,-2.5073,-1.4588,-1.581,-1.7,-1.7,-1.8018,0.0,0.0,-2.1087,-2.1955,-2.3161,-2.373,0.0,0.0,0.0,0.0,0.0,0.0,0.0,0.0,0.0,0.0,0.0,0.0,0.0,0.0,0.0,0.0,0.0,0.0,0.0,-3.2218,-3.2218,-3.2218,-3.2218,-3.2218,-3.2218,-3.2218,-3.1963,-3.1817,-3.178,-3.1522,-3.1286,-3.1099,-3.1024,-3.0986,-3.0986,-3.0659,-3.0216,-2.9665,-2.9342,-2.89,-2.8386,-2.8079,-2.7447,-2.6704,-2.6704,-2.6385,-2.5895,-2.5895,-2.5895,-2.5895,-2.5895,-2.5895,-2.6021,-2.6539,-2.6343,-2.6104,-2.7162,-2.7092,-2.658,-2.6021,-2.5895,-2.5895,-2.5895,-2.5895,-2.5895,-2.5895,-2.5895,-2.5895,-2.5895,-2.5895,-2.5895,-2.5895,-2.5895,-2.5895,-2.5895,-2.5895,-2.5895,-2.5895,-2.5895,-2.5895,-2.5895,-2.5895,-2.5895,-2.5895,-2.5895,-2.5895,-2.5895,-2.5895,-2.5895,-2.5895,-2.5895,-2.5895,-2.5895,-2.5822,-2.578,-2.578,-2.5686,-2.5633,-2.5633,-2.5633,-2.5506,-1.4341,-1.5616,-1.7041,-1.7231,0.0,0.0,-2.1101,-2.2131,-2.3256,-2.4651,-2.5261,0.0,0.0,0.0,0.0,0.0,0.0,0.0,0.0,0.0,0.0,0.0,0.0,0.0,0.0,0.0,0.0,0.0,0.0,0.0,0.0,-3.2218,-3.2218,-3.2218,-3.2218,-3.2218,-3.2218,-3.1927,-3.1817,-3.189,-3.1743,-3.1485,-3.1099,-3.1024,-3.0986,-3.0986,-3.0986,-3.0659,-3.0101,-3.0101,-2.9588,-2.8821,-2.8821,-2.8159,-2.7214,-2.7499,-2.6857,-2.5937,-2.6218,-2.6302,-2.6302,-2.6302,-2.6498,-2.6805,-2.7406,-2.7174,-2.6928,-2.8068,-2.7999,-2.7447,-2.6846,-2.6498,-2.6302,-2.6302,-2.6104,-2.5895,-2.5895,-2.5895,-2.5895,-2.5895,-2.5895,-2.5895,-2.5895,-2.5895,-2.5895,-2.5895,-2.5895,-2.5895,-2.5895,-2.5895,-2.5895,-2.5895,-2.5895,-2.5895,-2.5895,-2.5895,-2.5895,-2.5895,-2.5895,-2.5895,-2.5895,-2.5895,-2.5895,-2.5895,-2.5895,-2.5895,-2.5895,-2.5895,-2.5895,-2.5895,-2.5895,-2.577,-1.4463,-1.5616,-1.7149,0.0,0.0,0.0,-2.2686,-2.3689,-2.4611,-2.644,0.0,0.0,0.0,0.0,0.0,0.0,0.0,0.0,0.0,0.0,0.0,0.0,0.0,0.0,0.0,0.0,0.0,0.0,0.0,0.0,0.0,-3.2218,-3.2218,-3.2218,-3.2218,-3.2218,-3.2218,-3.2218,-3.2109,-3.189,-3.189,-3.1693,-3.1272,-3.1099,-3.0986,-3.0986,-3.0986,-3.0986,-3.0986,-3.0986,-3.0508,-2.9704,-2.9704,-2.8676,-2.7336,-2.8119,-2.7366,-2.6063,-2.6899,-2.7226,-2.7226,-2.7226,-2.777,-2.8386,-2.8426,-2.8426,-2.8386,-2.8426,-2.8426,-2.8426,-2.8426,-2.7851,-2.7226,-2.7226,-2.6539,-2.5937,-2.5937,-2.5937,-2.5937,-2.5895,-2.5895,-2.5895,-2.5895,-2.5895,-2.5895,-2.5895,-2.5895,-2.5895,-2.5895,-2.5895,-2.5895,-2.5895,-2.5895,-2.5895,-2.5895,-2.5895,-2.5895,-2.5895,-2.5895,-2.5895,-2.5895,-2.5895,-2.5895,-2.5895,-2.5895,-2.5895,-2.5895,-2.5895,-2.5895,-2.5895,-2.5895,-2.577,-1.51,-1.6032,0.0,0.0,0.0,0.0,0.0,-2.4286,0.0,0.0,0.0,0.0,0.0,0.0,0.0,0.0,0.0,0.0,0.0,0.0,0.0,0.0,0.0,0.0,0.0,0.0,0.0,0.0,0.0,0.0,0.0,-3.2218,-3.2218,-3.2218,-3.2218,-3.2218,-3.2218,-3.2073,-3.1963,-3.189,-3.1743,-3.1545,-3.131,-3.1235,-3.1123,-3.0986,-3.0986,-3.0986,-3.0986,-3.0986,-3.0861,-3.0621,-3.0621,-2.9947,-2.8991,-2.9225,-2.8624,-2.7718,-2.7959,-2.8039,-2.8039,-2.8039,-2.8187,-2.8505,-2.9147,-2.8912,-2.8664,-2.9858,-2.9781,-2.9459,-3.0063,-2.9588,-2.8794,-2.8199,-2.7839,-2.7678,-2.7678,-2.7678,-2.7476,-2.694,-2.6828,-2.6622,-2.6021,-2.5895,-2.5895,-2.5895,-2.5895,-2.5895,-2.5895,-2.5895,-2.5895,-2.5895,-2.5895,-2.5895,-2.5895,-2.5895,-2.5895,-2.5895,-2.5895,-2.5895,-2.5895,-2.5895,-2.5895,-2.5895,-2.5895,-2.5895,-2.5895,-2.5895,-2.5895,-2.5895,-2.5895,-2.5853,-1.5602,0.0,0.0,0.0,0.0,0.0,0.0,0.0,0.0,0.0,0.0,0.0,0.0,0.0,0.0,0.0,0.0,0.0,0.0,0.0,0.0,0.0,0.0,0.0,0.0,0.0,0.0,0.0,0.0,0.0,0.0,-3.2218,-3.2218,-3.2218,-3.2218,-3.2218,-3.2218,-3.2073,-3.2036,-3.2036,-3.189,-3.1743,-3.1545,-3.1384,-3.1198,-3.0986,-3.0986,-3.0986,-3.0986,-3.0986,-3.0986,-3.0986,-3.0986,-3.047,-2.9742,-3.0101,-2.9471,-2.8466,-2.8782,-2.89,-2.89,-2.89,-2.9147,-2.9537,-3.0063,-2.9858,-2.9665,-3.0697,-3.0621,-3.0343,-3.0861,-3.0621,-2.9986,-2.9135,-2.8664,-2.8386,-2.8386,-2.8386,-2.8267,-2.7758,-2.7418,-2.7021,-2.6498,-2.6135,-2.5895,-2.5895,-2.5895,-2.5895,-2.5895,-2.5895,-2.5895,-2.5895,-2.5895,-2.5895,-2.5895,-2.5895,-2.5895,-2.5895,-2.5895,-2.5895,-2.5895,-2.5895,-2.5895,-2.5895,-2.5895,-2.5895,-2.5895,-2.5895,-2.5895,-2.5895,-2.5895,-2.5895,0.0,0.0,0.0,0.0,0.0,0.0,0.0,0.0,0.0,0.0,0.0,0.0,0.0,0.0,0.0,0.0,0.0,0.0,0.0,0.0,0.0,0.0,0.0,0.0,0.0,0.0,0.0,0.0,0.0,0.0,-3.2137,-3.2191,-3.2218,-3.2218,-3.2218,-3.2218,-3.2218,-3.2218,-3.2218,-3.2218,-3.2218,-3.2109,-3.189,-3.1508,-3.1235,-3.1061,-3.1024,-3.1024,-3.1024,-3.1024,-3.0986,-3.0986,-3.0986,-3.0508,-2.9909,-3.0697,-2.9986,-2.8743,-2.9537,-2.9819,-2.9819,-2.9819,-3.0343,-3.0986,-3.0986,-3.0986,-3.0986,-3.0986,-3.0986,-3.0986,-3.0986,-3.0986,-3.0785,-3.0024,-2.9213,-2.8624,-2.8624,-2.8624,-2.8624,-2.8545,-2.7919,-2.7418,-2.7336,-2.658,-2.6021,-2.6021,-2.5937,-2.5937,-2.6021,-2.5937,-2.5895,-2.5895,-2.5895,-2.5895,-2.5895,-2.5895,-2.5895,-2.5895,-2.5895,-2.5895,-2.5895,-2.5895,-2.5895,-2.5895,-2.5895,-2.5895,-2.5895,-2.5895,-2.5895,-2.5895,-2.5895,-2.5895,0.0,0.0,0.0,0.0,0.0,0.0,0.0,0.0,0.0,0.0,0.0,0.0,0.0,0.0,0.0,0.0,0.0,0.0,0.0,0.0,0.0,0.0,0.0,0.0,0.0,0.0,0.0,0.0,0.0,0.0,-3.1477,-3.1924,-3.2218,-3.2218,-3.2218,-3.2218,-3.2218,-3.2218,-3.2218,-3.2218,-3.2218,-3.2109,-3.189,-3.1817,-3.1669,-3.1447,-3.1323,-3.1235,-3.1235,-3.1061,-3.0986,-3.0986,-3.0986,-3.0911,-3.0748,-3.0936,-3.0748,-3.047,-3.0672,-3.071,-3.071,-3.071,-3.0861,-3.0986,-3.0986,-3.0986,-3.0986,-3.0986,-3.0986,-3.0986,-3.0986,-3.0986,-3.0949,-3.0748,-3.0583,-3.0419,-3.0419,-3.0419,-3.0228,-2.9537,-2.9264,-2.8951,-2.8267,-2.7447,-2.6899,-2.6899,-2.6343,-2.6146,-2.6816,-2.6343,-2.5895,-2.5895,-2.5895,-2.5895,-2.5895,-2.5895,-2.5895,-2.5895,-2.5895,-2.5895,-2.5895,-2.5895,-2.5895,-2.5895,-2.5895,-2.5895,-2.5895,-2.5895,-2.5895,-2.5895,-2.5895,-2.5895,0.0,0.0,0.0,0.0,0.0,0.0,0.0,0.0,0.0,0.0,0.0,0.0,0.0,0.0,0.0,0.0,0.0,0.0,0.0,0.0,0.0,0.0,0.0,0.0,0.0,0.0,0.0,0.0,0.0,-3.0866,-3.0866,-3.1165,-3.1327,-3.1327,-3.1612,-3.1762,-3.1762,-3.2083,-3.2218,-3.2218,-3.2218,-3.2146,-3.2036,-3.1853,-3.1633,-3.1434,-3.136,-3.1235,-3.1161,-3.1061,-3.0986,-3.0986,-3.0986,-3.0986,-3.0986,-3.0986,-3.0986,-3.0986,-3.0986,-3.0986,-3.0986,-3.0986,-3.0986,-3.0986,-3.0986,-3.0986,-3.0986,-3.0986,-3.0986,-3.0986,-3.0986,-3.0986,-3.0986,-3.0986,-3.0986,-3.0986,-3.0986,-3.0986,-3.0861,-3.0419,-2.9986,-2.9549,-2.9108,-2.8319,-2.7758,-2.7758,-2.7406,-2.7244,-2.773,-2.7366,-2.708,-2.708,-2.708,-2.708,-2.708,-2.708,-2.708,-2.708,-2.708,-2.6928,-2.6539,-2.6498,-2.6343,-2.5895,-2.5895,-2.5895,-2.5895,-2.5895,-2.5895,-2.5895,-2.5895,-2.5895,0.0,0.0,0.0,0.0,0.0,0.0,0.0,0.0,0.0,0.0,0.0,0.0,0.0,0.0,0.0,0.0,0.0,0.0,0.0,0.0,0.0,0.0,0.0,0.0,0.0,0.0,0.0,0.0,0.0,-3.0242,-3.0242,-3.0351,-3.0405,-3.0405,-3.088,-3.1137,-3.1137,-3.1626,-3.187,-3.187,-3.2001,-3.211,-3.2182,-3.1853,-3.1596,-3.1384,-3.1347,-3.1235,-3.1061,-3.1061,-3.1061,-3.1061,-3.1099,-3.1099,-3.1099,-3.1061,-3.1061,-3.1061,-3.1024,-3.0986,-3.0986,-3.0986,-3.0986,-3.0986,-3.0986,-3.0986,-3.1024,-3.1061,-3.1061,-3.1061,-3.1099,-3.1099,-3.1099,-3.1099,-3.1099,-3.1061,-3.1024,-3.0986,-3.0986,-3.0986,-3.0419,-2.9858,-2.9742,-2.9108,-2.8624,-2.8624,-2.8505,-2.8466,-2.8624,-2.8505,-2.8386,-2.8386,-2.8386,-2.8386,-2.8386,-2.8386,-2.8386,-2.8386,-2.8386,-2.8119,-2.7406,-2.7418,-2.7062,-2.6332,-2.6063,-2.5895,-2.5895,-2.5895,-2.5895,-2.5895,-2.5895,-2.5895,0.0,0.0,0.0,0.0,0.0,0.0,0.0,0.0,0.0,0.0,0.0,0.0,0.0,0.0,0.0,0.0,0.0,0.0,0.0,0.0,0.0,0.0,0.0,0.0,0.0,0.0,0.0,0.0,-2.9306,-2.9638,-2.9638,-3.012,-3.0405,-3.0405,-3.0486,-3.0527,-3.0527,-3.0608,-3.0649,-3.0649,-3.1165,-3.168,-3.2218,-3.2146,-3.2,-3.1817,-3.1633,-3.1447,-3.1272,-3.1272,-3.1272,-3.1272,-3.1447,-3.1535,-3.1485,-3.1323,-3.1272,-3.1235,-3.1061,-3.0986,-3.0986,-3.0986,-3.0986,-3.0986,-3.0986,-3.0986,-3.1061,-3.1198,-3.1272,-3.131,-3.1485,-3.1535,-3.1535,-3.1535,-3.1535,-3.141,-3.1061,-3.0986,-3.0986,-3.0986,-3.0911,-3.0583,-2.9819,-2.9614,-2.9537,-2.9537,-2.8861,-2.8664,-2.942,-2.8861,-2.8386,-2.8386,-2.8386,-2.8386,-2.8386,-2.8386,-2.8386,-2.8386,-2.8386,-2.8347,-2.8227,-2.8227,-2.8199,-2.8068,-2.6652,-2.5895,-2.5895,-2.5895,-2.5895,-2.5895,-2.5895,-2.5895,0.0,0.0,0.0,0.0,0.0,0.0,0.0,0.0,0.0,0.0,0.0,0.0,0.0,0.0,0.0,0.0,0.0,0.0,0.0,0.0,0.0,0.0,0.0,0.0,0.0,0.0,0.0,0.0,-2.8831,-2.898,-2.898,-2.9252,-2.9387,-2.9387,-2.9713,-2.9889,-2.9889,-3.0228,-3.0405,-3.0405,-3.0676,-3.0934,-3.1192,-3.1531,-3.1762,-3.189,-3.1817,-3.1633,-3.1485,-3.1485,-3.1485,-3.1485,-3.1572,-3.1522,-3.1434,-3.131,-3.131,-3.1272,-3.1198,-3.1248,-3.1336,-3.1336,-3.1336,-3.1336,-3.1336,-3.1336,-3.1373,-3.1434,-3.1485,-3.1485,-3.1572,-3.1609,-3.1609,-3.1609,-3.1609,-3.1572,-3.1373,-3.1248,-3.1123,-3.1024,-3.0986,-3.0861,-3.0508,-3.0419,-3.0419,-3.0419,-3.0101,-2.9986,-3.0381,-3.0101,-2.9858,-2.9858,-2.9858,-2.9858,-2.9858,-2.9858,-2.9858,-2.9858,-2.9858,-2.9626,-2.9147,-2.9147,-2.8676,-2.777,-2.7021,-2.6622,-2.6622,-2.6146,-2.5895,-2.5895,-2.5895,-2.5895,0.0,0.0,0.0,0.0,0.0,0.0,0.0,0.0,0.0,0.0,0.0,0.0,0.0,0.0,0.0,0.0,0.0,0.0,0.0,0.0,0.0,0.0,0.0,0.0,0.0,0.0,0.0,0.0,-2.8587,-2.8587,-2.8587,-2.8587,-2.8587,-2.8587,-2.9021,-2.9285,-2.9285,-2.9713,-3.0025,-3.0174,-3.0174,-3.0256,-3.0432,-3.0866,-3.1243,-3.1532,-3.1792,-3.178,-3.1609,-3.1646,-3.1683,-3.1683,-3.172,-3.1669,-3.1532,-3.1458,-3.1458,-3.1471,-3.1384,-3.1471,-3.1609,-3.1609,-3.1609,-3.1609,-3.1609,-3.1609,-3.1609,-3.1646,-3.1683,-3.1683,-3.1743,-3.1743,-3.1743,-3.1743,-3.1743,-3.1706,-3.1559,-3.1397,-3.1235,-3.1061,-3.0986,-3.1024,-3.1061,-3.1024,-3.1024,-3.1061,-3.1024,-3.0986,-3.0986,-3.0986,-3.0986,-3.0986,-3.0986,-3.0986,-3.0986,-3.0986,-3.0986,-3.0986,-3.0986,-3.0697,-3.0063,-3.0024,-2.9433,-2.8171,-2.773,-2.7296,-2.6869,-2.6229,-2.5895,-2.5895,-2.5895,-2.5895,0.0,0.0,0.0,0.0,0.0,0.0,0.0,0.0,0.0,0.0,0.0,0.0,0.0,0.0,0.0,0.0,0.0,0.0,0.0,0.0,0.0,0.0,0.0,0.0,0.0,0.0,0.0,0.0,-2.8587,-2.8587,-2.8587,-2.8587,-2.8587,-2.8587,-2.8627,-2.8641,-2.8641,-2.8668,-2.8967,-2.9556,-2.9556,-2.9835,-3.0405,-3.0446,-3.0473,-3.0533,-3.1478,-3.178,-3.1609,-3.1817,-3.189,-3.189,-3.2109,-3.2146,-3.2132,-3.1927,-3.1853,-3.1853,-3.1633,-3.1609,-3.1609,-3.1609,-3.1609,-3.1609,-3.1609,-3.1609,-3.1646,-3.1817,-3.189,-3.1927,-3.2109,-3.2182,-3.2182,-3.2182,-3.2182,-3.2023,-3.1421,-3.131,-3.1235,-3.1061,-3.0986,-3.1061,-3.1235,-3.1123,-3.1061,-3.1272,-3.1123,-3.0986,-3.0986,-3.0986,-3.0986,-3.0986,-3.0986,-3.0986,-3.0986,-3.0986,-3.0986,-3.0986,-3.0986,-3.0986,-3.0936,-3.0936,-3.0898,-3.0785,-2.9186,-2.7557,-2.5979,-2.5937,-2.5895,-2.5895,-2.5895,-2.5895,0.0,0.0,0.0,0.0,0.0,0.0,0.0,0.0,0.0,0.0,0.0,0.0,0.0,0.0,0.0,0.0,0.0,0.0,0.0,0.0,0.0,0.0,0.0,0.0,0.0,0.0,0.0,0.0,0.0,-2.8587,-2.8587,-2.8587,-2.8587,-2.8587,-2.8587,-2.8587,-2.8587,-2.8587,-2.8695,-2.8912,-2.8912,-2.9034,-2.9252,-2.9631,-2.9808,-2.9849,-3.062,-3.1118,-3.1424,-3.1911,-3.2109,-3.2109,-3.2182,-3.2109,-3.2,-3.1927,-3.189,-3.189,-3.1817,-3.189,-3.2,-3.2,-3.2,-3.2,-3.2,-3.2,-3.2,-3.2073,-3.2109,-3.2109,-3.2182,-3.2218,-3.2218,-3.2218,-3.2218,-3.2109,-3.1767,-3.1693,-3.1633,-3.141,-3.1373,-3.141,-3.1485,-3.1447,-3.141,-3.1485,-3.1447,-3.1336,-3.1211,-3.1198,-3.1123,-3.1024,-3.0986,-3.0986,-3.0986,-3.0986,-3.0986,-3.0986,-3.0986,-3.0986,-3.0986,-3.0986,-3.0748,-3.0177,-2.9537,-2.8664,-2.7516,-2.6415,-2.5895,-2.5895,-2.5895,-2.5895,-1.4115,0.0,0.0,0.0,0.0,0.0,0.0,0.0,0.0,0.0,0.0,0.0,0.0,0.0,0.0,0.0,0.0,0.0,0.0,0.0,0.0,0.0,0.0,0.0,0.0,0.0,0.0,0.0,0.0,0.0,-2.8003,-2.8003,-2.8085,-2.8288,-2.8478,-2.8587,-2.8587,-2.8587,-2.8587,-2.8587,-2.8587,-2.8587,-2.86,-2.9007,-2.9217,-2.9244,-2.9835,-3.0446,-3.1042,-3.1639,-3.1884,-3.1897,-3.2137,-3.2109,-3.2,-3.2,-3.2,-3.2,-3.2,-3.2109,-3.2218,-3.2218,-3.2218,-3.2218,-3.2218,-3.2218,-3.2218,-3.2218,-3.2218,-3.2218,-3.2218,-3.2218,-3.2218,-3.2218,-3.2218,-3.2146,-3.2036,-3.1963,-3.1853,-3.1646,-3.1609,-3.1609,-3.1683,-3.1646,-3.1609,-3.1683,-3.1596,-3.1434,-3.131,-3.1235,-3.1161,-3.1099,-3.1099,-3.1099,-3.1099,-3.1174,-3.1136,-3.1024,-3.1061,-3.1061,-3.0986,-3.0986,-3.0748,-3.0152,-2.9871,-2.9264,-2.8386,-2.701,-2.6343,-2.6343,-2.6021,-2.5895,0.0,0.0,0.0,0.0,0.0,0.0,0.0,0.0,0.0,0.0,0.0,0.0,0.0,0.0,0.0,0.0,0.0,0.0,0.0,0.0,0.0,0.0,0.0,0.0,0.0,0.0,0.0,0.0,-2.6823,-2.6823,-2.6823,-2.6823,-2.7064,-2.7664,-2.8234,-2.8546,-2.856,-2.856,-2.8573,-2.8587,-2.8587,-2.8587,-2.8587,-2.8587,-2.8587,-2.8627,-2.923,-2.9794,-3.0405,-3.1015,-3.126,-3.1327,-3.1924,-3.2191,-3.2191,-3.2205,-3.2218,-3.2218,-3.2218,-3.2218,-3.2218,-3.2218,-3.2218,-3.2218,-3.2218,-3.2218,-3.2218,-3.2218,-3.2218,-3.2218,-3.2218,-3.2218,-3.2218,-3.2218,-3.2218,-3.2218,-3.2218,-3.2036,-3.1853,-3.1646,-3.1609,-3.1683,-3.189,-3.1743,-3.1683,-3.189,-3.1582,-3.131,-3.131,-3.1136,-3.1099,-3.1272,-3.131,-3.131,-3.131,-3.1485,-3.141,-3.1061,-3.1198,-3.1235,-3.1024,-3.1024,-3.1024,-3.1024,-3.0165,-2.9279,-2.8466,-2.7609,-2.7185,-2.7144,-2.6302,-2.5895,-1.4569,0.0,0.0,0.0,0.0,0.0,0.0,0.0,0.0,0.0,0.0,0.0,0.0,0.0,0.0,0.0,0.0,0.0,0.0,0.0,0.0,0.0,0.0,0.0,0.0,0.0,0.0,0.0,-2.7618,-2.7383,-2.7383,-2.7007,-2.6874,-2.7023,-2.7199,-2.7515,-2.7949,-2.7949,-2.8166,-2.8587,-2.8587,-2.8587,-2.8587,-2.8587,-2.8587,-2.86,-2.8763,-2.8926,-2.917,-3.0228,-3.0649,-3.0717,-3.13,-3.1544,-3.1585,-3.2055,-3.2218,-3.2218,-3.2218,-3.2218,-3.2218,-3.2218,-3.2218,-3.2218,-3.2218,-3.2218,-3.2218,-3.2218,-3.2218,-3.2218,-3.2218,-3.2218,-3.2218,-3.2218,-3.2218,-3.2218,-3.2218,-3.2146,-3.2109,-3.2036,-3.2036,-3.2036,-3.2109,-3.2073,-3.2036,-3.2109,-3.2023,-3.1913,-3.173,-3.1706,-3.1633,-3.1522,-3.1522,-3.1522,-3.1522,-3.1572,-3.1572,-3.1447,-3.1485,-3.1485,-3.1447,-3.1286,-3.1235,-3.1235,-3.042,-3.0095,-3.0266,-2.8211,-2.6869,-2.626,-2.6021,-2.5895,-1.539,-1.6338,0.0,0.0,0.0,0.0,0.0,-1.8701,0.0,0.0,0.0,0.0,0.0,0.0,0.0,0.0,0.0,0.0,0.0,0.0,0.0,0.0,0.0,0.0,0.0,-2.7888,-2.8,-2.7755,-2.7438,-2.7131,-2.6905,-2.6605,-2.643,-2.643,-2.6657,-2.6955,-2.7339,-2.7339,-2.7637,-2.822,-2.822,-2.8356,-2.8587,-2.8587,-2.8587,-2.8587,-2.8587,-2.8587,-2.8641,-2.936,-2.9794,-3.0079,-3.069,-3.092,-3.0975,-3.1314,-3.1436,-3.1436,-3.1436,-3.1436,-3.1436,-3.1436,-3.1612,-3.1802,-3.1802,-3.2015,-3.2218,-3.2218,-3.2218,-3.2218,-3.2218,-3.2218,-3.2218,-3.2218,-3.2218,-3.2218,-3.2218,-3.2218,-3.2218,-3.2218,-3.2218,-3.2218,-3.2218,-3.2218,-3.2218,-3.2218,-3.2146,-3.2036,-3.1927,-3.1817,-3.1743,-3.172,-3.172,-3.172,-3.172,-3.178,-3.178,-3.1609,-3.1683,-3.1563,-3.1236,-3.11,-3.0944,-3.0669,-3.0217,-3.0069,-3.0321,-2.8686,-2.7575,-2.708,-2.6652,-2.6498,-1.632,-1.6923,-1.792,-1.7825,0.0,0.0,-1.8982,-1.9358,0.0,0.0,0.0,0.0,0.0,0.0,0.0,0.0,0.0,0.0,0.0,0.0,0.0,0.0,0.0,0.0,-2.7535,-2.7485,-2.7314,-2.6912,-2.6834,-2.6561,-2.6015,-2.5922,-2.5908,-2.5908,-2.6364,-2.6616,-2.6684,-2.6684,-2.6996,-2.761,-2.761,-2.7922,-2.8492,-2.8492,-2.8532,-2.8587,-2.8587,-2.8587,-2.8587,-2.8587,-2.8912,-2.9475,-3.0066,-3.031,-3.031,-3.0391,-3.0405,-3.0405,-3.0405,-3.0405,-3.0405,-3.0405,-3.0758,-3.1192,-3.1192,-3.1558,-3.2015,-3.2015,-3.211,-3.2191,-3.2042,-3.2069,-3.2096,-3.2042,-3.2069,-3.211,-3.211,-3.2164,-3.2218,-3.2218,-3.2218,-3.2218,-3.2218,-3.2218,-3.2218,-3.2218,-3.2036,-3.1927,-3.1927,-3.178,-3.1743,-3.189,-3.1927,-3.19,-3.1833,-3.2015,-3.1942,-3.1576,-3.1656,-3.1437,-3.0788,-3.0695,-3.0379,-2.9824,-2.9824,-2.9658,-2.9327,-2.8924,-2.8733,-2.8706,-2.7827,-2.7447,-1.8329,-1.874,-1.9262,-1.8646,0.0,0.0,-1.8164,-1.843,0.0,0.0,0.0,0.0,0.0,0.0,0.0,0.0,0.0,0.0,0.0,0.0,0.0,0.0,0.0,0.0,-2.733,-2.7423,-2.7605,-2.8042,-2.7605,-2.7119,-2.6587,-2.6141,-2.5911,-2.5911,-2.5546,-2.5588,-2.6063,-2.6077,-2.6389,-2.6969,-2.6969,-2.7311,-2.7881,-2.7881,-2.8139,-2.8587,-2.8587,-2.8587,-2.8587,-2.8587,-2.8655,-2.8831,-2.9461,-2.9692,-2.9713,-3.0228,-3.0405,-3.0405,-3.0405,-3.0405,-3.0405,-3.0405,-3.0486,-3.0581,-3.0581,-3.0663,-3.0758,-3.0758,-3.1436,-3.2001,-3.1002,-3.111,-3.1341,-3.0866,-3.111,-3.1477,-3.1477,-3.1843,-3.2218,-3.2218,-3.2218,-3.2218,-3.2218,-3.2218,-3.2218,-3.2218,-3.2182,-3.2146,-3.2146,-3.2109,-3.2109,-3.2146,-3.2146,-3.1942,-3.1482,-3.1463,-3.1428,-3.1356,-3.0945,-3.085,-3.1167,-3.0554,-3.0175,-3.0019,-2.9894,-2.9533,-2.9003,-2.8472,-2.8479,-2.8917,-2.8733,-2.843,-1.9546,-1.9767,-2.021,-1.9846,0.0,0.0,0.0,0.0,-1.9092,0.0,0.0,0.0,0.0,0.0,0.0,0.0,0.0,0.0,0.0,0.0,0.0,0.0,0.0,0.0,-2.6834,-2.6888,-2.7026,-2.7326,-2.7125,-2.6897,-2.6621,-2.6414,-2.619,-2.5921,-2.5619,-2.5451,-2.5453,-2.5453,-2.5751,-2.6362,-2.6362,-2.6674,-2.724,-2.7569,-2.7881,-2.8166,-2.8465,-2.8587,-2.8587,-2.8587,-2.8587,-2.8627,-2.8912,-2.9034,-2.9108,-2.9387,-2.9496,-2.9496,-2.9496,-2.9496,-2.9496,-2.9496,-2.9713,-2.9944,-2.9944,-3.0161,-3.0405,-3.0405,-3.0839,-3.1151,-3.0568,-3.0622,-3.0771,-3.0473,-3.0635,-3.0853,-3.0853,-3.1083,-3.13,-3.13,-3.13,-3.1477,-3.211,-3.2218,-3.2218,-3.2218,-3.1924,-3.1843,-3.2178,-3.1653,-3.1409,-3.1707,-3.1477,-3.1178,-3.088,-3.0853,-3.0853,-3.0853,-3.0581,-3.0405,-3.0391,-3.0025,-2.9646,-2.9349,-2.9248,-2.9215,-2.9215,-2.9244,-2.9501,-2.9994,-2.977,-2.9383,0.0,0.0,0.0,0.0,0.0,-2.0431,0.0,0.0,0.0,-2.0092,0.0,0.0,0.0,0.0,0.0,0.0,0.0,0.0,0.0,0.0,0.0,0.0,0.0,0.0,-2.5964,-2.6017,-2.6087,-2.6296,-2.6175,-2.6257,-2.6648,-2.6661,-2.6509,-2.6217,-2.6029,-2.5729,-2.5314,-2.5118,-2.5306,-2.5884,-2.5884,-2.6212,-2.6797,-2.741,-2.7745,-2.7882,-2.8532,-2.8684,-2.8602,-2.8839,-2.8894,-2.8766,-2.8651,-2.8587,-2.8587,-2.8587,-2.8587,-2.8587,-2.8587,-2.8587,-2.8587,-2.8587,-2.8912,-2.9339,-2.9339,-2.974,-3.0201,-3.0093,-3.0228,-3.0351,-3.012,-3.0147,-3.0201,-3.0079,-3.0147,-3.0228,-3.0228,-3.0323,-3.0405,-3.0405,-3.0405,-3.0717,-3.168,-3.1829,-3.1829,-3.1829,-3.1436,-3.13,-3.1775,-3.1002,-3.0595,-3.107,-3.069,-3.0364,-3.0242,-3.0228,-3.0228,-3.0228,-3.012,-2.9889,-2.9529,-2.9407,-2.9122,-2.86,-2.8587,-2.8831,-2.9339,-3.0052,-3.0647,-3.1065,-3.0797,-3.0355,0.0,0.0,0.0,0.0,-2.2171,0.0,0.0,0.0,-2.0303,-1.8983,0.0,0.0,0.0,0.0,0.0,0.0,0.0,0.0,0.0,0.0,0.0,0.0,0.0,0.0,0.0,-2.4548,-2.5056,-2.6287,-2.5238,-2.5354,-2.7195,-2.6802,-2.6768,-2.7297,-2.6404,-2.6096,-2.6493,-2.5508,-2.5285,-2.5909,-2.5909,-2.619,-2.6735,-2.7356,-2.7895,-2.8455,-2.9116,-2.9048,-2.8594,-2.9797,-2.9934,-2.9331,-2.8817,-2.8587,-2.8587,-2.8587,-2.8587,-2.8587,-2.8587,-2.8587,-2.8587,-2.8587,-2.8641,-2.8695,-2.8695,-2.9102,-2.9502,-2.894,-2.9577,-3.0161,-2.9075,-2.9184,-2.9488,-2.8926,-2.9197,-2.9611,-2.9611,-3.0011,-3.0405,-3.0405,-3.0405,-3.0446,-3.0581,-3.0608,-3.0608,-3.0608,-3.0554,-3.054,-3.0608,-3.0486,-3.0446,-3.05,-3.0446,-3.0188,-2.9665,-2.9611,-2.9611,-2.9611,-2.9089,-2.8994,-2.9488,-2.898,-2.8655,-2.8587,-2.8587,-2.8627,-2.8695,-2.9849,-3.0717,-3.1278,-3.1753,-3.1357,0.0,0.0,0.0,0.0,0.0,0.0,-2.13,0.0,-2.0603,0.0,0.0,0.0,0.0,0.0,0.0,0.0,0.0,0.0,0.0,0.0,0.0,0.0,0.0,0.0,0.0,0.0,-2.2983,-2.3953,-2.3825,-2.4271,-2.5533,-2.6497,-2.6983,-2.6907,-2.6865,-2.6797,-2.6704,-2.6242,-2.6108,-2.6363,-2.6363,-2.6492,-2.6723,-2.7328,-2.7742,-2.8017,-2.8668,-2.8757,-2.8554,-2.9521,-2.9751,-2.9511,-2.9652,-2.9453,-2.9139,-2.9139,-2.8912,-2.8587,-2.8587,-2.8587,-2.8587,-2.8587,-2.8587,-2.8587,-2.8587,-2.8763,-2.8912,-2.8655,-2.8967,-2.9238,-2.8722,-2.8777,-2.8899,-2.8655,-2.8777,-2.8967,-2.8967,-2.917,-2.936,-2.936,-2.936,-2.936,-2.936,-2.9944,-3.0405,-3.0405,-3.0106,-2.9998,-3.0364,-2.9794,-2.9482,-2.9835,-2.9564,-2.9252,-2.898,-2.8967,-2.8967,-2.8967,-2.8736,-2.8695,-2.8953,-2.8722,-2.8587,-2.8587,-2.8587,-2.8587,-2.8587,-2.9821,-3.054,-3.0798,-3.1748,-3.1519,-2.3845,0.0,0.0,0.0,0.0,0.0,0.0,0.0,0.0,0.0,0.0,0.0,0.0,0.0,0.0,-1.8315,0.0,0.0,0.0,0.0,0.0,0.0,0.0,0.0,0.0,0.0,0.0,-2.2228,0.0,-2.2809,-2.4225,-2.5733,-2.6596,-2.6736,-2.7055,-2.721,-2.7159,-2.686,-2.6756,-2.6912,-2.6912,-2.6912,-2.6927,-2.753,-2.7818,-2.7848,-2.8468,-2.8638,-2.8529,-2.9383,-2.9765,-2.9856,-3.0484,-3.0469,-3.0027,-2.9844,-2.9376,-2.8881,-2.9071,-2.9008,-2.8817,-2.8651,-2.8587,-2.8587,-2.8587,-2.8587,-2.8587,-2.8587,-2.8587,-2.8587,-2.8587,-2.8587,-2.8587,-2.8587,-2.8587,-2.8587,-2.8587,-2.8587,-2.8587,-2.8587,-2.8587,-2.8587,-2.8587,-2.9333,-2.9916,-2.9916,-2.9523,-2.9401,-2.9849,-2.9143,-2.8763,-2.923,-2.8845,-2.8587,-2.8587,-2.8587,-2.8587,-2.8587,-2.8587,-2.8587,-2.8587,-2.8587,-2.8587,-2.8587,-2.8587,-2.8668,-2.8831,-2.9889,-3.05,-3.0676,-3.1694,-3.1519,0.0,0.0,0.0,-2.3515,0.0,0.0,0.0,0.0,-2.1646,0.0,0.0,0.0,0.0,-1.9918,-1.9264,-1.8608,-1.8499,0.0,0.0,0.0,0.0,0.0,0.0,0.0,0.0,0.0,-2.0181,0.0,-2.052,-2.0841,-2.4133,-2.4364,-2.5296,-2.7311,-2.6829,-2.7122,-2.8323,-2.7251,-2.6964,-2.7464,-2.7464,-2.7464,-2.7489,-2.8103,-2.8354,-2.8424,-2.9075,-2.8991,-2.8525,-2.9824,-3.0414,-3.0535,-3.1128,-3.1402,-3.1364,-3.0703,-3.0042,-2.9566,-3.0208,-3.0011,-2.9362,-2.8798,-2.8587,-2.8587,-2.8587,-2.8587,-2.8587,-2.8587,-2.8587,-2.8587,-2.8587,-2.8587,-2.8587,-2.8587,-2.8587,-2.8587,-2.8587,-2.8587,-2.8587,-2.8587,-2.8587,-2.8587,-2.8587,-2.8627,-2.8655,-2.8655,-2.8627,-2.8627,-2.8655,-2.8614,-2.86,-2.8627,-2.86,-2.8587,-2.8587,-2.8587,-2.8587,-2.8587,-2.8587,-2.8587,-2.8587,-2.8587,-2.8587,-2.8587,-2.8587,-2.8872,-2.9475,-3.0093,-3.0703,-3.1287,-3.1897,-3.1519,-2.7519,-2.794,-2.7876,-2.5322,0.0,0.0,0.0,0.0,0.0,0.0,0.0,0.0,0.0,-1.9999,-1.9435,-1.9202,-1.8796,-1.8328,0.0,0.0,0.0,0.0,0.0,0.0,0.0,0.0,0.0,0.0,-2.0104,0.0,-2.2228,-2.3579,-2.4625,-2.5333,-2.6474,-2.7308,-2.7734,-2.7811,-2.7925,-2.8097,-2.8097,-2.8097,-2.8097,-2.8323,-2.8411,-2.8411,-2.8642,-2.8612,-2.8454,-2.9357,-2.9746,-2.9881,-3.0964,-3.1168,-3.0853,-3.1084,-3.0748,-3.0208,-3.0419,-3.0359,-3.0147,-2.9917,-2.9856,-2.9763,-2.9314,-2.9188,-2.9107,-2.8702,-2.8587,-2.8587,-2.8587,-2.8587,-2.8587,-2.8587,-2.8587,-2.8587,-2.8587,-2.8587,-2.8587,-2.8587,-2.8587,-2.8587,-2.8587,-2.8587,-2.8587,-2.8587,-2.8587,-2.8587,-2.8587,-2.8587,-2.8587,-2.8587,-2.8587,-2.8587,-2.8587,-2.8587,-2.8587,-2.8587,-2.8587,-2.8587,-2.8587,-2.8587,-2.8587,-2.8587,-2.898,-2.9312,-2.9515,-3.05,-3.1097,-3.13,-3.1504,-3.1146,-2.8716,-2.9128,-2.9098,-2.678,-2.6211,0.0,-2.3029,0.0,-2.3181,0.0,0.0,0.0,0.0,-2.102,-2.0003,-2.0147,-1.9279,-1.8231,0.0,-1.7228,0.0,0.0,0.0,0.0,0.0,0.0,-1.8593,-1.958,-1.9363,0.0,0.0,-2.2767,-2.381,-2.4287,-2.5841,-2.6888,-2.7396,-2.7827,-2.8165,-2.8411,-2.8411,-2.8411,-2.8411,-2.8411,-2.8411,-2.8411,-2.8411,-2.8411,-2.8442,-2.8873,-2.9171,-2.9504,-3.0351,-3.0727,-3.0915,-3.1581,-3.1551,-3.1131,-3.094,-3.0852,-3.0822,-3.0584,-3.0494,-3.0419,-2.9981,-2.9858,-2.9766,-2.9404,-2.9293,-2.923,-2.8976,-2.8912,-2.8881,-2.8651,-2.8587,-2.8587,-2.8587,-2.8587,-2.8587,-2.8587,-2.8587,-2.8587,-2.8587,-2.8587,-2.8587,-2.8587,-2.8587,-2.8587,-2.8587,-2.8587,-2.8587,-2.8587,-2.8587,-2.8587,-2.8587,-2.8587,-2.8587,-2.8587,-2.8587,-2.8587,-2.8587,-2.8587,-2.8587,-2.8587,-2.8967,-2.9407,-2.9808,-3.0378,-3.0866,-3.1287,-3.1083,-3.0619]},{"header":{"parameterUnit":"m.s-1","parameterCategory":1,"la1":30.6,"la2":29.2853,"lo1":-89.7004,"lo2":-87.6739,"dy":0.0162,"dx":0.0183,"nx":112,"ny":82,"refTime":"2024-06-01T12:00:00:Z","depth":0,"parameterNumber":3,"parameterNumberName":"V-component_of_WINDS"},"data":[0.0,0.0,0.0,0.0,0.0,0.0,0.0,0.0,0.0,0.0,0.0,0.0,0.0,0.0,0.0,0.0,0.0,0.0,0.0,0.0,0.0,0.0,0.0,0.0,0.0,0.0,0.0,0.0,0.0,0.0,0.0,0.0,0.0,0.0,0.0,0.0,0.0,0.0,0.0,0.0,0.0,0.0,0.0,0.0,0.0,0.0,0.0,0.0,0.0,0.0,0.0,0.0,0.0,0.0,0.0,0.0,0.0,0.0,0.0,0.0,0.0,0.0,0.0,0.0,0.0,0.0,0.0,0.0,0.0,0.0,0.0,0.0,0.0,0.0,0.0,0.0,0.0,0.0,0.0,0.0,0.0,0.0,0.0,0.0,0.0,0.0,0.0,0.0,0.0,0.0,0.0,-2.653,-3.0054,-3.19,-3.1219,-3.0939,-2.9429,-2.6158,0.0,0.0,0.0,0.0,0.0,0.0,0.0,0.0,0.0,0.0,0.0,0.0,0.0,0.0,0.0,0.0,0.0,0.0,0.0,0.0,0.0,0.0,0.0,0.0,0.0,0.0,0.0,0.0,0.0,0.0,0.0,0.0,0.0,0.0,0.0,0.0,0.0,0.0,0.0,0.0,0.0,0.0,0.0,0.0,0.0,0.0,0.0,0.0,0.0,0.0,0.0,0.0,0.0,0.0,0.0,0.0,0.0,0.0,0.0,0.0,0.0,0.0,0.0,0.0,0.0,0.0,0.0,0.0,0.0,0.0,0.0,0.0,0.0,0.0,0.0,0.0,0.0,0.0,0.0,0.0,0.0,0.0,0.0,0.0,0.0,0.0,0.0,0.0,0.0,0.0,0.0,0.0,0.0,0.0,0.0,0.0,0.0,0.0,0.0,0.0,0.0,0.0,0.0,0.0,-2.4694,-2.9868,-3.1664,-3.2469,-3.2346,-3.1144,-2.9571,-2.7674,0.0,0.0,0.0,0.0,0.0,0.0,0.0,0.0,0.0,0.0,0.0,0.0,0.0,0.0,0.0,0.0,0.0,0.0,0.0,0.0,0.0,0.0,0.0,0.0,0.0,0.0,0.0,0.0,0.0,0.0,0.0,0.0,0.0,0.0,0.0,0.0,0.0,0.0,0.0,0.0,0.0,0.0,0.0,0.0,0.0,0.0,0.0,0.0,0.0,0.0,0.0,0.0,0.0,0.0,0.0,0.0,0.0,0.0,0.0,0.0,0.0,0.0,0.0,0.0,0.0,0.0,0.0,0.0,0.0,0.0,0.0,0.0,0.0,0.0,0.0,0.0,0.0,0.0,0.0,0.0,0.0,0.0,0.0,0.0,0.0,0.0,0.0,0.0,0.0,0.0,0.0,0.0,0.0,0.0,0.0,0.0,0.0,0.0,0.0,0.0,0.0,0.0,0.0,-2.3724,-2.6478,-3.0756,-3.2047,-3.2606,-3.2606,-3.1188,-2.9662,-2.8156,-2.4159,0.0,0.0,0.0,0.0,0.0,0.0,0.0,0.0,0.0,0.0,0.0,0.0,0.0,0.0,0.0,0.0,0.0,0.0,0.0,0.0,0.0,0.0,0.0,0.0,0.0,0.0,0.0,0.0,0.0,0.0,0.0,0.0,0.0,0.0,0.0,0.0,0.0,0.0,0.0,0.0,0.0,0.0,0.0,0.0,0.0,0.0,0.0,0.0,0.0,0.0,0.0,0.0,0.0,0.0,0.0,0.0,0.0,0.0,0.0,0.0,0.0,0.0,0.0,0.0,0.0,0.0,0.0,0.0,0.0,0.0,0.0,0.0,0.0,0.0,0.0,0.0,0.0,0.0,0.0,0.0,0.0,0.0,0.0,0.0,0.0,0.0,0.0,0.0,0.0,0.0,0.0,0.0,0.0,0.0,0.0,0.0,0.0,0.0,0.0,0.0,0.0,0.0,-2.6444,-2.827,-3.1208,-3.2219,-3.2672,-3.2672,-3.0916,-2.9346,-2.8271,-2.3294,0.0,0.0,0.0,0.0,0.0,0.0,0.0,0.0,0.0,0.0,0.0,0.0,0.0,0.0,0.0,0.0,0.0,0.0,0.0,0.0,0.0,0.0,0.0,0.0,0.0,0.0,0.0,0.0,0.0,0.0,0.0,0.0,0.0,0.0,0.0,0.0,0.0,0.0,0.0,0.0,0.0,0.0,0.0,0.0,0.0,0.0,0.0,0.0,0.0,0.0,0.0,0.0,0.0,0.0,0.0,0.0,0.0,0.0,0.0,0.0,0.0,0.0,0.0,0.0,0.0,0.0,0.0,0.0,0.0,0.0,0.0,0.0,0.0,0.0,0.0,0.0,0.0,0.0,0.0,0.0,0.0,0.0,0.0,0.0,0.0,0.0,0.0,0.0,0.0,0.0,0.0,0.0,0.0,0.0,0.0,0.0,0.0,0.0,0.0,0.0,0.0,0.0,-2.76,-2.9913,-3.2253,-3.2736,-3.2884,-3.2884,-3.0104,-2.8307,-2.8213,-2.2371,0.0,0.0,0.0,0.0,0.0,0.0,0.0,0.0,0.0,0.0,0.0,0.0,0.0,0.0,0.0,0.0,0.0,0.0,0.0,0.0,0.0,0.0,0.0,0.0,0.0,0.0,0.0,0.0,0.0,0.0,0.0,0.0,0.0,0.0,0.0,0.0,0.0,0.0,0.0,0.0,0.0,0.0,0.0,0.0,0.0,0.0,0.0,0.0,0.0,0.0,0.0,0.0,0.0,0.0,0.0,0.0,0.0,0.0,0.0,0.0,0.0,0.0,0.0,0.0,0.0,0.0,0.0,0.0,0.0,0.0,0.0,0.0,0.0,0.0,0.0,0.0,0.0,0.0,0.0,0.0,0.0,0.0,0.0,0.0,0.0,0.0,0.0,0.0,0.0,0.0,0.0,0.0,0.0,0.0,0.0,0.0,0.0,0.0,0.0,0.0,0.0,0.0,-2.7383,-2.9656,0.0,-3.285,-3.29,-3.29,-3.0886,-2.8998,-2.7549,0.0,0.0,0.0,0.0,0.0,0.0,0.0,0.0,0.0,0.0,0.0,0.0,0.0,0.0,0.0,0.0,0.0,0.0,0.0,0.0,0.0,0.0,0.0,0.0,0.0,0.0,0.0,0.0,0.0,0.0,0.0,0.0,0.0,0.0,0.0,0.0,0.0,0.0,0.0,0.0,0.0,0.0,0.0,0.0,0.0,0.0,0.0,0.0,0.0,0.0,0.0,0.0,0.0,0.0,0.0,0.0,0.0,0.0,0.0,0.0,0.0,0.0,0.0,0.0,0.0,0.0,0.0,0.0,0.0,0.0,0.0,0.0,0.0,0.0,0.0,0.0,0.0,0.0,0.0,0.0,0.0,0.0,0.0,0.0,0.0,0.0,0.0,0.0,0.0,0.0,0.0,0.0,0.0,0.0,0.0,0.0,0.0,0.0,0.0,0.0,0.0,0.0,-2.5604,-2.7785,-2.9958,0.0,-3.29,-3.2793,-3.2543,-3.06,-2.8602,-2.6728,0.0,0.0,0.0,0.0,0.0,0.0,0.0,0.0,0.0,0.0,0.0,0.0,0.0,0.0,0.0,0.0,0.0,0.0,0.0,0.0,0.0,0.0,0.0,0.0,0.0,0.0,0.0,0.0,0.0,0.0,0.0,0.0,0.0,0.0,0.0,0.0,0.0,0.0,0.0,0.0,0.0,0.0,0.0,0.0,0.0,0.0,0.0,0.0,0.0,0.0,0.0,0.0,0.0,0.0,0.0,0.0,0.0,0.0,0.0,0.0,0.0,0.0,0.0,0.0,0.0,0.0,0.0,0.0,0.0,0.0,0.0,0.0,0.0,0.0,0.0,0.0,0.0,0.0,0.0,0.0,0.0,0.0,0.0,0.0,0.0,0.0,0.0,0.0,0.0,0.0,0.0,0.0,0.0,0.0,0.0,0.0,0.0,0.0,0.0,0.0,0.0,0.0,-2.6478,-2.9048,-3.1118,-3.2721,-3.29,-3.2579,-3.1778,-2.8816,-2.6675,0.0,0.0,0.0,0.0,0.0,0.0,0.0,0.0,0.0,0.0,0.0,0.0,0.0,0.0,0.0,0.0,0.0,0.0,0.0,0.0,0.0,0.0,0.0,0.0,0.0,0.0,0.0,0.0,0.0,0.0,0.0,0.0,0.0,0.0,0.0,0.0,0.0,0.0,0.0,0.0,0.0,0.0,0.0,0.0,0.0,0.0,0.0,0.0,0.0,0.0,0.0,0.0,0.0,0.0,0.0,0.0,0.0,0.0,0.0,0.0,0.0,0.0,0.0,0.0,0.0,0.0,0.0,0.0,0.0,0.0,0.0,0.0,0.0,0.0,0.0,0.0,0.0,0.0,0.0,0.0,0.0,0.0,0.0,0.0,0.0,0.0,0.0,0.0,0.0,0.0,0.0,0.0,0.0,0.0,0.0,0.0,0.0,0.0,0.0,0.0,0.0,0.0,0.0,-2.6509,-2.9048,-3.1118,-3.2721,-3.29,-3.2793,-3.2579,-3.0172,-2.787,-2.5925,0.0,0.0,0.0,0.0,0.0,0.0,0.0,0.0,0.0,0.0,0.0,0.0,0.0,0.0,0.0,0.0,0.0,0.0,0.0,0.0,0.0,0.0,0.0,0.0,0.0,0.0,0.0,0.0,0.0,0.0,0.0,0.0,0.0,0.0,0.0,0.0,0.0,0.0,0.0,0.0,0.0,0.0,0.0,0.0,0.0,0.0,0.0,0.0,0.0,0.0,0.0,0.0,0.0,0.0,0.0,0.0,0.0,0.0,0.0,0.0,0.0,0.0,0.0,0.0,0.0,0.0,0.0,0.0,0.0,0.0,0.0,0.0,0.0,0.0,0.0,0.0,0.0,0.0,0.0,0.0,0.0,0.0,0.0,0.0,0.0,0.0,0.0,0.0,0.0,0.0,0.0,0.0,0.0,0.0,0.0,0.0,0.0,0.0,0.0,0.0,0.0,0.0,-2.6925,-2.9262,-3.1118,-3.2721,-3.29,-3.2775,-3.2454,-3.0564,-2.837,-2.5961,0.0,0.0,0.0,0.0,0.0,0.0,0.0,0.0,0.0,0.0,0.0,0.0,0.0,0.0,0.0,0.0,0.0,0.0,0.0,0.0,0.0,0.0,0.0,0.0,0.0,0.0,0.0,0.0,0.0,0.0,0.0,0.0,0.0,0.0,0.0,0.0,0.0,0.0,0.0,0.0,0.0,0.0,0.0,0.0,0.0,0.0,0.0,0.0,0.0,0.0,0.0,0.0,0.0,0.0,0.0,0.0,0.0,0.0,0.0,0.0,0.0,0.0,0.0,0.0,0.0,0.0,0.0,0.0,0.0,0.0,0.0,0.0,0.0,0.0,0.0,0.0,0.0,0.0,0.0,0.0,0.0,0.0,0.0,0.0,0.0,0.0,0.0,0.0,0.0,0.0,0.0,0.0,0.0,0.0,0.0,0.0,0.0,0.0,0.0,0.0,0.0,0.0,-2.7607,-2.9604,-3.1207,-3.2739,-3.29,-3.2596,-3.1867,-3.0332,-2.8405,-2.6068,0.0,0.0,0.0,0.0,0.0,0.0,0.0,0.0,0.0,0.0,0.0,0.0,0.0,0.0,0.0,0.0,0.0,0.0,0.0,0.0,0.0,0.0,0.0,0.0,0.0,0.0,0.0,0.0,0.0,0.0,0.0,0.0,0.0,0.0,0.0,0.0,0.0,0.0,0.0,0.0,0.0,0.0,0.0,0.0,0.0,0.0,0.0,0.0,0.0,0.0,0.0,0.0,0.0,0.0,0.0,0.0,0.0,0.0,0.0,0.0,-2.0891,0.0,0.0,0.0,0.0,0.0,0.0,0.0,0.0,0.0,0.0,0.0,0.0,0.0,0.0,0.0,0.0,0.0,0.0,0.0,0.0,0.0,0.0,0.0,0.0,0.0,0.0,0.0,0.0,0.0,0.0,0.0,0.0,0.0,0.0,0.0,0.0,0.0,0.0,0.0,0.0,0.0,-2.775,-3.0101,-3.1813,-3.2793,-3.29,-3.2829,-3.2668,-3.0654,-2.8637,-2.6866,-2.3635,0.0,0.0,0.0,0.0,0.0,0.0,0.0,0.0,0.0,0.0,0.0,0.0,0.0,0.0,0.0,0.0,0.0,0.0,0.0,0.0,0.0,0.0,0.0,0.0,0.0,0.0,0.0,0.0,0.0,0.0,0.0,0.0,0.0,0.0,0.0,0.0,0.0,0.0,0.0,0.0,0.0,0.0,0.0,0.0,0.0,0.0,0.0,0.0,0.0,0.0,0.0,0.0,0.0,0.0,0.0,0.0,0.0,0.0,0.0,0.0,-2.3165,0.0,0.0,0.0,0.0,0.0,0.0,0.0,0.0,0.0,0.0,0.0,0.0,0.0,0.0,0.0,0.0,0.0,0.0,0.0,0.0,0.0,0.0,0.0,0.0,0.0,0.0,0.0,0.0,0.0,0.0,0.0,0.0,0.0,0.0,0.0,0.0,0.0,0.0,0.0,0.0,-2.7785,-3.0261,-3.2025,-3.2811,-3.29,-3.29,-3.29,-3.1436,-2.9833,-2.8245,-2.5194,0.0,0.0,0.0,0.0,0.0,0.0,0.0,0.0,0.0,0.0,0.0,0.0,0.0,0.0,0.0,0.0,0.0,0.0,0.0,0.0,0.0,0.0,0.0,0.0,0.0,0.0,0.0,0.0,0.0,0.0,0.0,0.0,0.0,0.0,0.0,0.0,0.0,0.0,0.0,0.0,0.0,0.0,0.0,0.0,0.0,0.0,0.0,0.0,0.0,0.0,0.0,0.0,0.0,-3.0025,-3.0433,-3.0553,-2.9943,-3.0069,-3.0649,-2.9003,-2.7707,-2.669,-2.543,0.0,0.0,0.0,0.0,0.0,0.0,0.0,0.0,0.0,0.0,0.0,0.0,0.0,0.0,0.0,0.0,0.0,0.0,0.0,0.0,0.0,0.0,0.0,0.0,-3.0209,-2.9283,-2.4629,0.0,0.0,0.0,0.0,0.0,0.0,0.0,0.0,0.0,0.0,0.0,-2.8035,-3.0457,-3.2168,-3.2829,-3.29,-3.29,-3.29,-3.2168,-3.1028,-2.9494,-2.6835,-2.4177,0.0,0.0,0.0,0.0,0.0,0.0,0.0,0.0,0.0,0.0,0.0,0.0,0.0,0.0,0.0,0.0,0.0,0.0,0.0,0.0,0.0,0.0,0.0,0.0,0.0,0.0,0.0,0.0,0.0,0.0,0.0,0.0,-1.7745,-1.8337,0.0,0.0,0.0,0.0,0.0,0.0,0.0,0.0,0.0,0.0,0.0,0.0,0.0,-2.7877,-2.9471,-3.1278,-3.2374,-3.2764,-3.48,-3.5445,-3.4878,-3.4791,-3.4818,-3.4889,-3.4633,0.0,-2.8688,-2.8037,0.0,0.0,0.0,0.0,0.0,0.0,0.0,0.0,0.0,0.0,0.0,0.0,0.0,0.0,0.0,0.0,0.0,0.0,0.0,0.0,0.0,0.0,-3.0634,-3.1321,-3.1546,-3.1249,0.0,-2.7639,-2.5373,-2.3842,-2.2146,0.0,0.0,0.0,0.0,0.0,0.0,0.0,-2.9012,-3.1293,-3.2775,-3.2882,-3.29,-3.29,-3.29,-3.2168,-3.1028,-2.9494,-2.8338,-2.6376,-2.3309,-2.2321,0.0,0.0,0.0,0.0,0.0,0.0,0.0,0.0,0.0,0.0,0.0,0.0,0.0,0.0,0.0,0.0,0.0,0.0,0.0,0.0,0.0,0.0,0.0,0.0,0.0,0.0,0.0,0.0,0.0,-1.716,-1.977,-2.012,-2.1123,-2.1228,0.0,0.0,0.0,0.0,0.0,0.0,0.0,0.0,0.0,-2.9783,-3.0334,-3.1549,-3.347,-3.4319,-3.5044,-3.5664,-3.6432,-3.6757,-3.6646,-3.6231,-3.6356,-3.6913,-3.6303,-3.5147,-3.3543,-3.1334,-2.9527,-2.8025,0.0,0.0,0.0,0.0,-2.6372,-2.6519,-2.7532,-2.7882,-2.7735,-2.6918,0.0,0.0,0.0,0.0,0.0,0.0,0.0,0.0,0.0,0.0,-3.219,-3.3651,-3.3995,-3.392,-3.3678,-3.2126,-3.0,0.0,-2.6529,-2.5586,-2.3071,0.0,0.0,0.0,0.0,-2.8923,-3.0493,-3.2384,-3.3562,-3.3562,-3.3562,-3.3384,-3.2936,-3.2579,-3.1704,-3.0118,-2.9301,-2.7839,-2.5569,-2.3856,-2.2107,0.0,0.0,0.0,0.0,0.0,0.0,0.0,0.0,0.0,0.0,0.0,0.0,0.0,0.0,0.0,0.0,0.0,0.0,0.0,0.0,0.0,0.0,0.0,0.0,0.0,0.0,0.0,0.0,-1.9286,-2.1611,-2.1844,-2.3391,-2.3752,0.0,0.0,0.0,0.0,0.0,0.0,-2.7589,-2.9732,-3.1549,-3.2895,-3.3499,-3.4721,-3.6621,-3.6539,-3.692,-3.7819,-3.7496,-3.7522,-3.7794,-3.7232,-3.7367,-3.7969,-3.7183,-3.7128,-3.7339,-3.4183,-3.2225,-3.1144,-2.9915,-2.9395,-2.9415,-2.9932,-3.0124,-3.0283,-3.1391,-3.176,-3.1637,-3.0807,-2.9982,-2.8962,-2.7201,0.0,0.0,0.0,0.0,-3.0472,-3.2167,-3.297,-3.3799,-3.5728,-3.6195,-3.6278,-3.6446,-3.6044,-3.4504,0.0,-3.0395,-2.9886,-2.6996,0.0,0.0,0.0,0.0,-3.0779,-3.2135,-3.3526,-3.4366,-3.4366,-3.4222,-3.3865,-3.3257,-3.3025,-3.2222,-3.06,-2.9979,-2.8887,-2.708,-2.5319,-2.3838,-2.2635,0.0,0.0,0.0,0.0,0.0,0.0,0.0,0.0,0.0,0.0,0.0,0.0,0.0,0.0,0.0,0.0,0.0,0.0,0.0,0.0,0.0,0.0,0.0,0.0,0.0,0.0,0.0,0.0,0.0,-2.3447,-2.5697,0.0,0.0,0.0,0.0,-2.6488,-2.8858,-3.0663,-3.1491,-3.3612,-3.5168,-3.5942,-3.6373,-3.6997,-3.7804,-3.7438,-3.7796,-3.8908,-3.8897,-3.8908,-3.8924,-3.8897,-3.8684,-3.8371,-3.8311,-3.8311,-3.8165,-3.5973,-3.4662,-3.4006,-3.3186,-3.2479,-3.199,-3.2666,-3.2894,-3.3016,-3.3844,-3.4137,-3.426,-3.502,-3.3897,-3.2138,-3.1402,-3.0282,0.0,0.0,-3.1928,-3.3006,-3.5051,-3.5695,-3.6105,-3.7227,-3.7614,-3.7804,-3.8264,-3.8668,-3.7825,0.0,-3.2374,-3.1581,-3.1367,0.0,-3.0511,-3.1242,-3.2132,-3.3025,-3.3865,-3.4668,-3.5133,-3.5133,-3.4526,-3.4079,-3.4044,-3.3346,-3.2222,-3.06,-3.0475,-2.9405,-2.7098,-2.6902,-2.5765,-2.3487,-2.2535,0.0,0.0,0.0,0.0,0.0,0.0,0.0,0.0,0.0,0.0,0.0,0.0,0.0,0.0,0.0,0.0,0.0,0.0,0.0,0.0,0.0,0.0,0.0,0.0,0.0,0.0,0.0,0.0,-2.5865,-2.79,0.0,-2.6638,-2.8114,-2.9268,-2.9403,-3.1559,-3.3174,-3.3933,-3.5609,-3.664,-3.6885,-3.7497,-3.8176,-3.8909,-3.8784,-3.9141,-3.9968,-3.9968,-3.9968,-3.9952,-3.9512,-3.9243,-3.9072,-3.8602,-3.8391,-3.8343,-3.7566,-3.6848,-3.6178,-3.5428,-3.5017,-3.4822,-3.5056,-3.5428,-3.5785,-3.5643,-3.5853,-3.6139,-3.5526,-3.4829,-3.4113,-3.3396,-3.3254,-3.3501,-3.4027,-3.4822,-3.5711,-3.6431,-3.6654,-3.6896,-3.7554,-3.7766,-3.7916,-3.8334,-3.8558,-3.8291,-3.6918,-3.603,-3.4761,-3.2416,-3.2848,-3.3179,-3.2169,-3.3362,-3.4668,-3.5489,-3.581,-3.5971,-3.5971,-3.5275,-3.4633,-3.4151,-3.2884,-3.1653,-3.0582,-3.005,-2.9191,-2.7821,-2.6782,-2.5836,-2.5003,-2.3225,-2.0858,0.0,0.0,0.0,0.0,0.0,0.0,0.0,0.0,0.0,0.0,0.0,0.0,0.0,0.0,0.0,0.0,0.0,0.0,0.0,0.0,0.0,0.0,0.0,0.0,0.0,0.0,-2.7161,-2.7987,-2.9988,-3.08,-2.9477,-3.0899,-3.2043,-3.2485,-3.4167,-3.5396,-3.5882,-3.7258,-3.8051,-3.8051,-3.8748,-3.9331,-3.9846,-3.9862,-4.0043,-4.0496,-4.0496,-4.0496,-4.048,-4.0027,-3.9862,-3.9829,-3.9314,-3.8974,-3.8764,-3.8764,-3.8343,-3.7647,-3.7193,-3.7015,-3.7015,-3.7015,-3.729,-3.7614,-3.7215,-3.7389,-3.7638,-3.6722,-3.6251,-3.5958,-3.547,-3.5656,-3.6097,-3.6343,-3.6907,-3.7533,-3.7781,-3.7831,-3.7934,-3.8229,-3.8304,-3.8419,-3.8849,-3.9089,-3.9135,-3.8854,-3.83,-3.7069,-3.4598,-3.5258,-3.5668,-3.4235,-3.5172,-3.6203,-3.6738,-3.6792,-3.6792,-3.6792,-3.6078,-3.5311,-3.4543,-3.3009,-3.1653,-3.0582,-2.9815,-2.8923,-2.7839,-2.6782,-2.5961,-2.5444,-2.3106,-2.1001,-1.9189,0.0,0.0,0.0,0.0,0.0,0.0,0.0,0.0,0.0,0.0,0.0,0.0,0.0,0.0,0.0,0.0,0.0,0.0,0.0,0.0,0.0,0.0,0.0,-2.4807,-2.7545,-2.9468,-2.9703,-3.2006,-3.3149,-3.2043,-3.3957,-3.5389,-3.5719,-3.6733,-3.7328,-3.736,-3.8715,-3.9522,-3.9538,-4.014,-4.0496,-4.0529,-4.0529,-4.0529,-4.0561,-4.0561,-4.0561,-4.0561,-4.0529,-4.0529,-4.0529,-4.0496,-4.0124,-3.9538,-3.9522,-3.9072,-3.8424,-3.8408,-3.8391,-3.8391,-3.8391,-3.8391,-3.842,-3.8548,-3.8683,-3.8805,-3.8805,-3.8286,-3.7713,-3.7713,-3.736,-3.7112,-3.7837,-3.8114,-3.8384,-3.909,-3.9299,-3.9299,-3.9299,-3.9299,-3.9415,-3.9893,-4.0375,-4.0507,-3.9743,-3.8963,-3.8323,-3.8049,-3.7994,-3.7893,-3.7609,-3.7558,0.0,-3.7558,-3.7558,-3.7558,-3.7577,-3.6845,-3.6042,-3.5258,-3.3742,-3.217,-3.057,-2.9747,-2.8624,-2.7103,-2.6978,-2.6259,-2.473,-2.2375,-2.0805,-2.0073,0.0,0.0,0.0,0.0,0.0,0.0,0.0,0.0,0.0,0.0,0.0,0.0,0.0,0.0,0.0,0.0,0.0,0.0,0.0,0.0,0.0,0.0,-2.7194,-2.7664,-2.9762,-3.1655,-3.2735,-3.4438,-3.5405,-3.5091,-3.6058,-3.6751,-3.6858,-3.7637,-3.8327,-3.8861,-3.9295,-3.9703,-4.0205,-4.0383,-4.0769,-4.1304,-4.1304,-4.1533,-4.2004,-4.2004,-4.2004,-4.1988,-4.15,-4.1304,-4.1272,-4.0723,-4.0383,-4.0173,-3.9716,-3.9392,-3.912,-3.8602,-3.8391,-3.8391,-3.8391,-3.8391,-3.8408,-3.842,-3.8476,-3.8504,-3.8504,-3.8358,-3.8212,-3.8212,-3.8176,-3.8188,-3.8384,-3.8597,-3.882,-3.9044,-3.9175,-3.9299,-3.9299,-3.9299,-3.9352,-3.9451,-3.9609,-3.9645,-3.9419,-3.9201,-3.8799,-3.8001,-3.7966,-3.7825,-3.7068,-3.6741,0.0,-3.6583,-3.6583,-3.6721,-3.7054,-3.6368,-3.561,-3.4888,-3.2893,-3.1217,-3.0198,-2.8364,-2.7476,-2.7857,-2.6746,-2.5676,-2.473,-2.347,-2.2464,0.0,0.0,0.0,0.0,0.0,0.0,0.0,0.0,0.0,0.0,0.0,0.0,0.0,0.0,0.0,0.0,0.0,0.0,0.0,0.0,0.0,0.0,-2.7996,-2.9988,-3.0895,-3.2093,-3.3307,-3.4424,-3.5849,-3.6724,-3.6724,-3.7355,-3.7776,-3.7776,-3.844,-3.9039,-3.9489,-4.0073,-4.0575,-4.0964,-4.1225,-4.1598,-4.2002,-4.2019,-4.2213,-4.2602,-4.2602,-4.2602,-4.2586,-4.2213,-4.2019,-4.2002,-4.1581,-4.1225,-4.0948,-4.0542,-4.0202,0.0,0.0,0.0,0.0,0.0,-3.8391,-3.8391,-3.8391,-3.8391,-3.8391,-3.8391,-3.8391,-3.8391,-3.8391,-3.8476,-3.8588,-3.8588,-3.8738,-3.8914,-3.8914,-3.9023,-3.9175,-3.9175,-3.9245,-3.9299,-3.9299,-3.9451,-3.953,-3.9352,-3.9635,0.0,-3.8598,-3.84,-3.8067,-3.7092,-3.6791,-3.6551,-3.6245,-3.6194,-3.6298,-3.6583,-3.6182,-3.5625,-3.4932,-3.3032,0.0,0.0,0.0,-2.7315,-2.7472,-2.6401,0.0,0.0,0.0,0.0,0.0,0.0,0.0,0.0,-2.2292,-2.2464,0.0,0.0,0.0,0.0,0.0,0.0,0.0,0.0,0.0,0.0,0.0,0.0,0.0,0.0,0.0,0.0,-2.9852,-3.194,-3.3939,-3.436,-3.47,-3.5373,-3.661,-3.7409,-3.7409,-3.8019,-3.8424,-3.8521,-3.9149,-3.9586,-3.9732,0.0,0.0,0.0,0.0,-4.2602,-4.2602,-4.2602,-4.2602,-4.2602,-4.2602,-4.2602,-4.2602,-4.2602,-4.2602,-4.2602,-4.2602,-4.2278,-4.1725,-4.1628,-4.1174,-4.0367,-3.9039,-3.8521,-3.8505,-3.8424,-3.8391,-3.8391,-3.8391,0.0,0.0,-3.8391,-3.8391,-3.8391,-3.8391,-3.8476,-3.856,-3.856,-3.8655,-3.8777,-3.8777,-3.8887,-3.8969,-3.8969,-3.9121,-3.9245,-3.9245,-3.9592,-3.9765,-3.9362,-4.0011,-4.0343,-3.9441,-3.9024,-3.8478,-3.7547,-3.7271,-3.6911,-3.6268,-3.6097,-3.6066,-3.6126,0.0,0.0,-3.5091,-3.3702,-3.2479,-3.1582,-2.961,-2.7976,-2.6815,-2.6468,-2.63,-2.6211,-2.6907,-2.7277,-2.7264,-2.8709,-2.9069,-2.8392,-2.5503,-2.4896,0.0,0.0,0.0,0.0,0.0,0.0,0.0,0.0,0.0,0.0,0.0,0.0,0.0,0.0,0.0,-2.9885,-3.2069,-3.3825,-3.4855,-3.5963,-3.6713,-3.6886,-3.7663,-3.8197,-3.8197,-3.8327,-3.8651,-3.9233,-3.9424,-4.0008,-4.1142,-4.145,-4.184,-4.2376,-4.2522,-4.2602,-4.2602,-4.2602,-4.2602,-4.2602,0.0,0.0,-4.2602,-4.2602,-4.2602,-4.2602,-4.2602,-4.2522,-4.2344,-4.1808,-4.1174,-4.0415,-3.959,-3.9295,-3.923,-3.8618,-3.8391,-3.8391,-3.8391,-3.8391,-3.8391,-3.8391,-3.8391,-3.8391,-3.8391,-3.842,0.0,-3.842,-3.8532,-3.8644,-3.8644,-3.8738,-3.8832,-3.8832,-3.886,-3.8887,-3.8887,-3.9034,-3.9169,-3.9094,-3.9345,-3.9547,-3.9325,-3.9059,-3.8679,-3.8112,-3.701,-3.62,-3.6067,-3.5515,-3.5293,-3.5683,-3.5727,-3.5421,-3.4686,-3.3807,-3.2666,-3.1213,-3.0214,-2.9292,-2.8378,-2.9145,-2.9301,-2.8727,-2.8852,-2.8941,-2.8941,-2.9244,-2.9637,-3.0015,-2.8834,-2.8423,0.0,0.0,0.0,0.0,0.0,0.0,0.0,0.0,0.0,0.0,0.0,-2.4064,0.0,0.0,-2.9998,-3.215,-3.3712,-3.5024,-3.6092,-3.6869,-3.7295,-3.7295,-3.7954,-3.8391,-3.8391,-3.8732,-3.9088,-3.9473,-4.0154,-4.0867,-4.1563,-4.1905,-4.2261,-4.2586,-4.2602,-4.2602,-4.2602,-4.2602,-4.2602,-4.2602,-4.2602,-4.2602,-4.2602,-4.2602,-4.2602,-4.2602,-4.2602,-4.2602,-4.257,-4.2245,-4.1889,-4.1484,-4.0804,-4.0332,-3.9975,-3.959,-3.9444,-3.9395,-3.9055,-3.8942,-3.8877,-3.8521,-3.8391,-3.8391,-3.8391,-3.8391,-3.8391,-3.8391,-3.8464,-3.8504,-3.8504,-3.8588,-3.8711,-3.8711,-3.875,-3.8805,-3.8805,-3.886,-3.8914,-3.8914,-3.8969,-3.904,-3.904,-3.8934,-3.87,-3.8261,-3.7582,-3.6837,-3.6092,-3.5678,-3.5393,-3.5251,-3.5264,-3.509,-3.4739,-3.4019,-3.278,-3.0861,-3.0585,-3.0093,-2.9187,-2.9855,-3.0153,-2.9943,-3.035,-3.0547,-3.0547,-3.0957,-3.1332,-3.1689,-3.1314,-3.0939,0.0,0.0,0.0,0.0,0.0,0.0,0.0,0.0,-2.1759,-2.4563,-2.5783,-2.7121,-2.9804,-3.0975,-3.2118,-3.4003,-3.504,-3.5995,-3.7134,-3.7409,-3.7506,-3.7506,-3.8051,-3.8391,-3.8391,-3.9084,-3.9554,-3.97,-4.0883,-4.1661,-4.1806,-4.2326,-4.2602,-4.2602,-4.2602,-4.2602,-4.2602,-4.2732,-4.2732,-4.2602,-4.2748,-4.2732,-4.2602,-4.2602,-4.2602,-4.2602,-4.2602,-4.2602,-4.2602,-4.2602,-4.2602,-4.2554,-4.2002,-4.1419,-4.0869,-4.0594,-4.0496,-4.0415,-3.9865,-3.9671,-3.9557,-3.8845,-3.8602,-3.8586,-3.844,-3.8391,-3.8391,-3.8391,-3.8391,-3.8391,-3.8391,-3.8476,-3.856,-3.856,-3.8628,-3.8722,-3.8722,-3.8722,-3.875,-3.875,-3.8777,-3.8805,-3.8805,-3.8805,-3.8706,-3.8388,-3.8242,-3.773,-3.6589,-3.6174,-3.5777,-3.5181,-3.4982,-3.4899,-3.4899,-3.422,-3.3044,-3.125,-3.1327,-3.1014,-3.0072,-3.0436,-3.0728,-3.0836,-3.1569,-3.192,-3.192,-3.2739,-3.3132,-3.315,-3.3275,-3.2918,-1.893,-1.9473,-2.0275,-2.146,-2.1735,-2.2666,0.0,0.0,-2.6814,-2.8845,-2.9798,-3.0574,-3.1591,-3.2854,-3.4036,-3.4936,-3.6206,-3.7101,-3.7263,-3.7873,-3.8278,-3.8278,-3.8359,-3.8391,-3.8391,-3.9084,-3.9765,-4.0335,-4.1158,-4.184,-4.2457,-4.2554,-4.2602,-4.2602,-4.2602,-4.2602,-4.2602,-4.3233,-4.3233,-4.2619,-4.325,-4.3217,-4.2602,-4.2602,-4.2602,-4.2602,-4.2602,-4.2602,-4.2602,-4.2602,-4.2602,-4.2586,-4.2505,-4.2441,-4.2198,-4.0966,-4.0496,-4.048,-4.0399,-4.0383,-4.027,-3.9603,-3.9392,-3.9262,-3.8602,-3.8391,-3.8391,-3.8391,-3.8391,-3.8391,-3.8391,-3.8391,-3.842,-3.842,-3.842,-3.8448,-3.8448,-3.8532,-3.8616,-3.8616,-3.8711,-3.8805,-3.8805,-3.8805,-3.8843,-3.8897,-3.8407,-3.8015,-3.7954,-3.682,-3.5976,-3.5893,-3.5297,-3.4899,-3.4899,-3.422,-3.369,-3.3442,-3.3196,-3.2692,-3.1938,-3.2622,-3.2722,-3.2106,-3.2543,-3.2775,-3.2775,-3.3562,-3.3972,-3.399,-3.465,-3.4543,-2.1098,-2.1678,0.0,0.0,-2.4364,-2.5213,-2.7238,-2.7797,-2.8342,-3.0062,-3.111,-3.1974,-3.2826,-3.3951,-3.4975,0.0,-3.6675,-3.7441,-3.789,-3.8213,-3.8391,-3.8391,-3.8391,-3.8391,-3.8391,-3.9084,-3.9797,-4.0432,-4.1191,-4.1873,-4.2554,-4.2602,-4.2602,-4.2602,-4.2602,-4.2797,-4.3249,-4.3557,-4.3767,-4.3897,-4.4188,-4.3962,-4.3233,-4.3233,-4.3007,-4.2602,-4.2602,-4.2602,-4.2602,-4.2602,-4.2602,-4.2602,-4.2602,-4.2602,-4.2522,-4.1923,-4.1727,-4.1678,-4.1274,-4.1158,-4.1029,-4.0302,-3.9829,-3.9457,-3.912,-3.8732,-3.8391,-3.8391,-3.8391,-3.8391,-3.8391,-3.8391,-3.8391,-3.8391,-3.8391,-3.8391,-3.8391,-3.8448,-3.8476,-3.8476,-3.8532,-3.8572,-3.8572,-3.8572,-3.86,-3.8755,-3.8657,-3.8447,-3.813,-3.725,-3.6307,-3.5446,-3.5081,-3.4899,-3.4899,-3.4618,-3.4253,-3.3822,-3.3673,-3.3376,-3.2874,-3.3154,-3.3446,-3.3616,-3.3794,-3.4003,-3.424,-3.4579,-3.4723,-3.4757,-3.5061,-3.5293,-2.2359,0.0,0.0,-2.5549,-2.6565,-2.7465,-2.84,-2.8996,-2.9751,-3.1195,-3.2136,-3.2898,-3.3572,-3.4504,-3.5428,-3.6189,-3.6869,-3.7566,-3.8294,-3.8391,-3.8391,-3.8391,-3.8391,-3.8391,-3.8391,-3.9084,-3.9797,-4.0432,-4.1191,-4.1873,-4.2554,-4.2602,-4.2602,-4.2602,-4.2797,-4.3153,-4.3702,-4.4107,-4.4447,-4.4787,-4.4982,-4.4706,-4.401,-4.38,-4.3427,-4.2894,-4.2683,-4.2602,-4.2602,-4.2602,-4.2602,-4.2602,-4.2602,-4.2602,-4.2602,-4.2602,-4.2602,-4.2522,-4.2035,-4.1873,-4.1743,-4.1031,-4.0318,-3.9748,-3.957,-3.8974,-3.8391,-3.8391,-3.8391,-3.8391,-3.8391,-3.8391,-3.8391,-3.8391,-3.8391,-3.8391,-3.8391,-3.8391,-3.8391,-3.8391,-3.8391,-3.8391,-3.8391,-3.8391,-3.842,-3.8532,-3.8766,-3.8788,-3.8331,-3.7579,-3.6622,-3.5346,-3.5015,-3.4899,-3.4899,-3.4899,-3.4667,-3.4137,-3.4087,-3.39,-3.3458,-3.3537,-3.3854,-3.4411,-3.4542,-3.4799,-3.5186,-3.5435,-3.5543,-3.5543,-3.5757,-3.6167,0.0,0.0,-2.5573,-2.698,-2.8334,-2.9709,-3.1322,-3.1685,-3.1982,-3.3009,-3.3455,-3.3678,-3.3694,-3.4504,-3.5428,-3.6189,-3.6869,-3.7566,-3.8294,-3.8391,-3.8391,-3.8391,-3.8391,-3.8391,0.0,-3.9084,-3.9797,-4.0432,-4.1191,-4.1873,-4.2554,-4.2602,-4.2602,-4.2602,-4.3282,-4.3686,-4.3719,-4.5063,-4.5419,-4.4804,-4.5451,-4.5419,-4.4739,-4.4043,-4.3702,-4.3638,-4.291,-4.2602,-4.2602,-4.2602,-4.2602,-4.2602,-4.2602,-4.2602,-4.2602,-4.2602,-4.2602,-4.2602,-4.257,-4.257,-4.2457,-4.1806,-4.1077,-4.0335,-3.9716,-3.8974,-3.8391,-3.8391,-3.8391,-3.8391,-3.8391,-3.8391,-3.8391,-3.8391,-3.8391,-3.8391,-3.8391,-3.8391,-3.8391,-3.8391,-3.8391,-3.8391,-3.8391,-3.8391,-3.8391,-3.8408,-3.8628,-3.886,-3.8952,-3.7876,-3.682,-3.6059,-3.533,-3.4899,-3.4899,-3.4899,-3.4883,-3.4866,-3.4866,-3.4535,-3.3812,-3.4153,-3.4253,-3.4024,-3.4411,-3.4799,-3.5186,-3.5989,-3.6363,-3.6381,-3.7166,-3.7541,0.0,0.0,-2.7134,-2.8925,-3.0074,-3.0993,-3.1952,-3.2195,-3.216,-3.2078,-3.2243,-3.2362,-3.2098,-3.3221,-3.4504,-3.5418,-3.6546,-3.7566,-3.8294,-3.8391,-3.8391,-3.8391,-3.8391,0.0,0.0,0.0,0.0,-4.0399,-4.0723,-4.1387,-4.2538,-4.2602,-4.2602,-4.2602,-4.3314,-4.3945,-4.4431,-4.5338,-4.5937,-4.618,-4.5921,-4.5678,-4.5435,-4.4755,-4.4431,-4.4383,-4.367,-4.3346,-4.3282,-4.2797,-4.2602,-4.2602,-4.2602,-4.2602,-4.2602,-4.2602,-4.2602,-4.2602,-4.2602,-4.2602,-4.2554,-4.2359,-4.1792,-4.1191,-4.0964,-4.0073,-3.9149,-3.9149,-3.8764,-3.8391,-3.8391,-3.8391,-3.8391,-3.8391,-3.8391,-3.8391,-3.8391,-3.8391,-3.8391,-3.8391,-3.8391,-3.8391,-3.8391,-3.8391,-3.8391,-3.8391,-3.8628,-3.8723,-3.852,-3.8077,-3.7367,-3.6125,-3.5777,-3.5429,-3.4932,-3.4899,-3.4899,-3.4899,-3.4899,-3.4783,-3.4535,-3.4659,-3.4829,-3.5044,-3.547,-3.5893,-3.6317,-3.6897,-3.7202,-3.7202,-3.747,-3.7595,-2.5659,-2.7216,-2.855,-3.032,-3.1259,-3.1859,-3.229,-3.2198,-3.1844,-3.1182,-3.1078,-3.0961,-3.0518,-3.1396,-3.2762,-3.4529,-3.5574,-3.6691,-3.8197,-3.8391,-3.8391,-3.8391,-3.8391,-3.8391,0.0,0.0,0.0,-4.0383,-4.0496,-4.1112,-4.2522,-4.2602,-4.2602,-4.2602,-4.3589,-4.4318,-4.4787,-4.5726,-4.6423,-4.6876,-4.6407,-4.618,-4.6164,-4.5467,-4.516,-4.5095,-4.4123,-4.3719,-4.3654,-4.2894,-4.2602,-4.2602,-4.2602,-4.2602,-4.2602,-4.2602,-4.2602,-4.2602,-4.2602,-4.2602,-4.2602,-4.2602,-4.2148,-4.1596,-4.1596,-4.0785,-3.9829,-3.9586,-3.9165,-3.8732,-3.8472,-3.8391,-3.8391,-3.8391,-3.8391,-3.8391,-3.8391,-3.8391,-3.8391,-3.8391,-3.8391,-3.8391,-3.8391,-3.8391,-3.8436,-3.8448,-3.8616,-3.8657,-3.8457,-3.8282,-3.7847,-3.6887,-3.6555,-3.6092,-3.5363,-3.5297,-3.5181,-3.4916,-3.4899,-3.4899,-3.4899,-3.4899,-3.5125,-3.5594,-3.5864,-3.6211,-3.6643,-3.7111,-3.7338,-3.7338,-3.7522,-3.7595,-2.6963,-2.8495,-2.9802,-3.112,-3.1921,-3.2382,-3.2351,-3.1828,-3.1136,-3.0386,-2.9921,-2.946,0.0,0.0,-3.0427,-3.3484,-3.4084,-3.5153,-3.8003,-3.8391,-3.8391,0.0,0.0,0.0,0.0,0.0,0.0,-4.0448,0.0,-4.1112,-4.2522,-4.2602,-4.2602,-4.2602,-4.4043,-4.4787,-4.4787,-4.618,-4.6876,-4.6876,-4.6876,-4.6876,-4.6894,-4.618,-4.5856,-4.5775,-4.4415,-4.3816,-4.3767,-4.2958,-4.2651,-4.2651,-4.2619,-4.2602,-4.2602,-4.2602,-4.2602,-4.2602,-4.2602,-4.2602,-4.2602,-4.2602,-4.218,-4.1661,-4.1661,-4.1158,-4.0415,-3.9797,-3.957,-3.936,-3.8634,-3.8424,-3.8391,-3.8391,-3.8391,-3.8391,-3.8391,-3.8391,-3.8391,-3.8391,-3.8391,-3.8391,-3.8391,-3.8391,-3.842,-3.856,-3.8588,-3.8672,-3.8805,-3.849,-3.8219,-3.8186,-3.7582,-3.687,-3.6125,-3.6059,-3.5744,-3.4998,-3.4965,-3.4932,-3.4899,-3.4899,-3.5102,-3.5566,-3.5594,-3.5798,-3.6151,-3.6664,-3.69,-3.69,-3.7374,-3.7631,-2.8935,-2.9999,-3.0661,-3.1839,-3.2259,-3.2259,-3.1767,-3.1136,-3.0197,-2.8519,-2.7697,-2.6962,0.0,0.0,0.0,-3.1895,-3.3767,0.0,-3.8068,-3.8391,0.0,0.0,0.0,-3.923,-3.923,-3.9654,0.0,0.0,-4.0804,-4.1112,-4.2522,-4.2602,-4.2602,-4.2602,-4.4043,-4.4787,-4.4787,-4.618,-4.6876,-4.6876,-4.6876,-4.6876,-4.6876,-4.6698,-4.6601,-4.6552,-4.5662,-4.5273,-4.5176,-4.3945,-4.3427,-4.3347,-4.2813,-4.2602,-4.2602,-4.2602,-4.2602,-4.2602,-4.2602,-4.2602,-4.2602,-4.2602,-4.2473,-4.2327,-4.2327,-4.1857,-4.1288,-4.111,-4.0316,-3.9473,-3.9279,-3.8796,-3.8391,-3.8391,-3.8391,-3.8391,-3.8391,-3.8391,-3.8391,-3.8391,-3.8391,-3.8391,-3.8391,-3.8391,-3.8391,-3.8464,-3.8628,-3.8805,-3.8942,-3.8875,-3.8642,-3.8235,-3.8046,-3.7632,-3.6887,-3.682,-3.6506,-3.5777,-3.5727,-3.5462,-3.4916,-3.4899,-3.497,-3.5095,-3.543,-3.5661,-3.5754,-3.6539,-3.69,-3.69,-3.7374,-3.7916,-3.0287,-3.1148,-3.1591,-3.225,-3.2167,-3.1705,-3.0735,-2.9781,-2.8504,-2.6457,-2.5503,0.0,0.0,0.0,0.0,0.0,0.0,0.0,-3.7415,-3.8113,-3.8521,0.0,-3.9262,0.0,-3.9897,-4.027,-4.0818,0.0,-4.1223,-4.1452,-4.2538,-4.2602,-4.2602,-4.2602,-4.4043,-4.5095,-4.571,-4.6488,-4.6876,-4.6876,-4.6876,-4.6876,-4.6876,-4.6876,-4.6876,-4.6878,0.0,-4.5807,-4.5694,-4.4285,-4.3719,-4.3638,-4.2877,-4.2602,-4.2602,-4.2602,-4.2602,-4.2602,-4.2602,-4.2602,-4.2602,-4.2602,-4.2602,-4.2602,-4.2602,-4.2359,-4.197,-4.1693,-4.1029,-4.0283,-3.9667,-3.9197,-3.8796,-3.8472,-3.8391,-3.8391,-3.8391,-3.8391,-3.8391,-3.8391,-3.8391,-3.8391,-3.8391,-3.8391,-3.8391,-3.8391,-3.8532,-3.8694,-3.8887,-3.9023,-3.9026,-3.8709,-3.8676,-3.8377,-3.7649,-3.7599,-3.7135,-3.6075,-3.6009,-3.5678,-3.4932,-3.4899,-3.4899,-3.4899,-3.5148,-3.5293,-3.5293,-3.6169,-3.6583,-3.6603,-3.7281,-3.8023,-3.1133,-3.1815,-3.2231,-3.2287,-3.1786,-3.0905,-2.9531,-2.8126,-2.6534,-2.443,0.0,-2.2883,-2.2391,0.0,-2.5629,-2.8544,0.0,-3.3733,-3.6517,-3.7689,-3.8553,-3.9408,-3.9586,-3.991,-4.0577,-4.0723,-4.1031,-4.1693,-4.1742,-4.1986,-4.257,-4.2602,-4.2635,-4.2732,-4.4091,-4.5419,-4.673,-4.6828,-4.6876,-4.6876,-4.6876,-4.6876,-4.6876,-4.6876,-4.6876,-4.6878,-4.6115,-4.5807,-4.5694,-4.4285,-4.3719,-4.3638,-4.2877,-4.2602,-4.2602,-4.2602,-4.2602,-4.2602,-4.2602,-4.2602,-4.2602,-4.2602,-4.2602,-4.2602,-4.2602,-4.2602,-4.2473,-4.1889,-4.1677,-4.1304,-3.9991,-3.9586,-3.9327,-3.857,-3.8391,-3.8391,-3.8391,-3.8391,-3.8391,-3.8391,-3.8391,-3.8391,-3.8391,-3.8391,-3.8391,-3.8391,-3.8436,-3.8504,-3.8722,-3.904,-3.9245,-3.9299,-3.9299,-3.905,-3.8411,-3.8361,-3.7765,-3.639,-3.6208,-3.5827,-3.5081,-3.4949,-3.4899,-3.4899,-3.4899,-3.4899,-3.4899,-3.5732,-3.6126,-3.6147,-3.7015,-3.7928,-3.1199,-3.1462,-3.135,-3.1724,-3.1192,-3.015,-2.852,-2.6856,0.0,0.0,0.0,-2.146,-2.0817,-2.2007,0.0,-2.7507,0.0,0.0,0.0,0.0,-3.8003,0.0,0.0,0.0,0.0,0.0,0.0,0.0,0.0,-4.2473,-4.2586,-4.2602,-4.2877,-4.3476,-4.435,-4.5176,-4.5986,-4.6585,-4.6876,-4.6876,-4.6876,-4.6876,-4.6876,-4.6876,-4.6876,-4.6878,-4.6115,0.0,-4.5694,-4.4285,-4.3719,-4.3638,-4.2877,-4.2602,-4.2602,-4.2602,-4.2602,-4.2602,-4.2602,-4.2602,-4.2602,-4.2602,-4.2602,-4.2602,-4.2602,-4.2602,-4.257,-4.2457,-4.2019,-4.1401,-4.0529,-3.9927,-3.9327,-3.857,-3.8391,-3.8391,-3.8391,-3.8391,-3.8391,-3.8391,-3.8391,-3.8391,-3.8391,-3.8391,-3.8391,-3.8391,-3.8476,-3.8588,-3.8616,-3.8794,-3.8969,-3.9272,-3.9299,-3.9249,-3.9133,-3.9116,-3.8725,-3.788,-3.7251,-3.6589,-3.5843,-3.5214,-3.4899,-3.4899,-3.4899,-3.4899,-3.4899,-3.5436,-3.5688,-3.5727,-3.6211,-3.7449,-3.1383,-3.1538,-3.1408,-3.1638,-3.0788,-2.9342,-2.7306,0.0,0.0,0.0,0.0,-2.0672,-2.0366,0.0,0.0,0.0,0.0,0.0,0.0,0.0,0.0,0.0,0.0,0.0,0.0,0.0,0.0,0.0,0.0,-4.2602,-4.2602,-4.2602,-4.2942,-4.3686,-4.4043,-4.4739,-4.5791,-4.6147,-4.6504,-4.6876,-4.6504,-4.6326,-4.6309,-4.5953,-4.5791,-4.5775,-4.5419,-4.5273,-4.5192,-4.4156,-4.3719,-4.3638,-4.2877,-4.2602,-4.2602,-4.2602,-4.2602,-4.2602,-4.2602,-4.2602,-4.2602,-4.2602,-4.2602,-4.2602,-4.2602,-4.2602,-4.2602,-4.2602,-4.2116,-4.1434,-4.0675,-3.9978,-3.9327,-3.857,-3.8391,-3.8391,-3.8391,-3.8391,-3.8391,-3.8391,-3.8391,-3.8391,-3.8391,-3.8391,-3.8391,-3.8391,-3.8448,-3.8504,-3.8588,-3.8672,-3.8821,-3.9121,-3.9148,-3.9175,-3.9299,-3.9299,-3.9,-3.8261,-3.788,-3.735,-3.6605,-3.586,-3.5462,-3.5462,-3.5098,-3.4899,-3.4899,-3.5362,-3.5594,-3.5611,-3.6409,-3.7525,-3.099,-3.1303,-3.1378,-3.1359,-3.0171,-2.8421,-2.6121,-2.4237,0.0,0.0,-1.9977,-2.0202,-2.0287,0.0,0.0,0.0,0.0,0.0,0.0,0.0,0.0,0.0,0.0,0.0,0.0,0.0,0.0,0.0,0.0,0.0,-4.2602,-4.2602,-4.2861,-4.346,-4.3638,-4.4237,-4.5338,-4.5516,-4.5872,-4.6423,-4.5856,-4.5597,-4.5565,-4.503,-4.4787,-4.4787,-4.4625,-4.4561,-4.4512,-4.3783,-4.3444,-4.3427,-4.2829,-4.2602,-4.2602,-4.2602,-4.2602,-4.2602,-4.2602,-4.2602,-4.2602,-4.2602,-4.2602,-4.2602,-4.2602,-4.2602,-4.257,-4.2424,-4.2002,-4.1401,-4.0496,-3.9881,-3.9327,-3.857,-3.8391,-3.8391,-3.8391,-3.8391,-3.8391,-3.8391,-3.8391,-3.8391,-3.8391,-3.8391,-3.8391,-3.8391,-3.8391,-3.842,-3.8532,-3.856,-3.8672,-3.8942,-3.8969,-3.905,-3.9202,-3.9272,-3.9067,-3.8477,-3.8295,-3.7947,-3.7367,-3.6638,-3.6241,-3.6241,-3.5512,-3.5214,-3.5363,-3.5415,-3.5537,-3.5706,-3.6605,-3.7495,-2.9276,-2.9999,-3.0378,-3.0205,-2.8997,-2.7304,-2.512,0.0,0.0,-1.9805,-1.9657,-1.9945,-2.0252,-2.0429,0.0,0.0,0.0,0.0,0.0,0.0,0.0,0.0,0.0,0.0,0.0,0.0,0.0,0.0,0.0,0.0,-4.2602,-4.2602,-4.2635,-4.2699,-4.3331,-4.3767,-4.3897,-4.4561,-4.4917,-4.4982,-4.4917,-4.4885,-4.4885,-4.482,-4.4787,-4.4755,-4.4091,-4.38,0.0,-4.3007,-4.2699,-4.2683,-4.2635,-4.2602,-4.2602,-4.2602,-4.2602,-4.2602,-4.2602,-4.2602,-4.2602,-4.2602,-4.2602,-4.2602,-4.2602,-4.2602,-4.2457,-4.184,-4.1661,-4.1288,-3.9943,-3.9554,-3.9327,-3.857,-3.8391,-3.8391,-3.8391,-3.8391,-3.8391,-3.8391,-3.8391,-3.8391,-3.8391,-3.8391,-3.8391,-3.8391,-3.8391,-3.8391,-3.842,-3.842,-3.8532,-3.8805,-3.8942,-3.8996,-3.904,-3.9175,-3.9265,-3.9199,-3.8576,-3.8179,-3.8086,-3.74,-3.7003,-3.7003,-3.6274,-3.6241,-3.6903,-3.5593,-3.5302,-3.5966,-3.6081,-3.6755,-2.8396,-2.9304,-2.9752,-2.9668,-2.8221,-2.6322,-2.4493,0.0,-2.0686,-1.9623,-1.9472,-1.9711,-2.0218,-2.015,-2.0375,-2.1595,-2.2631,-2.4456,0.0,0.0,0.0,0.0,0.0,0.0,0.0,0.0,0.0,0.0,0.0,0.0,-4.2571,-4.2602,-4.2602,-4.2602,-4.2877,-4.3233,-4.3719,-4.3994,-4.4366,-4.4787,-4.435,-4.414,-4.4123,-4.3686,-4.3492,-4.3444,-4.3153,-4.3023,0.0,-4.2716,-4.2602,-4.2602,-4.2602,-4.2602,-4.2602,-4.2602,-4.2602,-4.2602,-4.2602,-4.2602,-4.2602,-4.2602,-4.2602,-4.2602,-4.2602,-4.2602,-4.2457,-4.1806,-4.1288,-4.0737,-3.9765,-3.9153,-3.8748,-3.8472,-3.8391,-3.8391,-3.8391,-3.8391,-3.8391,-3.8391,-3.8391,-3.8391,-3.8391,-3.8391,-3.8391,-3.8391,-3.8391,-3.8391,-3.8391,-3.8391,-3.8448,-3.8544,-3.875,-3.8942,-3.9148,-3.9245,-3.9299,-3.9299,-3.9033,-3.8858,-3.8858,-3.8162,-3.7765,-3.7765,-3.7052,-3.682,-3.7102,-3.6506,-3.639,-3.6671,-3.7119,-3.7568,-2.6993,-2.8025,-2.8627,-2.8555,-2.7125,-2.5292,0.0,0.0,-2.0084,-1.9382,-1.9246,-1.9435,-2.0045,-1.9889,-1.9864,-2.0406,-2.1088,-2.2613,-2.5666,0.0,0.0,0.0,0.0,0.0,0.0,0.0,0.0,0.0,0.0,0.0,-4.1933,-4.2142,-4.2349,-4.2602,-4.2602,-4.2845,-4.3363,-4.3363,-4.3654,-4.414,-4.3638,-4.3363,-4.3379,-4.2829,-4.2602,-4.2602,-4.2602,-4.2602,0.0,-4.2602,-4.2602,-4.2602,-4.2602,-4.2602,-4.2602,-4.2602,-4.2602,-4.2602,-4.2602,-4.2602,-4.2602,-4.2602,-4.2602,-4.2602,-4.2602,-4.2602,-4.2408,-4.15,-4.0607,-3.9768,-3.9282,-3.878,-3.8391,-3.8391,-3.8391,-3.8391,-3.8391,-3.8391,-3.8391,-3.8391,-3.8391,-3.8391,-3.8391,-3.8391,-3.8391,-3.8391,-3.8391,-3.8391,-3.8391,-3.8391,-3.8436,-3.8448,-3.8628,-3.8849,-3.9083,-3.9164,-3.9202,-3.9202,-3.9272,-3.9299,-3.9299,-3.8791,-3.8526,-3.8526,-3.7814,-3.7533,-3.7748,-3.7317,-3.7218,-3.745,-3.7954,-3.8328,-2.4683,-2.5893,-2.6792,-2.659,-2.5563,-2.4134,0.0,-2.0941,-1.9801,-1.9061,-1.8898,-1.9087,-1.9699,-1.9584,-1.949,-1.9767,-2.0714,-2.2328,-2.4937,0.0,0.0,0.0,0.0,0.0,0.0,0.0,0.0,0.0,0.0,0.0,-4.0451,-4.1111,-4.1835,-4.2571,-4.2602,-4.2602,-4.2619,-4.2619,-4.2619,-4.2619,-4.2619,-4.2619,-4.2619,-4.2602,-4.2602,-4.2602,-4.2602,-4.2602,0.0,-4.2602,-4.2602,-4.2602,-4.2602,-4.2602,-4.2602,-4.2602,-4.2602,-4.2602,-4.2602,-4.2602,-4.2602,-4.2602,-4.2602,-4.2602,-4.2602,-4.2602,-4.2295,-4.0901,-3.9493,-3.8424,-3.8408,-3.8408,-3.8391,-3.8391,-3.8391,-3.8391,-3.8391,-3.8391,-3.8391,-3.8391,-3.8391,-3.8391,-3.8391,-3.8391,-3.8391,-3.8391,-3.8391,-3.8391,-3.8391,-3.8391,-3.8448,-3.8588,-3.8588,-3.8588,-3.8604,-3.8849,-3.8996,-3.8996,-3.9175,-3.9299,-3.9299,-3.9299,-3.9282,-3.9282,-3.856,-3.8543,-3.9265,-3.7814,-3.7483,-3.8195,-3.8186,-3.8593,-2.262,-2.3684,-2.4247,-2.4201,-2.3235,-2.2082,-2.1111,-1.9883,-1.8958,-1.8903,-1.876,-1.8798,-1.9417,-1.9269,-1.9358,-2.0332,-2.1316,0.0,0.0,0.0,0.0,0.0,0.0,0.0,0.0,0.0,0.0,0.0,0.0,0.0,-4.0382,-4.0139,-4.0554,-4.1803,-4.2349,-4.2602,-4.2602,-4.2602,-4.2602,-4.2602,-4.2602,-4.2602,-4.2602,-4.2602,-4.2602,0.0,-4.2602,-4.2602,-4.2602,-4.2602,-4.2602,-4.2602,-4.2602,-4.2602,-4.2602,-4.2602,-4.2602,-4.2602,-4.2602,-4.2602,-4.2522,-4.2067,-4.1905,-4.1808,-4.1322,-4.1517,-4.1614,-4.0218,-3.912,-3.8391,-3.8391,-3.8391,-3.8391,-3.8391,-3.8391,-3.8391,-3.8391,-3.8391,-3.8391,-3.8391,-3.8391,-3.8391,-3.8391,-3.8391,-3.8391,-3.8391,-3.8391,-3.8391,-3.8391,-3.8391,-3.8436,-3.8448,-3.8448,-3.8532,-3.8738,-3.8887,-3.8996,-3.8996,-3.9175,-3.9299,-3.9299,-3.9299,-3.9299,-3.9299,-3.9083,-3.9083,-3.9299,-3.8834,-3.8735,-3.8941,-3.8941,-3.9083,0.0,-2.1763,-2.2433,-2.2433,-2.1687,-2.0801,-2.0175,-1.9228,-1.8556,-1.8702,-1.862,-1.8653,-1.912,-1.895,-1.9036,-1.9947,-2.067,0.0,0.0,0.0,0.0,0.0,0.0,0.0,0.0,0.0,0.0,0.0,0.0,0.0,-3.8732,-3.8556,-3.9048,-4.0303,-4.1251,-4.177,-4.177,-4.2045,-4.2174,-4.219,-4.246,-4.2602,-4.2602,-4.2602,-4.2602,-4.2602,-4.2602,-4.2602,0.0,-4.2602,-4.2602,-4.2602,-4.2602,-4.2602,-4.2602,-4.2602,-4.2602,-4.2554,-4.2326,-4.2229,-4.2116,-4.1403,-4.1191,-4.1061,-4.0318,-4.0445,-4.0623,-3.9748,-3.8958,-3.8391,-3.8391,-3.8391,-3.8391,-3.8391,-3.8391,-3.8391,-3.8391,-3.8391,-3.8391,-3.8391,-3.8391,-3.8391,-3.8391,-3.8391,-3.8391,-3.8391,-3.8391,-3.8391,-3.8391,-3.8391,-3.8391,-3.8391,-3.8391,-3.8476,-3.8628,-3.8766,-3.8876,-3.8914,-3.9094,-3.9218,-3.9299,-3.9299,-3.9299,-3.9299,-3.9299,-3.9299,-3.9299,-3.9299,-3.9299,-3.9299,-3.9299,-3.9299,0.0,0.0,0.0,0.0,-2.0548,-1.9978,-1.9354,-1.8779,0.0,-1.8428,-1.8442,-1.8533,-1.886,-1.8706,-1.8638,-1.9008,0.0,0.0,0.0,0.0,0.0,0.0,0.0,0.0,0.0,0.0,0.0,0.0,0.0,0.0,-3.6036,-3.6632,-3.7387,-3.8207,-3.9438,-4.0186,-4.0382,-4.1078,-4.1426,-4.1426,-4.2126,-4.246,-4.2523,-4.2523,-4.2555,0.0,-4.2602,-4.2602,-4.2602,-4.2602,-4.2602,-4.2602,-4.2602,-4.2602,-4.2602,-4.2602,-4.257,-4.2424,-4.1839,-4.1579,-4.1401,-4.0688,-4.0383,-4.0221,-3.9619,-3.9473,-3.9505,-3.9457,-3.8926,-3.8391,-3.8391,-3.8391,-3.8391,-3.8391,-3.8391,-3.8391,-3.8391,-3.8391,-3.8391,-3.8391,-3.8391,-3.8391,-3.8391,-3.8391,-3.8391,-3.8391,-3.8391,-3.8391,-3.8391,-3.8391,-3.8391,-3.8391,-3.8391,-3.8391,-3.8391,-3.8504,-3.8655,-3.8777,-3.8914,-3.9067,-3.9272,-3.9272,-3.9272,-3.9272,-3.9299,-3.9299,-3.9299,-3.9299,-3.9299,-3.9299,-3.9299,-3.9299,-1.6421,0.0,-1.7777,-1.7777,-1.7679,-1.7538,0.0,-1.7211,-1.7253,-1.7731,0.0,0.0,-1.9097,0.0,0.0,0.0,0.0,0.0,0.0,0.0,0.0,0.0,0.0,0.0,0.0,0.0,0.0,0.0,0.0,-3.6029,-3.5862,-3.6014,-3.6252,-3.6561,-3.6885,-3.8111,-4.0382,-4.0554,-4.0656,-4.0656,-4.0826,-4.1211,-4.177,-4.177,-4.2077,-4.2602,-4.2602,-4.2602,-4.2602,-4.2602,-4.2602,-4.2602,-4.2602,-4.2602,-4.2602,-4.2602,-4.2294,-4.1792,-4.1661,-4.1239,-4.0642,-3.9975,-3.9347,-3.8861,-3.8699,-3.9039,-3.9392,-3.8812,-3.8537,-3.8391,-3.8391,-3.8391,-3.8391,-3.8391,-3.8391,-3.8391,-3.8391,-3.8391,-3.8391,-3.8391,-3.8391,-3.8391,-3.8391,-3.8391,-3.8391,-3.8391,-3.8391,-3.8391,-3.8391,-3.8391,-3.8391,-3.8391,-3.8391,-3.8391,-3.8391,-3.8504,-3.8616,-3.8644,-3.875,-3.886,-3.8914,-3.8914,-3.8969,-3.9067,-3.9202,-3.9299,-3.9299,-3.9299,-3.9299,-3.9299,-3.9299,-3.9299,-1.5284,-1.6185,-1.7098,-1.7098,-1.7323,-1.7534,-1.7534,0.0,0.0,0.0,0.0,0.0,0.0,0.0,0.0,0.0,0.0,0.0,0.0,0.0,0.0,0.0,0.0,0.0,0.0,0.0,0.0,0.0,0.0,-3.479,-3.479,-3.479,-3.4975,-3.5461,-3.5461,-3.6443,-3.8512,-3.886,-3.9184,-3.9488,-3.9818,-4.0328,-4.101,-4.136,-4.1738,-4.2094,-4.2121,-4.2148,-4.2116,-4.1792,-4.1646,-4.1646,-4.1646,-4.1646,-4.1646,-4.1646,-4.1403,-4.1061,-4.0753,-4.014,-3.9476,-3.9104,-3.8732,-3.8391,-3.8391,-3.8683,-3.891,-3.8505,-3.8391,-3.8391,-3.8391,-3.8391,-3.8391,-3.8391,-3.8391,-3.8391,-3.8391,-3.8391,-3.8391,-3.8391,-3.8391,-3.8391,-3.8391,-3.8391,-3.8391,-3.8391,-3.8391,-3.8391,-3.8391,-3.8391,-3.8391,-3.8391,-3.8391,-3.8391,-3.8391,-3.8464,-3.8532,-3.8604,-3.8655,-3.8738,-3.8805,-3.8805,-3.886,-3.8996,-3.9121,-3.9202,-3.9299,-3.9299,-3.9299,-3.9299,-3.9299,-3.9299,-1.4921,-1.6241,-1.7562,-1.7365,-1.7768,-1.8217,-1.8217,0.0,0.0,0.0,0.0,0.0,0.0,0.0,0.0,0.0,0.0,0.0,0.0,0.0,0.0,0.0,0.0,0.0,0.0,0.0,0.0,0.0,0.0,-3.3536,-3.3536,-3.3536,-3.3867,-3.459,-3.4604,-3.5038,-3.5904,-3.6768,-3.7506,-3.8092,-3.8702,-3.9333,-3.9971,-4.0598,-4.0931,-4.1047,0.0,0.0,-4.1233,-4.0709,-4.0496,-4.0496,-4.0496,-4.0496,-4.0496,-4.0496,-4.0432,-4.0237,-3.9557,-3.891,-3.8391,-3.8391,-3.8391,-3.8391,-3.8391,-3.8391,-3.8391,-3.8391,-3.8391,-3.8391,-3.8391,-3.8391,-3.8391,-3.8391,-3.8391,-3.8391,-3.8391,-3.8391,-3.8391,-3.8391,-3.8391,-3.8391,-3.8391,-3.8391,-3.8391,-3.8391,-3.8391,-3.8391,-3.8391,-3.8391,-3.8391,-3.8391,-3.8391,-3.8391,-3.8391,-3.8391,-3.8464,-3.856,-3.8576,-3.8616,-3.8722,-3.875,-3.8805,-3.8958,-3.8969,-3.9094,-3.9245,-3.9299,-3.9299,-3.9299,-3.9299,-3.9299,-1.5424,-1.6547,-1.7337,-1.6252,-1.6494,-1.6972,-1.6972,0.0,0.0,0.0,0.0,0.0,0.0,0.0,0.0,0.0,0.0,0.0,0.0,0.0,0.0,0.0,0.0,0.0,0.0,0.0,0.0,0.0,0.0,-3.3361,-3.3361,-3.3361,-3.3473,-3.3768,-3.3782,-3.3929,-3.4286,-3.5538,-3.6365,-3.6624,-3.6752,-3.7168,-3.785,-3.8001,-3.8357,-3.897,0.0,-3.9801,-3.9863,-4.0303,-4.0496,-4.0496,-4.0496,-4.0496,-4.0496,-4.0496,-4.0124,-3.9554,-3.8812,-3.8489,-3.8391,-3.8391,-3.8391,-3.8391,-3.8391,-3.8391,-3.8391,-3.8391,-3.8391,-3.8391,-3.8391,-3.8391,-3.8391,-3.8391,-3.8391,-3.8391,-3.8391,-3.8391,-3.8391,-3.8391,-3.8391,-3.8391,-3.8391,-3.8391,-3.8391,-3.8391,-3.8391,-3.8391,-3.8391,-3.8391,-3.8391,-3.8391,-3.8391,-3.8391,-3.8391,-3.8391,-3.8408,-3.8436,-3.842,-3.842,-3.8448,-3.856,-3.8644,-3.8672,-3.886,-3.9023,-3.9067,-3.9218,-3.9299,-3.9299,-3.9299,-3.9299,-1.5129,-1.6143,-1.7042,-1.6803,-1.7731,-1.8602,-1.825,-1.8447,0.0,0.0,0.0,0.0,0.0,0.0,0.0,0.0,0.0,0.0,0.0,0.0,0.0,0.0,0.0,0.0,0.0,0.0,0.0,0.0,0.0,0.0,-3.329,-3.329,-3.3361,-3.3431,-3.3431,-3.3536,-3.3744,-3.4489,-3.5144,-3.5652,-3.5652,-3.6058,-3.6836,-3.7237,-3.7583,-3.7922,0.0,-3.8623,-3.8948,-3.8856,-3.9039,-3.9363,-3.9363,-3.9363,-3.9363,-3.9363,-3.9169,-3.8845,-3.8521,-3.8391,-3.8391,-3.8391,-3.8391,-3.8391,-3.8391,-3.8391,-3.8391,-3.8391,-3.8391,-3.8391,-3.8391,-3.8391,-3.8391,-3.8391,-3.8391,-3.8391,-3.8391,-3.8391,-3.8391,-3.8391,-3.8391,-3.8391,-3.8391,-3.8391,-3.8391,-3.8391,-3.8391,-3.8391,-3.8391,-3.8391,-3.8391,-3.8391,-3.8391,-3.8391,-3.8391,-3.8391,-3.8391,-3.8391,-3.8391,-3.8391,-3.8391,-3.8448,-3.8548,-3.8588,-3.8727,-3.8821,-3.8887,-3.8969,-3.904,-3.904,-3.904,-3.9067,-1.4977,-1.5932,-1.7014,-1.7478,0.0,-1.9936,-1.9859,-2.0245,0.0,0.0,0.0,0.0,0.0,0.0,0.0,0.0,0.0,0.0,0.0,0.0,0.0,0.0,0.0,0.0,0.0,0.0,0.0,0.0,0.0,0.0,-3.329,-3.329,-3.329,-3.329,-3.329,-3.3361,-3.3536,-3.3675,-3.4125,-3.4827,-3.4897,-3.5247,-3.5795,-3.6414,-3.6707,-3.6711,-3.6899,-3.7294,-3.7732,-3.7337,-3.746,-3.796,-3.8091,-3.8278,-3.8391,-3.8391,-3.8391,-3.8391,-3.8391,-3.8391,-3.8391,-3.8391,-3.8391,-3.8391,-3.8391,-3.8391,-3.8391,-3.8391,-3.8391,-3.8391,-3.8391,-3.8391,-3.8391,-3.8391,-3.8391,-3.8391,-3.8391,-3.8391,-3.8391,-3.8391,-3.8391,-3.8391,-3.8391,-3.8391,-3.8391,-3.8391,-3.8391,-3.8391,-3.8391,-3.8391,-3.8391,-3.8391,-3.8391,-3.8391,-3.8391,-3.8391,-3.8391,-3.8391,-3.8391,-3.8391,-3.8391,-3.8391,-3.8464,-3.8532,-3.8588,-3.8644,-3.875,-3.8777,-3.8805,-3.8805,-3.8805,-3.8887,-1.548,-1.6561,-1.7548,-1.759,-1.8105,0.0,-2.0773,-2.1195,0.0,-2.2662,0.0,0.0,0.0,0.0,0.0,0.0,0.0,0.0,0.0,0.0,0.0,0.0,0.0,0.0,0.0,0.0,0.0,0.0,0.0,0.0,-3.329,-3.329,-3.329,-3.329,-3.329,-3.3326,-3.3326,-3.3361,-3.355,-3.3988,-3.4283,-3.4399,-3.4257,-3.4511,-3.4612,-3.4632,-3.5276,-3.5572,-3.5653,-3.6259,-3.6508,-3.66,-3.7222,-3.7844,-3.8391,-3.8391,-3.8391,-3.8391,-3.8391,-3.8391,-3.8391,-3.8391,-3.8391,-3.8391,-3.8391,-3.8391,-3.8391,-3.8391,-3.8391,-3.8391,-3.8391,-3.8391,-3.8391,-3.8391,-3.8391,-3.8391,-3.8391,-3.8391,-3.8391,-3.8391,-3.8391,-3.8391,-3.8391,-3.8391,-3.8391,-3.8391,-3.8391,-3.8391,-3.8391,-3.8391,-3.8391,-3.8391,-3.8391,-3.8391,-3.8391,-3.8391,-3.8391,-3.8391,-3.8391,-3.8391,-3.8391,-3.8391,-3.8391,-3.8391,-3.8548,-3.8588,-3.8616,-3.8738,-3.8805,-3.8805,-3.8805,-3.8887,-1.5073,-1.6336,-1.7604,-1.7604,-1.8658,0.0,0.0,-2.1884,-2.2784,-2.4036,-2.4573,0.0,0.0,0.0,0.0,0.0,0.0,0.0,0.0,0.0,0.0,0.0,0.0,0.0,0.0,0.0,0.0,0.0,0.0,0.0,-3.329,-3.329,-3.329,-3.329,-3.329,-3.329,-3.329,-3.3536,-3.3675,-3.3709,-3.3951,-3.4142,-3.4312,-3.438,-3.4414,-3.4414,-3.4654,-3.499,-3.5432,-3.5674,-3.6009,-3.6415,-3.6677,-3.7177,-3.7786,-3.7786,-3.8033,-3.8391,-3.8391,-3.8391,-3.8391,-3.8391,-3.8391,-3.8307,-3.7902,-3.8062,-3.825,-3.7385,-3.746,-3.7873,-3.8307,-3.8391,-3.8391,-3.8391,-3.8391,-3.8391,-3.8391,-3.8391,-3.8391,-3.8391,-3.8391,-3.8391,-3.8391,-3.8391,-3.8391,-3.8391,-3.8391,-3.8391,-3.8391,-3.8391,-3.8391,-3.8391,-3.8391,-3.8391,-3.8391,-3.8391,-3.8391,-3.8391,-3.8391,-3.8391,-3.8391,-3.8391,-3.8391,-3.8391,-3.8464,-3.8492,-3.8492,-3.8532,-3.8544,-3.8544,-3.8544,-3.8628,-1.485,-1.6171,-1.7646,-1.7843,0.0,0.0,-2.1898,-2.2967,-2.4134,-2.5583,-2.6216,0.0,0.0,0.0,0.0,0.0,0.0,0.0,0.0,0.0,0.0,0.0,0.0,0.0,0.0,0.0,0.0,0.0,0.0,0.0,0.0,-3.329,-3.329,-3.329,-3.329,-3.329,-3.329,-3.357,-3.3675,-3.3605,-3.3744,-3.3985,-3.4312,-3.438,-3.4414,-3.4414,-3.4414,-3.4654,-3.5088,-3.5088,-3.5497,-3.6072,-3.6072,-3.6615,-3.7371,-3.7163,-3.7653,-3.8363,-3.8148,-3.8091,-3.8091,-3.8091,-3.7931,-3.7666,-3.7207,-3.7401,-3.7578,-3.6661,-3.6738,-3.7177,-3.7637,-3.7931,-3.8091,-3.8091,-3.825,-3.8391,-3.8391,-3.8391,-3.8391,-3.8391,-3.8391,-3.8391,-3.8391,-3.8391,-3.8391,-3.8391,-3.8391,-3.8391,-3.8391,-3.8391,-3.8391,-3.8391,-3.8391,-3.8391,-3.8391,-3.8391,-3.8391,-3.8391,-3.8391,-3.8391,-3.8391,-3.8391,-3.8391,-3.8391,-3.8391,-3.8391,-3.8391,-3.8391,-3.8391,-3.8391,-3.8391,-3.8476,-1.4977,-1.6171,-1.7759,0.0,0.0,0.0,-2.3544,-2.4585,-2.5541,-2.744,0.0,0.0,0.0,0.0,0.0,0.0,0.0,0.0,0.0,0.0,0.0,0.0,0.0,0.0,0.0,0.0,0.0,0.0,0.0,0.0,0.0,-3.329,-3.329,-3.329,-3.329,-3.329,-3.329,-3.329,-3.3396,-3.3605,-3.3605,-3.3764,-3.4128,-3.4312,-3.4414,-3.4414,-3.4414,-3.4414,-3.4414,-3.4414,-3.4787,-3.54,-3.54,-3.6212,-3.7282,-3.6646,-3.7237,-3.8278,-3.7623,-3.7387,-3.7387,-3.7387,-3.6936,-3.6415,-3.6384,-3.6384,-3.6415,-3.6384,-3.6384,-3.6384,-3.6384,-3.6875,-3.7387,-3.7387,-3.7902,-3.8363,-3.8363,-3.8363,-3.8363,-3.8391,-3.8391,-3.8391,-3.8391,-3.8391,-3.8391,-3.8391,-3.8391,-3.8391,-3.8391,-3.8391,-3.8391,-3.8391,-3.8391,-3.8391,-3.8391,-3.8391,-3.8391,-3.8391,-3.8391,-3.8391,-3.8391,-3.8391,-3.8391,-3.8391,-3.8391,-3.8391,-3.8391,-3.8391,-3.8391,-3.8391,-3.8391,-3.8476,-1.5365,-1.6421,0.0,0.0,0.0,0.0,0.0,-2.5203,0.0,0.0,0.0,0.0,0.0,0.0,0.0,0.0,0.0,0.0,0.0,0.0,0.0,0.0,0.0,0.0,0.0,0.0,0.0,0.0,0.0,0.0,0.0,-3.329,-3.329,-3.329,-3.329,-3.329,-3.329,-3.3431,-3.3536,-3.3605,-3.3744,-3.3902,-3.4094,-3.4162,-3.4264,-3.4414,-3.4414,-3.4414,-3.4414,-3.4414,-3.4501,-3.4687,-3.4687,-3.5219,-3.5961,-3.577,-3.6228,-3.6951,-3.6768,-3.6707,-3.6707,-3.6707,-3.6569,-3.6322,-3.5834,-3.6024,-3.6197,-3.527,-3.5335,-3.5578,-3.5121,-3.5497,-3.6118,-3.6585,-3.686,-3.6981,-3.6981,-3.6981,-3.7131,-3.7594,-3.7698,-3.7844,-3.8307,-3.8391,-3.8391,-3.8391,-3.8391,-3.8391,-3.8391,-3.8391,-3.8391,-3.8391,-3.8391,-3.8391,-3.8391,-3.8391,-3.8391,-3.8391,-3.8391,-3.8391,-3.8391,-3.8391,-3.8391,-3.8391,-3.8391,-3.8391,-3.8391,-3.8391,-3.8391,-3.8391,-3.8391,-3.842,-1.5912,0.0,0.0,0.0,0.0,0.0,0.0,0.0,0.0,0.0,0.0,0.0,0.0,0.0,0.0,0.0,0.0,0.0,0.0,0.0,0.0,0.0,0.0,0.0,0.0,0.0,0.0,0.0,0.0,0.0,0.0,-3.329,-3.329,-3.329,-3.329,-3.329,-3.329,-3.3431,-3.3466,-3.3466,-3.3605,-3.3744,-3.3902,-3.4025,-3.4196,-3.4414,-3.4414,-3.4414,-3.4414,-3.4414,-3.4414,-3.4414,-3.4414,-3.482,-3.5367,-3.5088,-3.5593,-3.6353,-3.6103,-3.6009,-3.6009,-3.6009,-3.5834,-3.5514,-3.5121,-3.527,-3.5432,-3.462,-3.4687,-3.4905,-3.4501,-3.4687,-3.5187,-3.5819,-3.6197,-3.6415,-3.6415,-3.6415,-3.6508,-3.692,-3.7222,-3.7535,-3.7931,-3.8205,-3.8391,-3.8391,-3.8391,-3.8391,-3.8391,-3.8391,-3.8391,-3.8391,-3.8391,-3.8391,-3.8391,-3.8391,-3.8391,-3.8391,-3.8391,-3.8391,-3.8391,-3.8391,-3.8391,-3.8391,-3.8391,-3.8391,-3.8391,-3.8391,-3.8391,-3.8391,-3.8391,-3.8391,0.0,0.0,0.0,0.0,0.0,0.0,0.0,0.0,0.0,0.0,0.0,0.0,0.0,0.0,0.0,0.0,0.0,0.0,0.0,0.0,0.0,0.0,0.0,0.0,0.0,0.0,0.0,0.0,0.0,0.0,-3.3206,-3.3262,-3.329,-3.329,-3.329,-3.329,-3.329,-3.329,-3.329,-3.329,-3.329,-3.3396,-3.3605,-3.3937,-3.4162,-3.4346,-3.438,-3.438,-3.438,-3.438,-3.4414,-3.4414,-3.4414,-3.4787,-3.5252,-3.462,-3.5187,-3.6134,-3.5514,-3.5302,-3.5302,-3.5302,-3.4905,-3.4414,-3.4414,-3.4414,-3.4414,-3.4414,-3.4414,-3.4414,-3.4414,-3.4414,-3.4568,-3.5154,-3.5755,-3.6228,-3.6228,-3.6228,-3.6228,-3.6291,-3.6799,-3.7222,-3.7282,-3.7873,-3.8307,-3.8307,-3.8363,-3.8363,-3.8307,-3.8363,-3.8391,-3.8391,-3.8391,-3.8391,-3.8391,-3.8391,-3.8391,-3.8391,-3.8391,-3.8391,-3.8391,-3.8391,-3.8391,-3.8391,-3.8391,-3.8391,-3.8391,-3.8391,-3.8391,-3.8391,-3.8391,-3.8391,0.0,0.0,0.0,0.0,0.0,0.0,0.0,0.0,0.0,0.0,0.0,0.0,0.0,0.0,0.0,0.0,0.0,0.0,0.0,0.0,0.0,0.0,0.0,0.0,0.0,0.0,0.0,0.0,0.0,0.0,-3.2595,-3.3059,-3.329,-3.329,-3.329,-3.329,-3.329,-3.329,-3.329,-3.329,-3.329,-3.3396,-3.3605,-3.3675,-3.3813,-3.402,-3.4108,-3.4162,-3.4162,-3.4346,-3.4414,-3.4414,-3.4414,-3.4481,-3.4601,-3.4433,-3.4601,-3.482,-3.4668,-3.4635,-3.4635,-3.4635,-3.4501,-3.4414,-3.4414,-3.4414,-3.4414,-3.4414,-3.4414,-3.4414,-3.4414,-3.4414,-3.4448,-3.4601,-3.4721,-3.4839,-3.4839,-3.4839,-3.5004,-3.5514,-3.5738,-3.5992,-3.6508,-3.7177,-3.7623,-3.7623,-3.8062,-3.8221,-3.7682,-3.8062,-3.8391,-3.8391,-3.8391,-3.8391,-3.8391,-3.8391,-3.8391,-3.8391,-3.8391,-3.8391,-3.8391,-3.8391,-3.8391,-3.8391,-3.8391,-3.8391,-3.8391,-3.8391,-3.8391,-3.8391,-3.8391,-3.8391,0.0,0.0,0.0,0.0,0.0,0.0,0.0,0.0,0.0,0.0,0.0,0.0,0.0,0.0,0.0,0.0,0.0,0.0,0.0,0.0,0.0,0.0,0.0,0.0,0.0,0.0,0.0,0.0,0.0,-3.1963,-3.1963,-3.2272,-3.244,-3.244,-3.2736,-3.289,-3.289,-3.315,-3.329,-3.329,-3.329,-3.3361,-3.3466,-3.364,-3.3848,-3.4005,-3.4074,-3.4162,-3.423,-3.4346,-3.4414,-3.4414,-3.4414,-3.4414,-3.4414,-3.4414,-3.4414,-3.4414,-3.4414,-3.4414,-3.4414,-3.4414,-3.4414,-3.4414,-3.4414,-3.4414,-3.4414,-3.4414,-3.4414,-3.4414,-3.4414,-3.4414,-3.4414,-3.4414,-3.4414,-3.4414,-3.4414,-3.4414,-3.4501,-3.4839,-3.5187,-3.5529,-3.5866,-3.6492,-3.692,-3.692,-3.7207,-3.7326,-3.6966,-3.7237,-3.7445,-3.7445,-3.7445,-3.7445,-3.7445,-3.7445,-3.7445,-3.7445,-3.7445,-3.7578,-3.7902,-3.7931,-3.8062,-3.8391,-3.8391,-3.8391,-3.8391,-3.8391,-3.8391,-3.8391,-3.8391,-3.8391,0.0,0.0,0.0,0.0,0.0,0.0,0.0,0.0,0.0,0.0,0.0,0.0,0.0,0.0,0.0,0.0,0.0,0.0,0.0,0.0,0.0,0.0,0.0,0.0,0.0,0.0,0.0,0.0,0.0,-3.1316,-3.1316,-3.1429,-3.1485,-3.1485,-3.1977,-3.2244,-3.2244,-3.275,-3.3002,-3.3002,-3.3066,-3.3178,-3.3326,-3.364,-3.3882,-3.4025,-3.4059,-3.4162,-3.4346,-3.4346,-3.4346,-3.4346,-3.4312,-3.4312,-3.4312,-3.4346,-3.4346,-3.4346,-3.438,-3.4414,-3.4414,-3.4414,-3.4414,-3.4414,-3.4414,-3.4414,-3.438,-3.4346,-3.4346,-3.4346,-3.4312,-3.4312,-3.4312,-3.4312,-3.4312,-3.4346,-3.438,-3.4414,-3.4414,-3.4414,-3.4839,-3.527,-3.5367,-3.5866,-3.6228,-3.6228,-3.6322,-3.6353,-3.6228,-3.6322,-3.6415,-3.6415,-3.6415,-3.6415,-3.6415,-3.6415,-3.6415,-3.6415,-3.6415,-3.6646,-3.7207,-3.7222,-3.7506,-3.8046,-3.8278,-3.8391,-3.8391,-3.8391,-3.8391,-3.8391,-3.8391,-3.8391,0.0,0.0,0.0,0.0,0.0,0.0,0.0,0.0,0.0,0.0,0.0,0.0,0.0,0.0,0.0,0.0,0.0,0.0,0.0,0.0,0.0,0.0,0.0,0.0,0.0,0.0,0.0,0.0,-3.0347,-3.0624,-3.0624,-3.119,-3.1485,-3.1485,-3.1569,-3.1612,-3.1612,-3.1696,-3.1738,-3.1738,-3.2272,-3.2806,-3.329,-3.3361,-3.3501,-3.3675,-3.3848,-3.402,-3.4128,-3.4128,-3.4128,-3.4128,-3.402,-3.3965,-3.3985,-3.4108,-3.4128,-3.4162,-3.4346,-3.4414,-3.4414,-3.4414,-3.4414,-3.4414,-3.4414,-3.4414,-3.4346,-3.4196,-3.4128,-3.4094,-3.3985,-3.3965,-3.3965,-3.3965,-3.3965,-3.4054,-3.4346,-3.4414,-3.4414,-3.4414,-3.4481,-3.4721,-3.5302,-3.5449,-3.5514,-3.5514,-3.604,-3.6197,-3.561,-3.604,-3.6415,-3.6415,-3.6415,-3.6415,-3.6415,-3.6415,-3.6415,-3.6415,-3.6415,-3.6446,-3.6538,-3.6538,-3.6585,-3.6661,-3.7799,-3.8391,-3.8391,-3.8391,-3.8391,-3.8391,-3.8391,-3.8391,0.0,0.0,0.0,0.0,0.0,0.0,0.0,0.0,0.0,0.0,0.0,0.0,0.0,0.0,0.0,0.0,0.0,0.0,0.0,0.0,0.0,0.0,0.0,0.0,0.0,0.0,0.0,0.0,-2.9855,-3.001,-3.001,-3.0291,-3.0431,-3.0431,-3.0769,-3.0951,-3.0951,-3.1302,-3.1485,-3.1485,-3.1766,-3.2033,-3.23,-3.2651,-3.3107,-3.3605,-3.3675,-3.3848,-3.3985,-3.3985,-3.3985,-3.3985,-3.3931,-3.3951,-3.4005,-3.4094,-3.4094,-3.4128,-3.4196,-3.4176,-3.4122,-3.4122,-3.4122,-3.4122,-3.4122,-3.4122,-3.4088,-3.4005,-3.3985,-3.3985,-3.3931,-3.3896,-3.3896,-3.3896,-3.3896,-3.3931,-3.4088,-3.4176,-3.4264,-3.438,-3.4414,-3.4501,-3.4787,-3.4839,-3.4839,-3.4839,-3.5088,-3.5187,-3.4872,-3.5088,-3.527,-3.527,-3.527,-3.527,-3.527,-3.527,-3.527,-3.527,-3.527,-3.5464,-3.5834,-3.5834,-3.6212,-3.6936,-3.7535,-3.7844,-3.7844,-3.8221,-3.8391,-3.8391,-3.8391,-3.8391,0.0,0.0,0.0,0.0,0.0,0.0,0.0,0.0,0.0,0.0,0.0,0.0,0.0,0.0,0.0,0.0,0.0,0.0,0.0,0.0,0.0,0.0,0.0,0.0,0.0,0.0,0.0,0.0,-2.9602,-2.9602,-2.9602,-2.9602,-2.9602,-2.9602,-3.0052,-3.0259,-3.0259,-3.0769,-3.1092,-3.1246,-3.1246,-3.1331,-3.1513,-3.1963,-3.2495,-3.3083,-3.3429,-3.3709,-3.3896,-3.3862,-3.3827,-3.3827,-3.3793,-3.3813,-3.3888,-3.3957,-3.3957,-3.3971,-3.4025,-3.3971,-3.3896,-3.3896,-3.3896,-3.3896,-3.3896,-3.3896,-3.3896,-3.3862,-3.3827,-3.3827,-3.3744,-3.3744,-3.3744,-3.3744,-3.3744,-3.3779,-3.3917,-3.404,-3.4162,-3.4346,-3.4414,-3.438,-3.4346,-3.438,-3.438,-3.4346,-3.438,-3.4414,-3.4414,-3.4414,-3.4414,-3.4414,-3.4414,-3.4414,-3.4414,-3.4414,-3.4414,-3.4414,-3.4414,-3.462,-3.5121,-3.5154,-3.5625,-3.6631,-3.6966,-3.7312,-3.7669,-3.8164,-3.8391,-3.8391,-3.8391,-3.8391,0.0,0.0,0.0,0.0,0.0,0.0,0.0,0.0,0.0,0.0,0.0,0.0,0.0,0.0,0.0,0.0,0.0,0.0,0.0,0.0,0.0,0.0,0.0,0.0,0.0,0.0,0.0,0.0,-2.9602,-2.9602,-2.9602,-2.9602,-2.9602,-2.9602,-2.9645,-2.9659,-2.9659,-2.9687,-2.9996,-3.054,-3.054,-3.0895,-3.1485,-3.1527,-3.1555,-3.1687,-3.3027,-3.3709,-3.3896,-3.3675,-3.3605,-3.3605,-3.3396,-3.3361,-3.3347,-3.357,-3.364,-3.364,-3.3848,-3.3896,-3.3896,-3.3896,-3.3896,-3.3896,-3.3896,-3.3896,-3.3862,-3.3675,-3.3605,-3.357,-3.3396,-3.3326,-3.3326,-3.3326,-3.3326,-3.3452,-3.3991,-3.4094,-3.4162,-3.4346,-3.4414,-3.4346,-3.4162,-3.4264,-3.4346,-3.4128,-3.4264,-3.4414,-3.4414,-3.4414,-3.4414,-3.4414,-3.4414,-3.4414,-3.4414,-3.4414,-3.4414,-3.4414,-3.4414,-3.4414,-3.4433,-3.4433,-3.4467,-3.4568,-3.5802,-3.7071,-3.8335,-3.8363,-3.8391,-3.8391,-3.8391,-3.8391,0.0,0.0,0.0,0.0,0.0,0.0,0.0,0.0,0.0,0.0,0.0,0.0,0.0,0.0,0.0,0.0,0.0,0.0,0.0,0.0,0.0,0.0,0.0,0.0,0.0,0.0,0.0,0.0,0.0,-2.9602,-2.9602,-2.9602,-2.9602,-2.9602,-2.9602,-2.9602,-2.9602,-2.9602,-2.9715,-2.994,-2.994,-3.0066,-3.0291,-3.0684,-3.0867,-3.0909,-3.1847,-3.2506,-3.297,-3.3262,-3.3396,-3.3396,-3.3326,-3.3396,-3.3501,-3.357,-3.3605,-3.3605,-3.3675,-3.3605,-3.3501,-3.3501,-3.3501,-3.3501,-3.3501,-3.3501,-3.3501,-3.3431,-3.3396,-3.3396,-3.3326,-3.329,-3.329,-3.329,-3.329,-3.3396,-3.3695,-3.3764,-3.3848,-3.4054,-3.4088,-3.4054,-3.3985,-3.402,-3.4054,-3.3985,-3.402,-3.4122,-3.421,-3.4196,-3.4264,-3.438,-3.4414,-3.4414,-3.4414,-3.4414,-3.4414,-3.4414,-3.4414,-3.4414,-3.4414,-3.4414,-3.4601,-3.5023,-3.5514,-3.6197,-3.7101,-3.7988,-3.8391,-3.8391,-3.8391,-3.8391,-1.0444,0.0,0.0,0.0,0.0,0.0,0.0,0.0,0.0,0.0,0.0,0.0,0.0,0.0,0.0,0.0,0.0,0.0,0.0,0.0,0.0,0.0,0.0,0.0,0.0,0.0,0.0,0.0,0.0,0.0,-2.8998,-2.8998,-2.9083,-2.9293,-2.949,-2.9602,-2.9602,-2.9602,-2.9602,-2.9602,-2.9602,-2.9602,-2.9617,-3.0038,-3.0189,-3.0217,-3.0895,-3.1527,-3.2145,-3.2764,-3.3016,-3.3031,-3.3206,-3.3396,-3.3501,-3.3501,-3.3501,-3.3501,-3.3501,-3.3396,-3.329,-3.329,-3.329,-3.329,-3.329,-3.329,-3.329,-3.329,-3.329,-3.329,-3.329,-3.329,-3.329,-3.329,-3.329,-3.3361,-3.3466,-3.3536,-3.364,-3.3862,-3.3896,-3.3896,-3.3827,-3.3862,-3.3896,-3.3827,-3.3882,-3.4005,-3.4094,-3.4162,-3.423,-3.4312,-3.4312,-3.4312,-3.4312,-3.4244,-3.4278,-3.438,-3.4346,-3.4346,-3.4414,-3.4414,-3.4601,-3.507,-3.5285,-3.5738,-3.6415,-3.7519,-3.8062,-3.8062,-3.8307,-3.8391,0.0,0.0,0.0,0.0,0.0,0.0,0.0,0.0,0.0,0.0,0.0,0.0,0.0,0.0,0.0,0.0,0.0,0.0,0.0,0.0,0.0,0.0,0.0,0.0,0.0,0.0,0.0,0.0,-2.7776,-2.7776,-2.7776,-2.7776,-2.8087,-2.8647,-2.9237,-2.956,-2.9574,-2.9574,-2.9588,-2.9602,-2.9602,-2.9602,-2.9602,-2.9602,-2.9602,-2.9645,-3.0203,-3.0853,-3.1485,-3.2117,-3.237,-3.244,-3.3059,-3.3262,-3.3262,-3.3276,-3.329,-3.329,-3.329,-3.329,-3.329,-3.329,-3.329,-3.329,-3.329,-3.329,-3.329,-3.329,-3.329,-3.329,-3.329,-3.329,-3.329,-3.329,-3.329,-3.329,-3.329,-3.3466,-3.364,-3.3862,-3.3896,-3.3827,-3.3605,-3.3744,-3.3827,-3.3605,-3.3868,-3.4094,-3.4094,-3.4278,-3.4312,-3.4128,-3.4094,-3.4094,-3.4094,-3.3985,-3.4054,-3.4346,-3.4196,-3.4162,-3.438,-3.438,-3.438,-3.438,-3.5008,-3.5676,-3.6353,-3.7057,-3.7417,-3.7447,-3.8091,-3.8391,-1.0585,0.0,0.0,0.0,0.0,0.0,0.0,0.0,0.0,0.0,0.0,0.0,0.0,0.0,0.0,0.0,0.0,0.0,0.0,0.0,0.0,0.0,0.0,0.0,0.0,0.0,0.0,0.0,-2.6846,-2.7086,-2.7086,-2.7542,-2.789,-2.8044,-2.8227,-2.8493,-2.8942,-2.8942,-2.9167,-2.9602,-2.9602,-2.9602,-2.9602,-2.9602,-2.9602,-2.9617,-2.9785,-2.9954,-3.0207,-3.1302,-3.1738,-3.1808,-3.2412,-3.2665,-3.2707,-3.3122,-3.329,-3.329,-3.329,-3.329,-3.329,-3.329,-3.329,-3.329,-3.329,-3.329,-3.329,-3.329,-3.329,-3.329,-3.329,-3.329,-3.329,-3.329,-3.329,-3.329,-3.329,-3.3361,-3.3396,-3.3466,-3.3466,-3.3466,-3.3396,-3.3431,-3.3466,-3.3396,-3.3452,-3.3556,-3.373,-3.3779,-3.3848,-3.3951,-3.3951,-3.3951,-3.3951,-3.3931,-3.3931,-3.402,-3.3985,-3.3985,-3.402,-3.4142,-3.4162,-3.4162,-3.4083,-3.4317,-3.4971,-3.66,-3.7669,-3.8119,-3.8307,-3.8391,-1.1182,-1.187,0.0,0.0,0.0,0.0,0.0,-1.4545,0.0,0.0,0.0,0.0,0.0,0.0,0.0,0.0,0.0,0.0,0.0,0.0,0.0,0.0,0.0,0.0,0.0,-2.4511,-2.4827,-2.5101,-2.5419,-2.5746,-2.6038,-2.6897,-2.7369,-2.7369,-2.7665,-2.7974,-2.831,-2.831,-2.8619,-2.9223,-2.9223,-2.9364,-2.9602,-2.9602,-2.9602,-2.9602,-2.9602,-2.9602,-2.9659,-3.0403,-3.0853,-3.1148,-3.178,-3.2019,-3.2075,-3.2426,-3.2553,-3.2553,-3.2553,-3.2553,-3.2553,-3.2553,-3.2736,-3.2932,-3.2932,-3.308,-3.329,-3.329,-3.329,-3.329,-3.329,-3.329,-3.329,-3.329,-3.329,-3.329,-3.329,-3.329,-3.329,-3.329,-3.329,-3.329,-3.329,-3.329,-3.329,-3.329,-3.3361,-3.3466,-3.357,-3.3675,-3.3744,-3.3793,-3.3793,-3.3793,-3.3793,-3.3709,-3.3709,-3.3896,-3.3827,-3.3699,-3.3496,-3.357,-3.3475,-3.325,-3.2976,-3.3322,-3.4196,-3.5504,-3.6594,-3.7445,-3.7799,-3.7931,-1.183,-1.2295,-1.305,-1.2981,0.0,0.0,-1.4046,-1.4554,0.0,0.0,0.0,0.0,0.0,0.0,0.0,0.0,0.0,0.0,0.0,0.0,0.0,0.0,0.0,0.0,-2.285,-2.291,-2.3174,-2.3758,-2.3846,-2.4179,-2.485,-2.5978,-2.6595,-2.6595,-2.7241,-2.7622,-2.7693,-2.7693,-2.8016,-2.8591,-2.8591,-2.8914,-2.9504,-2.9504,-2.9546,-2.9602,-2.9602,-2.9602,-2.9602,-2.9602,-2.994,-3.0455,-3.1134,-3.1387,-3.1387,-3.1471,-3.1485,-3.1485,-3.1485,-3.1485,-3.1485,-3.1485,-3.185,-3.23,-3.23,-3.2679,-3.308,-3.308,-3.3178,-3.3262,-3.3108,-3.3136,-3.3164,-3.3108,-3.3136,-3.3178,-3.3178,-3.3234,-3.329,-3.329,-3.329,-3.329,-3.329,-3.329,-3.329,-3.329,-3.3466,-3.357,-3.357,-3.3709,-3.3744,-3.3605,-3.357,-3.3542,-3.3471,-3.3297,-3.3367,-3.3713,-3.3504,-3.32,-3.2872,-3.2773,-3.2506,-3.1982,-3.1982,-3.2508,-3.3588,-3.4166,-3.5012,-3.6089,-3.6844,-3.7177,-1.3317,-1.3615,-1.3994,-1.3578,0.0,0.0,-1.341,-1.3576,0.0,0.0,0.0,0.0,0.0,0.0,0.0,0.0,0.0,0.0,0.0,0.0,0.0,0.0,0.0,0.0,-2.1739,-2.1716,-2.1958,-2.2506,-2.301,-2.3522,-2.415,-2.4916,-2.5351,-2.5351,-2.5939,-2.6497,-2.6989,-2.7003,-2.7326,-2.7988,-2.7988,-2.8282,-2.8872,-2.8872,-2.9139,-2.9602,-2.9602,-2.9602,-2.9602,-2.9602,-2.9673,-2.9855,-3.0441,-3.068,-3.0769,-3.1302,-3.1485,-3.1485,-3.1485,-3.1485,-3.1485,-3.1485,-3.1569,-3.1668,-3.1668,-3.1752,-3.185,-3.185,-3.2553,-3.3066,-3.2103,-3.2216,-3.2455,-3.1963,-3.2216,-3.2595,-3.2595,-3.2974,-3.329,-3.329,-3.329,-3.329,-3.329,-3.329,-3.329,-3.329,-3.3326,-3.3361,-3.3361,-3.3396,-3.3396,-3.3361,-3.3361,-3.315,-3.2672,-3.2581,-3.2615,-3.2684,-3.2185,-3.2086,-3.2486,-3.2127,-3.1867,-3.1772,-3.1917,-3.1879,-3.1651,-3.3781,-3.5169,-3.5869,-3.6042,-3.6307,-1.4201,-1.4362,-1.4683,-1.4419,0.0,0.0,0.0,0.0,-1.4127,0.0,0.0,0.0,0.0,0.0,0.0,0.0,0.0,0.0,0.0,0.0,0.0,0.0,0.0,0.0,-2.1012,-2.1007,-2.1115,-2.1398,-2.2211,-2.282,-2.3141,-2.3992,-2.4637,-2.4977,-2.5286,-2.573,-2.6357,-2.6357,-2.6666,-2.7298,-2.7298,-2.7621,-2.8269,-2.8549,-2.8872,-2.9167,-2.9476,-2.9602,-2.9602,-2.9602,-2.9602,-2.9645,-2.994,-3.0066,-3.0076,-3.0431,-3.0544,-3.0544,-3.0544,-3.0544,-3.0544,-3.0544,-3.0769,-3.1007,-3.1007,-3.1232,-3.1485,-3.1485,-3.1935,-3.2258,-3.1654,-3.171,-3.1864,-3.1555,-3.1724,-3.1949,-3.1949,-3.2188,-3.2412,-3.2412,-3.2412,-3.2595,-3.3178,-3.329,-3.329,-3.329,-3.3059,-3.2974,-3.3248,-3.2778,-3.2525,-3.2834,-3.2595,-3.2286,-3.1977,-3.1949,-3.1949,-3.1949,-3.1668,-3.1485,-3.1471,-3.1228,-3.0968,-3.0658,-3.0754,-3.0786,-3.0786,-3.2408,-3.3566,-3.4277,-3.5011,-3.5565,0.0,0.0,0.0,0.0,0.0,-1.4844,0.0,0.0,0.0,-1.5106,0.0,0.0,0.0,0.0,0.0,0.0,0.0,0.0,0.0,0.0,0.0,0.0,0.0,0.0,-2.0286,-2.0281,-2.0382,-2.0591,-2.1243,-2.179,-2.2114,-2.3125,-2.3974,-2.4609,-2.4863,-2.5174,-2.5536,-2.5784,-2.6091,-2.6455,-2.6455,-2.679,-2.7448,-2.7831,-2.8049,-2.8188,-2.8782,-2.9126,-2.9233,-2.9219,-2.9275,-2.9401,-2.954,-2.9602,-2.9602,-2.9602,-2.9602,-2.9602,-2.9602,-2.9602,-2.9602,-2.9602,-2.994,-3.0315,-3.0315,-3.0797,-3.1274,-3.1162,-3.1302,-3.1429,-3.119,-3.1218,-3.1274,-3.1148,-3.1218,-3.1302,-3.1302,-3.1401,-3.1485,-3.1485,-3.1485,-3.1808,-3.2806,-3.296,-3.296,-3.296,-3.2553,-3.2412,-3.2904,-3.2103,-3.1682,-3.2174,-3.178,-3.1443,-3.1316,-3.1302,-3.1302,-3.1302,-3.119,-3.0951,-3.0512,-3.0385,-3.0091,-2.9617,-2.9602,-2.9855,-3.0315,-3.112,-3.1875,-3.2665,-3.3979,-3.4843,0.0,0.0,0.0,0.0,-1.6071,0.0,0.0,0.0,-1.4853,-1.4208,0.0,0.0,0.0,0.0,0.0,0.0,0.0,0.0,0.0,0.0,0.0,0.0,0.0,0.0,0.0,-1.9179,-1.9576,-2.0538,-1.9851,-1.9987,-2.1438,-2.2143,-2.2761,-2.3314,-2.4408,-2.4765,-2.4224,-2.5342,-2.5674,-2.5185,-2.5185,-2.5513,-2.6101,-2.5621,-2.5729,-2.6246,-2.6797,-2.7385,-2.7916,-2.7786,-2.8097,-2.8698,-2.9324,-2.9602,-2.9602,-2.9602,-2.9602,-2.9602,-2.9602,-2.9602,-2.9602,-2.9602,-2.9659,-2.9715,-2.9715,-3.0136,-3.0484,-2.9968,-3.0628,-3.1232,-3.0108,-3.0221,-3.0469,-2.9954,-3.0235,-3.0596,-3.0596,-3.1078,-3.1485,-3.1485,-3.1485,-3.1527,-3.1668,-3.1696,-3.1696,-3.1696,-3.164,-3.1626,-3.1696,-3.1569,-3.1527,-3.1583,-3.1527,-3.126,-3.0652,-3.0596,-3.0596,-3.0596,-3.0122,-3.0024,-3.0469,-3.001,-2.9673,-2.9602,-2.9602,-2.9645,-2.9715,-3.0909,-3.1808,-3.2461,-3.3169,-3.3997,0.0,0.0,0.0,0.0,0.0,0.0,-1.5475,0.0,-1.5038,0.0,0.0,0.0,0.0,0.0,0.0,0.0,0.0,0.0,0.0,0.0,0.0,0.0,0.0,0.0,0.0,0.0,-1.7916,-1.8672,-1.8614,-1.8963,-1.9949,-2.1124,-2.2046,-2.2627,-2.3456,-2.3917,-2.3992,-2.4525,-2.4667,-2.4423,-2.4423,-2.4543,-2.4811,-2.4932,-2.5144,-2.5393,-2.5984,-2.6408,-2.6685,-2.6933,-2.7202,-2.752,-2.8139,-2.8629,-2.8949,-2.8949,-2.923,-2.9602,-2.9602,-2.9602,-2.9602,-2.9602,-2.9602,-2.9602,-2.9602,-2.9785,-2.994,-2.9673,-2.9996,-3.0277,-2.9743,-2.9799,-2.9926,-2.9673,-2.9799,-2.9996,-2.9996,-3.0207,-3.0403,-3.0403,-3.0403,-3.0403,-3.0403,-3.1007,-3.1485,-3.1485,-3.1176,-3.1064,-3.1443,-3.0853,-3.053,-3.0895,-3.0614,-3.0291,-3.001,-2.9996,-2.9996,-2.9996,-2.9757,-2.9715,-2.9982,-2.9743,-2.9602,-2.9602,-2.9602,-2.9602,-2.9602,-3.0881,-3.1626,-3.1893,-3.2876,-3.3874,-1.6852,0.0,0.0,0.0,0.0,0.0,0.0,0.0,0.0,0.0,0.0,0.0,0.0,0.0,0.0,-1.4213,0.0,0.0,0.0,0.0,0.0,0.0,0.0,0.0,0.0,0.0,0.0,-1.7327,0.0,-1.782,-1.8927,-2.0105,-2.1156,-2.2039,-2.2602,-2.3086,-2.3505,-2.3816,-2.3933,-2.3758,-2.3758,-2.3758,-2.3771,-2.409,-2.4235,-2.4261,-2.4857,-2.5226,-2.5408,-2.5769,-2.6103,-2.6414,-2.6616,-2.7194,-2.794,-2.8136,-2.868,-2.9261,-2.9071,-2.9135,-2.9324,-2.954,-2.9602,-2.9602,-2.9602,-2.9602,-2.9602,-2.9602,-2.9602,-2.9602,-2.9602,-2.9602,-2.9602,-2.9602,-2.9602,-2.9602,-2.9602,-2.9602,-2.9602,-2.9602,-2.9602,-2.9602,-2.9602,-3.0375,-3.0979,-3.0979,-3.0572,-3.0445,-3.0909,-3.0178,-2.9785,-3.0203,-2.9869,-2.9602,-2.9602,-2.9602,-2.9602,-2.9602,-2.9602,-2.9602,-2.9602,-2.9602,-2.9602,-2.9602,-2.9602,-2.9687,-2.9855,-3.0951,-3.1583,-3.1766,-3.282,-3.3874,0.0,0.0,0.0,-1.6812,0.0,0.0,0.0,0.0,-1.5763,0.0,0.0,0.0,0.0,-1.5044,-1.4516,-1.3991,-1.3909,0.0,0.0,0.0,0.0,0.0,0.0,0.0,0.0,0.0,-1.5696,0.0,-1.596,-1.6247,-1.8855,-1.9035,-1.9808,-2.1386,-2.2018,-2.2308,-2.2278,-2.3429,-2.3699,-2.3148,-2.3148,-2.3148,-2.3118,-2.2555,-2.2302,-2.2308,-2.287,-2.3477,-2.4041,-2.3937,-2.4574,-2.5565,-2.4871,-2.5372,-2.6552,-2.7284,-2.7953,-2.8427,-2.7802,-2.7986,-2.8666,-2.9369,-2.9602,-2.9602,-2.9602,-2.9602,-2.9602,-2.9602,-2.9602,-2.9602,-2.9602,-2.9602,-2.9602,-2.9602,-2.9602,-2.9602,-2.9602,-2.9602,-2.9602,-2.9602,-2.9602,-2.9602,-2.9602,-2.9645,-2.9673,-2.9673,-2.9645,-2.9645,-2.9673,-2.9631,-2.9617,-2.9645,-2.9617,-2.9602,-2.9602,-2.9602,-2.9602,-2.9602,-2.9602,-2.9602,-2.9602,-2.9602,-2.9602,-2.9602,-2.9602,-2.9897,-3.0455,-3.1162,-3.1794,-3.2398,-3.3031,-3.3874,-1.7363,-1.7757,-1.793,-1.712,0.0,0.0,0.0,0.0,0.0,0.0,0.0,0.0,0.0,-1.5002,-1.4646,-1.4469,-1.4132,-1.3811,0.0,0.0,0.0,0.0,0.0,0.0,0.0,0.0,0.0,0.0,-1.5636,0.0,-1.7327,-1.8422,-1.9239,-1.9793,-2.1058,-2.1673,-2.1668,-2.242,-2.2714,-2.25,-2.25,-2.25,-2.25,-2.2278,-2.2197,-2.2197,-2.2378,-2.2606,-2.2836,-2.3143,-2.3502,-2.3928,-2.4355,-2.5071,-2.5946,-2.6549,-2.7204,-2.7802,-2.7571,-2.7637,-2.7868,-2.8143,-2.8208,-2.8306,-2.8744,-2.8871,-2.898,-2.9463,-2.9602,-2.9602,-2.9602,-2.9602,-2.9602,-2.9602,-2.9602,-2.9602,-2.9602,-2.9602,-2.9602,-2.9602,-2.9602,-2.9602,-2.9602,-2.9602,-2.9602,-2.9602,-2.9602,-2.9602,-2.9602,-2.9602,-2.9602,-2.9602,-2.9602,-2.9602,-2.9602,-2.9602,-2.9602,-2.9602,-2.9602,-2.9602,-2.9602,-2.9602,-2.9602,-2.9602,-3.001,-3.0287,-3.0498,-3.1583,-3.2202,-3.2412,-3.2623,-3.3473,-1.7169,-1.7545,-1.7744,-1.7143,-1.6981,0.0,-1.5975,0.0,-1.6269,0.0,0.0,0.0,0.0,-1.5062,-1.4767,-1.457,-1.4103,-1.3583,0.0,-1.316,0.0,0.0,0.0,0.0,0.0,0.0,-1.4493,-1.5229,-1.5094,0.0,0.0,-1.7748,-1.8602,-1.8975,-2.0189,-2.1007,-2.1404,-2.174,-2.2005,-2.2197,-2.2197,-2.2197,-2.2197,-2.2197,-2.2197,-2.2197,-2.2197,-2.2197,-2.2221,-2.2558,-2.2843,-2.3051,-2.3713,-2.4496,-2.5259,-2.5802,-2.6299,-2.6765,-2.7015,-2.7116,-2.7149,-2.7417,-2.7517,-2.7571,-2.8019,-2.8149,-2.8247,-2.8707,-2.8849,-2.8912,-2.9166,-2.923,-2.9261,-2.954,-2.9602,-2.9602,-2.9602,-2.9602,-2.9602,-2.9602,-2.9602,-2.9602,-2.9602,-2.9602,-2.9602,-2.9602,-2.9602,-2.9602,-2.9602,-2.9602,-2.9602,-2.9602,-2.9602,-2.9602,-2.9602,-2.9602,-2.9602,-2.9602,-2.9602,-2.9602,-2.9602,-2.9602,-2.9602,-2.9602,-2.9996,-3.0385,-3.0867,-3.1457,-3.1963,-3.2398,-3.2188,-3.2763]}]]